[[{"header":{"parameterUnit":"m.s-1","parameterCategory":1,"la1":31.0,"la2":29.5877,"lo1":-88.7671,"lo2":-86.6584,"dy":0.0162,"dx":0.0185,"nx":115,"ny":88,"refTime":"2026-04-01T12:00:00:Z","depth":0,"parameterNumber":2,"parameterNumberName":"U-component_of_WINDS"},"data":[0.0,0.0,0.0,0.0,0.0,0.0,0.0,0.0,0.0,0.0,0.0,0.0,0.0,0.0,0.0,0.0,0.0,0.0,0.0,0.0,0.0,0.0,0.0,0.0,0.0,0.0,0.0,0.0,0.0,0.0,0.0,0.0,0.0,0.0,0.0,0.0,0.0,0.0,0.0,0.0,0.0,0.0,0.0,0.0,0.0,0.0,0.0,0.0,0.0,0.0,0.0,0.0,0.0,0.0,0.0,0.0,0.0,0.0,0.0,0.0,0.0,0.0,0.0,0.0,0.0,0.0,0.0,0.0,0.0,0.0,0.0,0.0,0.0,0.0,0.0,0.0,0.0,0.0,0.0,0.0,0.0,0.0,0.0,0.0,0.0,0.0,0.0,0.0,0.0,0.0,0.0,0.0,0.0,0.0,0.0,0.0,0.0,0.0,0.0,0.0,0.0,0.0,0.0,0.0,0.0,0.0,0.0,0.0,0.0,0.0,0.0,0.0,0.0,0.0,0.0,0.0,0.0,0.0,0.0,0.0,0.0,0.0,0.0,0.0,0.0,0.0,0.0,0.0,0.0,0.0,0.0,0.0,0.0,0.0,0.0,0.0,0.0,0.0,0.0,0.0,0.0,0.0,0.0,0.0,0.0,0.0,0.0,0.0,0.0,0.0,0.0,0.0,0.0,0.0,0.0,0.0,0.0,0.0,0.0,0.0,0.0,0.0,0.0,0.0,0.0,0.0,0.0,0.0,0.0,0.0,0.0,0.0,0.0,0.0,0.0,0.0,0.0,0.0,0.0,0.0,0.0,0.0,0.0,0.0,0.0,0.0,0.0,0.0,0.0,0.0,0.0,0.0,0.0,0.0,0.0,0.0,0.0,0.0,0.0,0.0,0.0,0.0,0.0,0.0,0.0,0.0,0.0,0.0,0.0,0.0,0.0,0.0,0.0,0.0,0.0,0.0,0.0,0.0,0.0,0.0,0.0,0.0,0.0,0.0,0.0,0.0,0.0,0.0,0.0,0.0,0.0,0.0,0.0,0.0,0.0,0.0,0.0,0.0,0.0,0.0,0.0,0.0,0.0,0.0,0.0,0.0,0.0,0.0,0.0,0.0,0.0,0.0,0.0,0.0,0.0,0.0,0.0,0.0,0.0,0.0,0.0,0.0,0.0,0.0,0.0,0.0,0.0,0.0,0.0,0.0,0.0,0.0,0.0,0.0,0.0,0.0,0.0,0.0,0.0,0.0,0.0,0.0,0.0,0.0,0.0,0.0,0.0,0.0,0.0,0.0,0.0,0.0,0.0,0.0,0.0,0.0,0.0,0.0,0.0,0.0,0.0,0.0,0.0,0.0,0.0,0.0,0.0,0.0,0.0,0.0,0.0,0.0,0.0,0.0,0.0,0.0,0.0,0.0,0.0,0.0,0.0,0.0,0.0,0.0,0.0,0.0,0.0,0.0,0.0,0.0,0.0,0.0,0.0,0.0,0.0,0.0,0.0,0.0,0.0,0.0,0.0,0.0,0.0,0.0,0.0,0.0,0.0,0.0,0.0,0.0,0.0,0.0,0.0,0.0,0.0,0.0,0.0,0.0,0.0,0.0,0.0,0.0,0.0,0.0,0.0,0.0,0.0,0.0,0.0,0.0,0.0,0.0,0.0,0.0,0.0,0.0,0.0,0.0,0.0,0.0,0.0,0.0,0.0,0.0,0.0,0.0,0.0,0.0,0.0,0.0,0.0,0.0,0.0,0.0,0.0,0.0,0.0,0.0,0.0,0.0,0.0,0.0,0.0,0.0,0.0,0.0,0.0,0.0,0.0,0.0,0.0,0.0,0.0,0.0,0.0,0.0,0.0,0.0,0.0,0.0,0.0,0.0,0.0,0.0,0.0,0.0,0.0,0.0,0.0,0.0,0.0,0.0,0.0,0.0,0.0,0.0,0.0,0.0,0.0,0.0,0.0,0.0,0.0,0.0,0.0,0.0,0.0,0.0,0.0,0.0,0.0,0.0,0.0,0.0,0.0,0.0,0.0,0.0,0.0,0.0,0.0,0.0,0.0,0.0,0.0,0.0,0.0,0.0,0.0,0.0,0.0,0.0,0.0,0.0,0.0,0.0,0.0,0.0,0.0,0.0,0.0,0.0,0.0,0.0,0.0,0.0,0.0,0.0,0.0,0.0,0.0,0.0,0.0,0.0,0.0,0.0,0.0,0.0,0.0,0.0,0.0,0.0,0.0,0.0,0.0,0.0,0.0,0.0,0.0,0.0,0.0,0.0,0.0,0.0,0.0,0.0,0.0,0.0,0.0,0.0,0.0,0.0,0.0,0.0,0.0,0.0,0.0,0.0,0.0,0.0,0.0,0.0,0.0,0.0,0.0,0.0,0.0,0.0,0.0,0.0,0.0,0.0,0.0,0.0,0.0,0.0,0.0,0.0,0.0,0.0,0.0,0.0,0.0,0.0,0.0,0.0,0.0,0.0,0.0,0.0,0.0,0.0,0.0,0.0,0.0,0.0,0.0,0.0,0.0,0.0,0.0,0.0,0.0,0.0,0.0,0.0,0.0,0.0,0.0,0.0,0.0,0.0,0.0,0.0,0.0,0.0,0.0,0.0,0.0,0.0,0.0,0.0,0.0,0.0,0.0,0.0,0.0,0.0,0.0,0.0,0.0,0.0,0.0,0.0,0.0,0.0,0.0,0.0,0.0,0.0,0.0,0.0,0.0,0.0,0.0,0.0,0.0,0.0,0.0,0.0,0.0,0.0,0.0,0.0,0.0,0.0,0.0,0.0,0.0,0.0,0.0,0.0,0.0,0.0,0.0,0.0,0.0,0.0,0.0,0.0,0.0,0.0,0.0,0.0,0.0,0.0,0.0,0.0,0.0,0.0,0.0,0.0,0.0,0.0,0.0,0.0,0.0,0.0,0.0,0.0,0.0,0.0,0.0,0.0,0.0,0.0,0.0,0.0,0.0,0.0,0.0,0.0,0.0,0.0,0.0,0.0,0.0,0.0,0.0,0.0,0.0,0.0,0.0,0.0,0.0,0.0,0.0,0.0,0.0,0.0,0.0,0.0,0.0,0.0,0.0,0.0,0.0,0.0,0.0,0.0,0.0,0.0,0.0,0.0,0.0,0.0,0.0,0.0,0.0,0.0,0.0,0.0,0.0,0.0,0.0,0.0,0.0,0.0,0.0,0.0,0.0,0.0,0.0,0.0,0.0,0.0,0.0,0.0,0.0,0.0,0.0,0.0,0.0,0.0,0.0,0.0,0.0,0.0,0.0,0.0,0.0,0.0,0.0,0.0,0.0,0.0,0.0,0.0,0.0,0.0,0.0,0.0,0.0,0.0,0.0,0.0,0.0,0.0,0.0,0.0,0.0,0.0,0.0,0.0,0.0,0.0,0.0,0.0,0.0,0.0,0.0,0.0,0.0,0.0,0.0,0.0,0.0,0.0,0.0,0.0,0.0,0.0,0.0,0.0,0.0,0.0,0.0,0.0,0.0,0.0,0.0,0.0,0.0,0.0,0.0,0.0,0.0,0.0,0.0,0.0,0.0,0.0,0.0,0.0,0.0,0.0,0.0,0.0,0.0,0.0,0.0,0.0,0.0,0.0,0.0,0.0,0.0,0.0,0.0,0.0,0.0,0.0,0.0,0.0,0.0,0.0,0.0,0.0,0.0,0.0,0.0,0.0,0.0,0.0,0.0,0.0,0.0,0.0,0.0,0.0,0.0,0.0,0.0,0.0,0.0,0.0,0.0,0.0,0.0,0.0,0.0,0.0,0.0,0.0,0.0,0.0,0.0,0.0,0.0,0.0,0.0,0.0,0.0,0.0,0.0,0.0,0.0,0.0,0.0,0.0,0.0,0.0,0.0,0.0,0.0,0.0,0.0,0.0,0.0,0.0,0.0,0.0,0.0,0.0,0.0,0.0,0.0,0.0,0.0,0.0,0.0,0.0,0.0,0.0,0.0,0.0,0.0,0.0,0.0,0.0,0.0,0.0,0.0,0.0,0.0,0.0,0.0,0.0,0.0,0.0,0.0,0.0,0.0,0.0,0.0,0.0,0.0,0.0,0.0,0.0,0.0,0.0,0.0,0.0,0.0,0.0,0.0,0.0,0.0,0.0,0.0,0.0,0.0,0.0,0.0,0.0,0.0,0.0,0.0,0.0,0.0,0.0,0.0,0.0,0.0,0.0,0.0,0.0,0.0,0.0,0.0,0.0,0.0,0.0,0.0,0.0,0.0,0.0,0.0,0.0,0.0,0.0,0.0,0.0,0.0,0.0,4.6368,0.0,0.0,0.0,0.0,0.0,0.0,0.0,0.0,0.0,0.0,0.0,0.0,0.0,0.0,0.0,0.0,0.0,0.0,0.0,0.0,0.0,0.0,0.0,0.0,0.0,0.0,0.0,0.0,0.0,0.0,0.0,0.0,0.0,0.0,0.0,0.0,0.0,0.0,0.0,0.0,0.0,0.0,0.0,0.0,0.0,0.0,0.0,0.0,0.0,0.0,0.0,0.0,0.0,0.0,0.0,0.0,0.0,0.0,0.0,0.0,0.0,0.0,0.0,0.0,0.0,0.0,0.0,0.0,0.0,0.0,0.0,0.0,0.0,0.0,0.0,0.0,0.0,0.0,0.0,0.0,0.0,0.0,0.0,0.0,0.0,0.0,0.0,0.0,0.0,0.0,0.0,0.0,0.0,0.0,0.0,0.0,0.0,0.0,0.0,0.0,0.0,0.0,0.0,0.0,0.0,0.0,0.0,0.0,0.0,0.0,4.8879,4.8886,4.8551,4.7776,4.655,0.0,0.0,0.0,0.0,0.0,0.0,0.0,0.0,0.0,0.0,0.0,0.0,0.0,0.0,0.0,0.0,0.0,0.0,0.0,0.0,0.0,0.0,0.0,0.0,0.0,0.0,0.0,0.0,0.0,0.0,0.0,0.0,0.0,0.0,0.0,0.0,0.0,0.0,0.0,0.0,0.0,0.0,0.0,0.0,0.0,0.0,0.0,0.0,0.0,0.0,0.0,0.0,0.0,0.0,0.0,0.0,0.0,0.0,0.0,0.0,0.0,0.0,0.0,0.0,0.0,0.0,0.0,0.0,0.0,0.0,0.0,0.0,0.0,0.0,0.0,0.0,0.0,0.0,0.0,0.0,0.0,0.0,0.0,0.0,0.0,0.0,0.0,0.0,0.0,0.0,0.0,0.0,0.0,0.0,0.0,0.0,0.0,0.0,0.0,0.0,0.0,0.0,0.0,0.0,0.0,0.0,0.0,0.0,0.0,0.0,0.0,0.0,4.9183,4.8333,4.6554,0.0,0.0,0.0,0.0,0.0,0.0,0.0,0.0,0.0,0.0,0.0,0.0,0.0,0.0,0.0,0.0,0.0,0.0,0.0,0.0,0.0,0.0,0.0,0.0,0.0,0.0,0.0,0.0,0.0,0.0,0.0,0.0,0.0,0.0,0.0,0.0,0.0,0.0,0.0,0.0,0.0,0.0,0.0,0.0,0.0,0.0,0.0,0.0,0.0,0.0,0.0,0.0,0.0,0.0,0.0,0.0,0.0,0.0,0.0,0.0,0.0,0.0,0.0,0.0,0.0,0.0,0.0,0.0,0.0,0.0,0.0,0.0,0.0,0.0,0.0,0.0,0.0,0.0,0.0,0.0,0.0,0.0,0.0,0.0,0.0,0.0,0.0,0.0,0.0,0.0,0.0,0.0,0.0,0.0,0.0,0.0,0.0,0.0,0.0,0.0,0.0,0.0,0.0,0.0,0.0,0.0,0.0,0.0,0.0,0.0,4.9991,4.9996,5.0005,0.0,4.6628,0.0,0.0,0.0,0.0,0.0,0.0,0.0,0.0,0.0,0.0,0.0,0.0,0.0,0.0,0.0,0.0,0.0,0.0,0.0,0.0,0.0,0.0,0.0,0.0,0.0,0.0,0.0,0.0,0.0,0.0,0.0,0.0,0.0,0.0,0.0,0.0,0.0,0.0,0.0,0.0,0.0,0.0,0.0,0.0,0.0,0.0,0.0,0.0,0.0,0.0,0.0,0.0,0.0,0.0,0.0,0.0,0.0,0.0,0.0,0.0,0.0,0.0,0.0,0.0,0.0,0.0,0.0,0.0,0.0,0.0,0.0,0.0,0.0,0.0,0.0,0.0,0.0,0.0,0.0,0.0,0.0,0.0,0.0,0.0,0.0,0.0,0.0,0.0,0.0,0.0,0.0,0.0,0.0,0.0,0.0,0.0,0.0,0.0,0.0,0.0,0.0,0.0,0.0,0.0,0.0,0.0,0.0,0.0,0.0,0.0,5.054,5.0112,4.8737,4.752,0.0,0.0,0.0,0.0,0.0,0.0,0.0,0.0,0.0,0.0,0.0,0.0,0.0,0.0,0.0,0.0,0.0,0.0,0.0,0.0,0.0,0.0,0.0,0.0,0.0,0.0,0.0,0.0,0.0,0.0,0.0,0.0,0.0,0.0,0.0,0.0,0.0,0.0,0.0,0.0,0.0,0.0,0.0,0.0,0.0,0.0,0.0,0.0,0.0,0.0,0.0,0.0,0.0,0.0,0.0,0.0,0.0,0.0,0.0,0.0,0.0,0.0,0.0,0.0,0.0,0.0,0.0,0.0,0.0,0.0,0.0,0.0,0.0,0.0,0.0,0.0,0.0,0.0,0.0,0.0,0.0,0.0,0.0,0.0,0.0,0.0,0.0,0.0,0.0,0.0,0.0,0.0,0.0,0.0,0.0,0.0,0.0,0.0,0.0,0.0,0.0,0.0,0.0,0.0,0.0,0.0,0.0,0.0,0.0,0.0,5.0592,0.0,4.9736,4.7627,4.629,4.5807,0.0,0.0,0.0,0.0,0.0,0.0,0.0,0.0,0.0,0.0,0.0,0.0,0.0,0.0,0.0,0.0,0.0,0.0,0.0,0.0,0.0,0.0,0.0,0.0,0.0,0.0,0.0,0.0,0.0,0.0,0.0,0.0,0.0,0.0,0.0,0.0,0.0,0.0,0.0,0.0,0.0,0.0,0.0,0.0,0.0,0.0,0.0,0.0,0.0,0.0,0.0,0.0,0.0,0.0,0.0,0.0,0.0,0.0,0.0,0.0,0.0,0.0,0.0,0.0,0.0,0.0,0.0,0.0,0.0,0.0,0.0,0.0,0.0,0.0,0.0,0.0,0.0,0.0,0.0,0.0,0.0,0.0,0.0,0.0,0.0,0.0,0.0,0.0,0.0,0.0,0.0,0.0,0.0,0.0,0.0,0.0,0.0,0.0,0.0,0.0,0.0,0.0,0.0,0.0,0.0,0.0,0.0,0.0,0.0,5.0063,4.9769,4.8956,4.7367,4.5732,0.0,0.0,0.0,0.0,0.0,0.0,0.0,0.0,0.0,0.0,0.0,0.0,0.0,0.0,0.0,0.0,0.0,0.0,0.0,0.0,0.0,0.0,0.0,0.0,0.0,0.0,0.0,0.0,0.0,0.0,0.0,0.0,0.0,0.0,0.0,0.0,0.0,0.0,0.0,0.0,0.0,0.0,0.0,0.0,0.0,0.0,0.0,0.0,0.0,0.0,0.0,0.0,0.0,0.0,0.0,0.0,0.0,0.0,0.0,0.0,0.0,0.0,0.0,0.0,0.0,0.0,0.0,0.0,0.0,0.0,0.0,0.0,0.0,0.0,0.0,0.0,0.0,0.0,0.0,0.0,0.0,0.0,0.0,0.0,0.0,0.0,0.0,0.0,0.0,0.0,0.0,0.0,0.0,0.0,0.0,0.0,0.0,0.0,0.0,0.0,0.0,0.0,0.0,0.0,0.0,0.0,0.0,0.0,0.0,4.8545,4.8543,4.844,4.8073,4.655,4.5183,0.0,0.0,0.0,0.0,0.0,0.0,0.0,0.0,0.0,0.0,0.0,0.0,0.0,0.0,0.0,0.0,0.0,0.0,0.0,0.0,0.0,0.0,0.0,0.0,0.0,0.0,0.0,0.0,0.0,0.0,0.0,0.0,0.0,0.0,0.0,0.0,0.0,0.0,0.0,0.0,0.0,0.0,0.0,0.0,0.0,0.0,0.0,0.0,0.0,0.0,0.0,0.0,0.0,0.0,0.0,0.0,0.0,0.0,0.0,0.0,0.0,0.0,0.0,0.0,0.0,0.0,0.0,0.0,0.0,0.0,0.0,0.0,0.0,0.0,0.0,0.0,0.0,0.0,0.0,0.0,0.0,0.0,0.0,0.0,0.0,0.0,0.0,0.0,0.0,0.0,0.0,0.0,0.0,0.0,0.0,0.0,0.0,0.0,0.0,0.0,0.0,0.0,0.0,0.0,0.0,0.0,0.0,0.0,0.0,4.8477,0.0,4.8366,0.0,4.681,4.5439,0.0,0.0,0.0,0.0,0.0,0.0,0.0,0.0,0.0,0.0,0.0,0.0,0.0,0.0,0.0,0.0,0.0,0.0,0.0,0.0,0.0,0.0,0.0,0.0,0.0,0.0,0.0,0.0,0.0,0.0,0.0,0.0,0.0,0.0,0.0,0.0,0.0,0.0,0.0,0.0,0.0,0.0,0.0,0.0,0.0,0.0,0.0,0.0,0.0,0.0,0.0,0.0,0.0,0.0,0.0,0.0,0.0,0.0,0.0,0.0,0.0,0.0,0.0,0.0,0.0,0.0,0.0,0.0,0.0,0.0,0.0,0.0,0.0,0.0,0.0,0.0,0.0,0.0,0.0,0.0,0.0,0.0,0.0,0.0,0.0,0.0,0.0,0.0,0.0,0.0,0.0,0.0,0.0,0.0,0.0,0.0,0.0,0.0,0.0,0.0,0.0,0.0,0.0,0.0,0.0,0.0,0.0,0.0,4.9262,4.9996,5.0,4.9592,4.8923,4.8069,4.6513,0.0,0.0,0.0,0.0,0.0,0.0,0.0,0.0,0.0,0.0,0.0,0.0,0.0,0.0,0.0,0.0,0.0,0.0,0.0,0.0,0.0,0.0,0.0,0.0,0.0,0.0,0.0,0.0,0.0,0.0,0.0,0.0,0.0,0.0,0.0,0.0,0.0,0.0,0.0,0.0,0.0,0.0,0.0,0.0,0.0,0.0,0.0,0.0,0.0,0.0,0.0,0.0,0.0,0.0,0.0,0.0,0.0,0.0,0.0,0.0,0.0,0.0,0.0,0.0,0.0,0.0,0.0,0.0,0.0,0.0,0.0,0.0,0.0,0.0,0.0,0.0,0.0,0.0,0.0,0.0,0.0,0.0,0.0,0.0,0.0,0.0,0.0,0.0,0.0,0.0,0.0,0.0,0.0,0.0,0.0,0.0,0.0,0.0,0.0,0.0,0.0,0.0,0.0,0.0,0.0,0.0,0.0,0.0,0.0,4.8477,4.8997,4.9146,4.8886,4.811,4.6814,0.0,0.0,0.0,0.0,0.0,0.0,0.0,0.0,0.0,0.0,0.0,0.0,0.0,0.0,0.0,0.0,0.0,0.0,0.0,0.0,0.0,0.0,0.0,0.0,0.0,0.0,0.0,0.0,0.0,0.0,0.0,0.0,0.0,0.0,0.0,0.0,0.0,0.0,0.0,0.0,0.0,0.0,0.0,0.0,0.0,0.0,0.0,0.0,0.0,0.0,0.0,0.0,0.0,0.0,0.0,0.0,0.0,0.0,0.0,0.0,0.0,0.0,0.0,0.0,0.0,0.0,0.0,0.0,0.0,0.0,0.0,0.0,0.0,0.0,0.0,0.0,0.0,0.0,0.0,0.0,0.0,0.0,0.0,0.0,0.0,0.0,0.0,0.0,0.0,0.0,0.0,0.0,0.0,0.0,0.0,0.0,0.0,0.0,0.0,0.0,0.0,0.0,0.0,0.0,0.0,0.0,0.0,0.0,0.0,5.0859,5.1416,5.1639,5.163,5.026,4.8779,4.7148,0.0,0.0,0.0,0.0,0.0,0.0,0.0,0.0,0.0,0.0,0.0,0.0,0.0,0.0,0.0,0.0,0.0,0.0,0.0,0.0,0.0,0.0,0.0,0.0,0.0,0.0,0.0,0.0,0.0,0.0,0.0,0.0,0.0,0.0,0.0,0.0,0.0,0.0,0.0,0.0,0.0,0.0,0.0,0.0,0.0,0.0,0.0,0.0,0.0,0.0,0.0,0.0,0.0,0.0,0.0,0.0,0.0,0.0,0.0,0.0,0.0,0.0,0.0,0.0,0.0,0.0,0.0,0.0,0.0,0.0,0.0,0.0,0.0,0.0,0.0,0.0,0.0,0.0,0.0,0.0,0.0,0.0,0.0,0.0,0.0,0.0,0.0,0.0,0.0,0.0,0.0,0.0,0.0,0.0,0.0,0.0,0.0,0.0,0.0,0.0,0.0,0.0,0.0,0.0,0.0,0.0,0.0,0.0,5.6506,5.6798,5.6761,5.6432,5.4124,5.2048,0.0,0.0,0.0,0.0,0.0,0.0,0.0,0.0,0.0,0.0,0.0,0.0,0.0,0.0,0.0,0.0,0.0,0.0,0.0,0.0,0.0,0.0,0.0,0.0,0.0,0.0,0.0,0.0,0.0,0.0,0.0,0.0,0.0,0.0,0.0,0.0,0.0,0.0,0.0,0.0,0.0,0.0,0.0,0.0,0.0,0.0,0.0,0.0,0.0,0.0,0.0,0.0,0.0,0.0,0.0,0.0,0.0,0.0,0.0,0.0,0.0,0.0,0.0,0.0,0.0,0.0,0.0,0.0,0.0,0.0,0.0,0.0,0.0,0.0,0.0,0.0,0.0,0.0,0.0,0.0,0.0,0.0,0.0,0.0,0.0,0.0,0.0,0.0,0.0,0.0,0.0,0.0,0.0,0.0,0.0,0.0,0.0,0.0,0.0,0.0,0.0,0.0,0.0,0.0,0.0,0.0,0.0,0.0,0.0,5.9844,6.2853,6.2662,5.9101,5.717,5.4867,0.0,0.0,0.0,0.0,0.0,0.0,0.0,0.0,0.0,0.0,0.0,0.0,0.0,0.0,0.0,0.0,0.0,0.0,0.0,0.0,0.0,0.0,0.0,0.0,0.0,0.0,0.0,0.0,0.0,0.0,0.0,0.0,0.0,0.0,0.0,0.0,0.0,0.0,0.0,0.0,0.0,0.0,0.0,0.0,0.0,0.0,0.0,0.0,0.0,0.0,0.0,0.0,0.0,0.0,0.0,0.0,0.0,0.0,0.0,0.0,0.0,0.0,0.0,0.0,0.0,0.0,0.0,0.0,0.0,0.0,0.0,0.0,0.0,0.0,0.0,0.0,0.0,0.0,0.0,0.0,0.0,0.0,0.0,0.0,0.0,0.0,0.0,0.0,0.0,0.0,0.0,0.0,0.0,0.0,0.0,0.0,0.0,0.0,0.0,0.0,0.0,0.0,0.0,0.0,0.0,0.0,0.0,0.0,5.8549,6.2147,6.6525,6.7119,6.359,6.0624,5.7504,0.0,0.0,0.0,0.0,0.0,0.0,0.0,0.0,0.0,0.0,0.0,0.0,0.0,0.0,0.0,0.0,0.0,0.0,0.0,0.0,0.0,0.0,0.0,0.0,0.0,0.0,0.0,0.0,0.0,0.0,0.0,0.0,0.0,0.0,0.0,0.0,0.0,0.0,0.0,0.0,0.0,0.0,0.0,0.0,0.0,0.0,0.0,0.0,0.0,0.0,0.0,0.0,0.0,0.0,0.0,0.0,0.0,0.0,0.0,0.0,0.0,0.0,0.0,0.0,0.0,0.0,0.0,0.0,0.0,0.0,0.0,0.0,0.0,0.0,0.0,0.0,0.0,0.0,0.0,0.0,0.0,0.0,0.0,0.0,0.0,0.0,0.0,0.0,0.0,0.0,0.0,0.0,0.0,0.0,0.0,0.0,0.0,0.0,0.0,0.0,0.0,0.0,0.0,0.0,0.0,0.0,0.0,0.0,5.9956,6.3925,6.8679,7.0351,6.8568,6.4036,5.9993,0.0,0.0,0.0,0.0,0.0,0.0,0.0,0.0,0.0,0.0,0.0,0.0,0.0,0.0,0.0,0.0,0.0,0.0,0.0,0.0,0.0,0.0,0.0,0.0,0.0,0.0,0.0,0.0,0.0,0.0,0.0,0.0,0.0,0.0,0.0,0.0,0.0,0.0,0.0,0.0,0.0,0.0,0.0,0.0,0.0,0.0,0.0,0.0,0.0,0.0,0.0,0.0,0.0,0.0,0.0,0.0,0.0,0.0,0.0,0.0,0.0,0.0,0.0,0.0,0.0,0.0,0.0,0.0,0.0,0.0,0.0,0.0,0.0,0.0,0.0,0.0,0.0,0.0,0.0,0.0,0.0,0.0,0.0,0.0,0.0,0.0,0.0,0.0,0.0,0.0,0.0,0.0,0.0,0.0,0.0,0.0,0.0,0.0,0.0,0.0,0.0,0.0,0.0,0.0,0.0,0.0,0.0,0.0,6.3039,6.6488,7.066,7.1775,6.9496,6.5931,6.2179,0.0,0.0,0.0,0.0,0.0,0.0,0.0,0.0,0.0,0.0,0.0,0.0,0.0,0.0,0.0,0.0,0.0,0.0,0.0,0.0,0.0,0.0,0.0,0.0,0.0,0.0,0.0,0.0,0.0,0.0,0.0,0.0,0.0,0.0,0.0,0.0,0.0,0.0,0.0,0.0,0.0,0.0,0.0,0.0,0.0,0.0,0.0,0.0,4.6072,0.0,0.0,0.0,0.0,0.0,0.0,0.0,0.0,0.0,0.0,0.0,0.0,0.0,0.0,0.0,0.0,0.0,0.0,0.0,0.0,0.0,0.0,0.0,0.0,0.0,0.0,0.0,0.0,0.0,0.0,0.0,0.0,0.0,0.0,0.0,0.0,0.0,0.0,0.0,0.0,0.0,0.0,0.0,0.0,0.0,0.0,0.0,0.0,0.0,0.0,0.0,0.0,0.0,0.0,0.0,0.0,0.0,0.0,0.0,6.5342,6.7862,7.1856,7.2977,7.0883,6.8048,6.4259,0.0,0.0,0.0,0.0,0.0,0.0,0.0,0.0,0.0,0.0,0.0,0.0,0.0,0.0,0.0,0.0,0.0,0.0,0.0,0.0,0.0,0.0,0.0,0.0,0.0,0.0,0.0,0.0,0.0,0.0,0.0,0.0,0.0,0.0,0.0,0.0,0.0,0.0,0.0,0.0,0.0,0.0,0.0,0.0,0.0,0.0,0.0,0.0,0.0,0.0,0.0,0.0,0.0,0.0,0.0,0.0,0.0,0.0,0.0,0.0,0.0,0.0,0.0,0.0,0.0,0.0,0.0,0.0,0.0,0.0,0.0,0.0,0.0,0.0,0.0,0.0,0.0,0.0,0.0,0.0,0.0,0.0,0.0,0.0,0.0,0.0,0.0,0.0,0.0,0.0,0.0,0.0,0.0,0.0,0.0,0.0,0.0,0.0,0.0,0.0,0.0,0.0,0.0,0.0,0.0,0.0,0.0,6.3559,6.7274,6.8902,7.2629,7.3757,7.2011,6.9614,6.5745,6.0327,0.0,0.0,0.0,0.0,0.0,0.0,0.0,0.0,0.0,0.0,0.0,0.0,0.0,0.0,0.0,0.0,0.0,0.0,0.0,0.0,0.0,0.0,0.0,0.0,0.0,0.0,0.0,0.0,0.0,0.0,0.0,0.0,0.0,0.0,0.0,0.0,0.0,0.0,4.7658,4.8979,0.0,0.0,0.0,0.0,0.0,0.0,0.0,0.0,4.7819,0.0,0.0,0.0,0.0,0.0,0.0,0.0,0.0,0.0,0.0,0.0,0.0,0.0,0.0,0.0,0.0,0.0,0.0,0.0,0.0,0.0,0.0,0.0,0.0,0.0,0.0,0.0,0.0,0.0,0.0,0.0,0.0,0.0,0.0,0.0,0.0,0.0,0.0,0.0,0.0,0.0,0.0,0.0,0.0,0.0,0.0,0.0,0.0,0.0,0.0,0.0,0.0,0.0,0.0,0.0,0.0,5.9473,6.5188,6.8902,7.0493,7.3187,7.349,7.1168,6.8753,6.5448,6.1144,0.0,0.0,0.0,0.0,0.0,0.0,0.0,0.0,0.0,0.0,0.0,0.0,0.0,0.0,0.0,0.0,0.0,0.0,0.0,0.0,0.0,0.0,0.0,0.0,0.0,0.0,0.0,0.0,0.0,0.0,0.0,0.0,0.0,0.0,0.0,0.0,0.0,0.0,0.0,4.9718,4.945,0.0,0.0,0.0,0.0,0.0,0.0,0.0,0.0,4.7567,0.0,0.0,0.0,0.0,0.0,0.0,0.0,0.0,0.0,0.0,0.0,0.0,0.0,0.0,0.0,0.0,0.0,0.0,0.0,0.0,0.0,0.0,0.0,0.0,0.0,0.0,0.0,0.0,0.0,0.0,0.0,0.0,0.0,0.0,0.0,0.0,0.0,0.0,0.0,0.0,0.0,0.0,0.0,0.0,0.0,0.0,0.0,0.0,0.0,0.0,0.0,0.0,0.0,0.0,0.0,6.0591,6.7441,7.1218,7.1663,7.4419,7.4301,7.1013,6.8562,6.5188,0.0,0.0,0.0,0.0,0.0,0.0,0.0,0.0,0.0,0.0,0.0,0.0,0.0,0.0,0.0,0.0,0.0,0.0,0.0,0.0,0.0,0.0,0.0,0.0,0.0,0.0,0.0,0.0,0.0,0.0,0.0,0.0,0.0,0.0,0.0,0.0,0.0,0.0,0.0,0.0,5.1605,5.1959,4.9452,0.0,0.0,0.0,0.0,0.0,0.0,4.9889,4.8888,0.0,0.0,0.0,0.0,0.0,0.0,0.0,0.0,0.0,0.0,0.0,0.0,0.0,0.0,0.0,0.0,0.0,0.0,0.0,0.0,0.0,0.0,0.0,0.0,0.0,0.0,0.0,0.0,0.0,0.0,0.0,0.0,0.0,0.0,0.0,0.0,0.0,0.0,0.0,0.0,0.0,0.0,0.0,0.0,0.0,0.0,0.0,0.0,0.0,0.0,0.0,0.0,0.0,0.0,0.0,6.2119,6.9688,7.3385,7.3051,7.5652,7.5199,7.1286,6.8648,6.4965,0.0,0.0,0.0,0.0,0.0,0.0,0.0,0.0,0.0,0.0,0.0,0.0,0.0,0.0,0.0,0.0,0.0,0.0,0.0,0.0,0.0,0.0,0.0,0.0,0.0,0.0,0.0,0.0,0.0,0.0,0.0,0.0,0.0,0.0,0.0,0.0,0.0,0.0,0.0,0.0,0.0,5.4286,5.1116,5.0999,0.0,0.0,0.0,0.0,5.1306,5.1426,0.0,0.0,0.0,0.0,0.0,0.0,0.0,0.0,0.0,0.0,0.0,0.0,0.0,0.0,0.0,0.0,0.0,0.0,0.0,0.0,0.0,0.0,0.0,0.0,0.0,0.0,0.0,0.0,0.0,0.0,0.0,0.0,0.0,0.0,0.0,0.0,0.0,0.0,0.0,0.0,0.0,0.0,0.0,0.0,0.0,0.0,0.0,0.0,0.0,0.0,0.0,0.0,0.0,0.0,0.0,0.0,6.5332,7.1353,7.4754,7.5385,7.6507,7.5503,7.2122,6.8989,6.4965,0.0,0.0,0.0,0.0,0.0,0.0,0.0,0.0,0.0,0.0,0.0,0.0,0.0,0.0,0.0,0.0,0.0,0.0,0.0,0.0,0.0,0.0,0.0,0.0,0.0,0.0,0.0,0.0,0.0,0.0,0.0,0.0,0.0,0.0,0.0,0.0,0.0,0.0,0.0,0.0,0.0,5.448,5.3954,5.3335,5.2884,0.0,0.0,5.3733,5.3031,5.3513,0.0,0.0,0.0,0.0,0.0,0.0,0.0,0.0,0.0,0.0,0.0,0.0,0.0,0.0,0.0,0.0,0.0,0.0,0.0,0.0,0.0,0.0,0.0,0.0,0.0,0.0,0.0,0.0,0.0,0.0,0.0,0.0,0.0,0.0,0.0,0.0,0.0,0.0,0.0,0.0,0.0,0.0,0.0,0.0,0.0,0.0,0.0,0.0,0.0,0.0,0.0,0.0,0.0,0.0,0.0,6.0208,6.5035,7.1625,7.5245,7.5609,7.6838,7.5727,7.2011,6.9197,6.5007,0.0,0.0,0.0,0.0,0.0,0.0,0.0,0.0,0.0,0.0,0.0,0.0,0.0,0.0,0.0,0.0,0.0,0.0,0.0,0.0,0.0,0.0,0.0,0.0,0.0,0.0,0.0,0.0,0.0,0.0,0.0,0.0,0.0,0.0,0.0,0.0,0.0,0.0,0.0,0.0,0.0,0.0,5.5268,5.524,0.0,0.0,0.0,5.5789,5.5899,0.0,0.0,0.0,0.0,0.0,0.0,0.0,0.0,0.0,0.0,0.0,0.0,0.0,0.0,0.0,0.0,0.0,0.0,0.0,0.0,0.0,0.0,0.0,0.0,0.0,0.0,0.0,0.0,0.0,0.0,0.0,0.0,0.0,0.0,0.0,0.0,0.0,0.0,0.0,0.0,0.0,0.0,0.0,0.0,0.0,0.0,0.0,0.0,0.0,0.0,0.0,0.0,0.0,0.0,0.0,0.0,0.0,6.5149,7.1821,7.5417,7.5823,7.6928,7.5757,7.2136,6.9714,0.0,0.0,0.0,0.0,0.0,0.0,0.0,0.0,0.0,0.0,0.0,0.0,0.0,0.0,0.0,0.0,0.0,0.0,0.0,0.0,0.0,0.0,0.0,0.0,0.0,0.0,0.0,3.7438,0.0,0.0,0.0,0.0,0.0,0.0,0.0,0.0,0.0,0.0,0.0,0.0,0.0,0.0,5.7377,5.6982,5.7565,5.7776,0.0,0.0,5.8143,5.851,5.9123,5.8609,0.0,0.0,0.0,0.0,0.0,0.0,0.0,0.0,0.0,0.0,0.0,0.0,0.0,0.0,0.0,0.0,0.0,0.0,0.0,0.0,0.0,0.0,0.0,0.0,0.0,0.0,0.0,0.0,0.0,0.0,0.0,0.0,0.0,0.0,0.0,0.0,0.0,0.0,0.0,0.0,0.0,0.0,0.0,0.0,0.0,0.0,0.0,0.0,0.0,0.0,0.0,0.0,0.0,0.0,0.0,6.739,7.2326,7.5475,7.681,7.6791,7.558,7.3054,7.0668,6.6489,0.0,0.0,0.0,0.0,0.0,0.0,0.0,0.0,0.0,0.0,0.0,0.0,0.0,0.0,0.0,0.0,0.0,0.0,0.0,0.0,0.0,0.0,0.0,0.0,0.0,0.0,0.0,0.0,0.0,0.0,0.0,0.0,0.0,0.0,0.0,0.0,0.0,0.0,0.0,0.0,0.0,5.9446,5.9997,6.0792,6.1233,0.0,6.1233,6.1049,6.034,6.0303,5.9239,5.6136,0.0,0.0,0.0,0.0,0.0,0.0,0.0,0.0,0.0,0.0,0.0,0.0,0.0,0.0,0.0,0.0,0.0,0.0,0.0,0.0,0.0,0.0,0.0,0.0,0.0,0.0,0.0,0.0,0.0,0.0,0.0,0.0,0.0,0.0,0.0,0.0,0.0,0.0,0.0,0.0,0.0,0.0,0.0,0.0,0.0,0.0,0.0,0.0,0.0,0.0,0.0,0.0,0.0,6.1153,6.7263,7.1869,7.4817,7.6077,7.5816,7.4761,7.288,7.1001,6.7158,0.0,0.0,0.0,0.0,0.0,0.0,0.0,0.0,0.0,0.0,0.0,0.0,0.0,0.0,0.0,0.0,0.0,0.0,0.0,0.0,0.0,0.0,0.0,0.0,0.0,0.0,0.0,0.0,4.1349,4.2004,4.3037,0.0,0.0,0.0,0.0,0.0,0.0,0.0,0.0,0.0,0.0,6.0651,6.2414,6.3392,0.0,0.0,6.4316,6.4347,6.3527,6.2536,6.0964,5.8248,5.4473,0.0,0.0,0.0,0.0,0.0,0.0,0.0,0.0,0.0,0.0,0.0,0.0,0.0,0.0,0.0,0.0,0.0,0.0,0.0,0.0,0.0,0.0,0.0,0.0,0.0,0.0,0.0,0.0,0.0,0.0,0.0,0.0,0.0,0.0,0.0,0.0,0.0,0.0,0.0,0.0,0.0,0.0,0.0,0.0,0.0,0.0,0.0,0.0,0.0,0.0,0.0,0.0,6.1068,6.6852,7.1673,7.4539,7.5236,7.513,7.4296,7.276,7.1171,6.7762,0.0,0.0,0.0,0.0,0.0,0.0,0.0,0.0,0.0,0.0,0.0,0.0,0.0,0.0,0.0,0.0,0.0,0.0,0.0,0.0,0.0,0.0,0.0,0.0,0.0,0.0,0.0,0.0,4.3037,4.3203,4.3546,0.0,0.0,0.0,0.0,0.0,0.0,0.0,0.0,0.0,0.0,6.1557,6.3809,6.5191,6.6029,6.6035,6.6476,6.6512,6.5478,6.3894,6.1985,5.9594,0.0,0.0,0.0,0.0,0.0,0.0,0.0,0.0,0.0,0.0,0.0,0.0,0.0,0.0,0.0,0.0,0.0,0.0,0.0,0.0,0.0,0.0,0.0,0.0,0.0,0.0,0.0,4.7145,0.0,0.0,4.4916,0.0,0.0,0.0,0.0,0.0,0.0,0.0,0.0,0.0,0.0,0.0,0.0,0.0,0.0,0.0,0.0,0.0,0.0,0.0,0.0,0.0,0.0,6.123,6.6385,7.2025,7.4817,7.4567,7.4884,7.4336,7.2836,7.1246,6.8371,6.4045,0.0,0.0,0.0,0.0,0.0,0.0,0.0,0.0,0.0,0.0,0.0,0.0,0.0,0.0,0.0,0.0,0.0,0.0,0.0,0.0,0.0,0.0,0.0,0.0,0.0,0.0,4.3905,4.4391,4.4296,0.0,0.0,0.0,0.0,0.0,0.0,0.0,0.0,0.0,0.0,5.903,6.2193,6.3919,6.6122,6.762,6.7657,6.7664,6.7143,6.5588,6.3857,6.1985,0.0,0.0,0.0,0.0,0.0,0.0,0.0,0.0,0.0,0.0,0.0,0.0,0.0,0.0,0.0,0.0,0.0,0.0,0.0,0.0,0.0,0.0,0.0,0.0,0.0,0.0,0.0,5.0062,4.9704,0.0,0.0,0.0,0.0,0.0,0.0,0.0,0.0,0.0,0.0,0.0,5.6651,5.7171,0.0,0.0,0.0,0.0,0.0,0.0,0.0,0.0,0.0,0.0,0.0,0.0,6.0735,6.5851,7.1372,7.4298,7.4427,7.4308,7.3743,7.2747,7.121,6.7508,6.1433,0.0,0.0,0.0,0.0,0.0,0.0,0.0,0.0,0.0,0.0,0.0,0.0,0.0,0.0,0.0,0.0,0.0,0.0,0.0,0.0,0.0,0.0,0.0,0.0,0.0,4.3023,0.0,0.0,0.0,0.0,0.0,0.0,0.0,0.0,0.0,0.0,0.0,5.3885,5.6791,5.9728,6.2591,6.5308,6.729,6.8678,0.0,0.0,0.0,0.0,0.0,0.0,0.0,0.0,0.0,0.0,0.0,0.0,0.0,0.0,5.8806,5.721,5.6273,5.6061,5.7113,0.0,0.0,0.0,0.0,0.0,0.0,0.0,0.0,0.0,0.0,0.0,0.0,0.0,0.0,5.2718,5.2014,4.995,0.0,0.0,0.0,0.0,0.0,0.0,0.0,0.0,5.8606,6.0185,6.1656,6.2135,6.2509,0.0,6.3572,6.1355,0.0,0.0,0.0,0.0,0.0,0.0,0.0,0.0,6.0953,6.5736,7.1485,7.4399,7.4278,7.4208,7.3809,7.3071,7.088,6.6935,6.109,5.6488,5.2191,0.0,0.0,0.0,0.0,0.0,0.0,0.0,0.0,0.0,0.0,0.0,0.0,0.0,0.0,0.0,0.0,0.0,0.0,0.0,0.0,0.0,0.0,0.0,4.3837,0.0,0.0,0.0,0.0,0.0,0.0,0.0,0.0,0.0,5.0707,5.3478,5.641,5.8874,6.1349,6.387,6.6556,0.0,0.0,0.0,0.0,0.0,0.0,0.0,6.2695,6.3215,6.2382,6.2019,6.3136,6.3866,6.4528,6.5292,0.0,0.0,6.265,6.1245,6.0876,6.189,6.1027,6.0129,6.0129,6.0122,6.0234,0.0,0.0,0.0,0.0,0.0,0.0,0.0,0.0,5.7351,5.5853,0.0,5.2442,0.0,0.0,0.0,0.0,5.2701,5.5116,0.0,0.0,6.3608,6.5575,6.6965,6.7009,6.7438,6.8093,6.7388,6.6421,6.4954,6.0043,0.0,0.0,0.0,0.0,0.0,0.0,6.1734,6.6022,7.229,7.5101,7.4197,7.4619,7.4511,7.3692,7.0335,6.6825,6.3275,5.9607,5.5599,5.1334,4.8715,0.0,0.0,0.0,0.0,0.0,0.0,0.0,0.0,0.0,0.0,0.0,0.0,0.0,0.0,0.0,0.0,0.0,0.0,0.0,0.0,4.5968,0.0,0.0,0.0,0.0,0.0,0.0,0.0,0.0,0.0,0.0,5.3132,5.5751,5.8683,6.1175,0.0,0.0,0.0,0.0,7.0153,7.0183,7.019,6.9889,6.9075,6.7614,6.6579,6.6689,0.0,0.0,6.7215,6.7956,6.8711,6.9323,7.0025,6.98,6.751,6.6858,6.6714,6.6714,6.6025,6.5671,6.5627,6.5301,6.5671,6.3727,0.0,0.0,0.0,0.0,6.0048,6.1064,6.2301,6.1335,6.0388,5.9318,5.7386,0.0,0.0,0.0,0.0,0.0,0.0,6.1471,6.4297,6.6255,6.7679,6.8655,6.9197,6.9552,6.9715,6.9542,6.8764,6.7395,6.4931,6.0898,5.5412,0.0,0.0,0.0,0.0,6.1845,6.6274,7.2076,7.4971,7.4678,7.482,7.4305,7.3037,7.0949,6.8823,6.6714,6.3641,6.0148,5.6209,5.3396,0.0,0.0,0.0,0.0,0.0,0.0,0.0,0.0,0.0,0.0,0.0,0.0,0.0,0.0,0.0,0.0,0.0,0.0,0.0,4.7109,4.7894,4.776,0.0,0.0,0.0,0.0,0.0,0.0,0.0,0.0,0.0,5.8943,6.0056,6.1498,0.0,0.0,6.7584,6.9199,7.0293,7.1167,7.1725,7.1791,0.0,7.0756,6.9743,6.9408,7.0461,7.1821,7.2985,7.3743,7.3922,7.4042,7.4191,7.3985,7.3515,7.2782,7.0842,6.9293,6.8648,6.8322,6.7989,6.7474,6.7735,6.825,6.8688,6.4888,6.3123,6.2901,6.3707,6.4387,6.5469,6.6715,6.5985,6.5288,6.4534,6.2304,6.0708,5.9575,5.825,0.0,0.0,0.0,6.5136,6.7551,6.9371,7.0629,7.1408,7.1939,7.2188,7.2143,7.1888,7.118,7.0093,6.8615,6.5704,6.1223,0.0,0.0,5.7692,6.0184,6.3284,6.7166,7.2265,7.4878,7.488,7.488,7.4201,7.2726,7.1474,7.0128,6.8611,6.6317,6.3479,6.0047,5.7042,5.3837,0.0,0.0,0.0,0.0,0.0,0.0,0.0,0.0,0.0,0.0,0.0,4.2172,4.301,0.0,0.0,0.0,4.604,4.7851,4.9054,5.0475,0.0,0.0,0.0,0.0,0.0,0.0,0.0,5.5696,5.815,6.05,6.2379,6.3413,6.46,6.6178,6.7866,6.9552,7.1214,0.0,7.2525,7.3333,7.3443,7.3259,7.2812,7.2312,7.2372,7.3424,7.4563,7.5608,7.6333,7.6378,7.6292,7.6247,7.5913,7.547,7.5172,7.3261,7.1538,7.0742,7.0307,6.9945,6.9459,6.9756,7.0198,7.2384,7.1704,6.8942,6.8048,6.8513,6.9226,7.0282,7.1413,7.0748,7.0169,6.9512,6.7007,6.5199,6.3951,6.2456,0.0,6.3858,6.6463,6.8717,7.0764,7.2618,7.391,7.464,7.4793,7.4845,7.4787,7.405,7.3382,7.2623,7.1105,6.968,6.8138,6.2518,6.0209,6.1437,6.3361,6.5741,6.865,7.2834,7.4971,7.488,7.4856,7.4143,7.2726,7.1991,7.0922,6.9449,6.8024,6.5952,6.3135,5.9979,5.6905,5.3979,0.0,0.0,0.0,0.0,0.0,0.0,0.0,0.0,0.0,0.0,0.0,0.0,0.0,0.0,0.0,4.8149,0.0,5.1375,5.3521,0.0,0.0,0.0,5.2921,5.4377,5.5793,5.7451,5.952,0.0,0.0,6.4134,6.5933,6.755,6.889,7.0254,7.1747,7.3535,7.3934,7.4258,7.5014,7.5204,7.5241,7.5087,7.4947,7.5075,7.5601,7.5685,7.5878,7.6434,7.6573,7.6537,7.6573,7.6492,7.6311,7.5542,7.481,7.3941,7.316,7.2146,7.145,7.135,7.1414,7.1704,7.4831,7.4675,7.3964,7.2553,7.0854,7.1401,7.2169,7.2947,7.2778,7.2451,7.1905,7.069,6.8928,6.6847,6.5774,6.6034,6.7436,6.901,7.0727,7.2458,7.3727,7.4478,7.4849,7.4892,7.4615,7.405,7.3302,7.2864,7.2623,7.1174,7.0197,6.9759,6.7801,6.6362,6.5607,6.6597,6.831,7.0742,7.4106,7.5511,7.4914,7.435,7.3623,7.2726,7.2519,7.1726,7.0208,6.9818,6.8493,6.6071,6.3041,5.9763,5.6207,5.2026,0.0,0.0,0.0,0.0,0.0,0.0,0.0,0.0,0.0,4.4877,4.6843,0.0,4.7164,0.0,5.0766,5.3099,5.441,5.659,0.0,0.0,5.6664,5.6922,5.7363,5.8689,6.0206,6.1762,6.3072,6.4564,6.6339,6.7078,6.837,7.0806,7.2777,7.449,7.5788,7.6261,7.6481,7.6738,7.77,7.8148,7.6928,7.6523,7.6553,7.7304,7.7159,7.7268,7.7986,7.8122,7.8131,7.8131,7.8122,7.805,7.7833,7.7172,7.6348,7.5487,7.3378,7.1494,7.1523,7.1994,7.2501,7.5676,7.5676,7.5676,7.4833,7.3435,7.3726,7.4119,7.4469,7.4469,7.4395,7.423,7.3459,7.2163,7.0575,7.0027,7.0209,7.1011,7.2149,7.3123,7.4071,7.5075,7.5625,7.5736,7.587,7.535,7.4281,7.3543,7.283,7.2174,7.1646,7.1415,7.145,7.1346,7.1025,7.0522,6.9911,7.0404,7.2026,7.4705,7.5684,7.4949,7.4522,7.3774,7.2761,7.2347,7.1484,6.9956,6.9542,6.8645,6.7024,6.4126,6.1229,5.8392,5.4011,4.9942,0.0,0.0,0.0,0.0,0.0,0.0,0.0,0.0,0.0,0.0,0.0,5.0665,5.1383,5.3843,5.6038,5.7521,6.0004,6.1281,6.0601,6.0895,6.1172,6.1207,6.1934,6.286,6.3998,6.508,6.6062,6.705,6.7751,6.8974,7.1199,7.3099,7.4814,7.6249,7.6921,7.7212,7.7347,7.8335,7.8814,7.7746,7.7113,7.6862,7.7238,7.7148,7.7225,7.8014,7.8159,7.8267,7.8629,7.8702,7.8702,7.8666,7.8058,7.7334,7.6682,7.4826,7.3152,7.2645,7.2927,7.3297,7.5992,7.598,7.598,7.5958,7.5845,7.5845,7.5823,7.5676,7.5676,7.5828,7.5983,7.5294,7.4581,7.3832,7.3697,7.3606,7.3663,7.4491,7.4946,7.5128,7.6177,7.6667,7.6713,7.7042,7.6408,7.4925,7.405,7.2957,7.1681,7.2278,7.2657,7.2864,7.3554,7.4257,7.4787,7.3015,7.2474,7.3278,7.5143,7.5753,7.5052,7.4856,7.4108,7.2761,7.1819,7.0646,6.9197,6.8463,6.7704,6.6817,6.4161,6.1875,6.022,5.6081,5.2348,0.0,4.8024,0.0,0.0,0.0,0.0,0.0,0.0,0.0,0.0,5.3977,5.4314,5.5142,5.7107,5.8978,6.0496,6.3367,6.4807,6.4023,6.4634,6.5048,6.4876,6.4851,6.5161,6.5955,6.662,6.7049,6.732,6.8233,6.9431,7.0903,7.2302,7.3909,7.5665,7.6619,7.7147,7.7219,7.7725,7.8037,7.7879,7.7218,7.6658,7.6706,7.6727,7.6799,7.7796,7.7914,7.8122,7.8847,7.9136,7.91,7.9028,7.8484,7.8014,7.7877,7.6701,7.5426,7.4303,7.4013,7.4303,7.7582,7.7594,7.7548,7.7244,7.669,7.6657,7.6284,7.5709,7.5676,7.5745,7.5725,7.5225,7.4454,7.3513,7.2474,7.2042,7.2064,7.2422,7.3041,7.3878,7.5261,7.6036,7.6272,7.6903,7.6408,7.488,7.3533,7.2761,7.245,7.1957,7.2371,7.3578,7.4315,7.4753,7.4912,0.0,0.0,0.0,7.6177,7.6029,7.5822,7.4636,7.3578,7.2692,7.1346,0.0,6.8404,6.8162,6.7472,6.6137,6.4368,0.0,0.0,0.0,0.0,0.0,0.0,0.0,0.0,0.0,0.0,0.0,5.9573,5.9263,5.7245,5.7038,5.7633,5.8978,6.0047,6.1289,6.2841,6.5669,6.692,6.5679,6.6644,6.7024,6.5861,6.5688,6.5955,6.6679,6.692,6.7394,6.8375,6.8774,6.9529,7.1118,7.2091,7.3204,7.4838,7.6214,7.6977,7.695,7.7085,7.7352,7.7912,7.7194,7.6771,7.7324,7.7416,7.7777,7.8947,7.9318,7.9671,8.0359,8.0649,8.0576,8.0576,8.054,8.0105,7.9571,7.9128,7.815,7.5498,7.4882,7.491,7.8022,7.8022,7.8022,7.7582,0.0,7.6893,7.6454,7.5676,7.5676,7.5676,7.5687,7.5445,7.4891,7.3962,7.2621,7.1796,7.1423,7.1314,7.1727,7.2701,7.4283,7.5296,7.5775,7.6519,7.6061,7.454,7.3538,7.2845,7.2512,7.2583,7.3233,7.435,7.5098,7.5695,7.6051,7.6453,7.6822,7.7201,7.6833,7.6488,7.6063,7.4936,7.3981,7.3244,7.1415,0.0,0.0,0.0,0.0,0.0,0.0,0.0,0.0,0.0,0.0,5.5176,5.5004,5.5176,5.5624,5.7391,5.9426,6.1712,6.3643,6.3894,6.1988,6.1841,6.2333,6.3471,6.423,6.5117,6.6334,6.8128,6.8921,6.8231,6.8473,6.8517,6.8172,6.7793,6.7896,6.8522,6.858,6.8803,6.9392,6.962,7.0054,7.1005,7.1909,7.2823,7.3914,7.5451,7.6541,7.6676,7.67,7.6777,7.7038,7.6819,7.6562,7.6953,7.6958,7.7415,7.8484,7.8702,7.8992,7.9752,8.0214,8.0504,8.054,8.083,8.0975,8.0576,8.0178,7.9526,7.7715,7.7172,7.6738,7.8394,7.8394,7.8394,7.7887,7.7096,7.7096,7.6555,7.5676,7.5676,0.0,0.0,7.5676,7.5202,7.4322,7.3003,7.2011,7.1278,7.0765,7.0976,7.1939,7.3547,7.4673,7.539,7.6165,7.5766,7.4388,7.3847,7.3304,7.2777,7.3587,7.4395,7.5132,7.5891,7.658,7.7166,7.7201,7.7201,7.7201,7.7201,7.6891,7.6304,7.5511,7.4753,7.4016,7.1784,6.9921,6.8576,6.7817,6.7058,6.6309,6.5644,6.4979,6.4195,6.2289,6.0642,5.9426,5.9418,5.9883,6.0642,6.1944,6.3324,6.4713,6.6644,6.7369,6.6413,6.63,6.661,6.7334,6.7955,6.8611,6.9414,7.0128,7.0553,7.0404,6.9956,6.9897,7.0266,6.9897,6.9635,7.0229,7.011,7.0105,7.0159,7.0296,7.0601,7.0987,7.1807,7.2658,7.3377,7.4835,7.6097,7.6503,7.6561,7.6515,7.637,7.6337,7.6284,7.6373,7.6364,7.6573,7.7253,7.747,7.7869,7.8947,7.9499,7.9924,8.0142,8.0685,8.1074,8.1074,8.0567,8.0114,8.0042,7.9607,7.881,7.987,7.987,7.987,7.9092,7.7853,7.7853,7.7041,7.5709,7.5709,7.5676,7.5676,7.5676,7.4943,7.3624,7.2766,7.1977,7.1289,7.0732,7.1249,7.2575,7.3684,7.4593,7.5356,7.6119,7.6051,7.5162,7.468,7.439,7.4344,7.4575,7.5167,7.5925,7.6684,7.7097,7.7201,7.7201,7.7201,7.7201,7.7201,7.7166,7.7028,7.6304,7.5546,7.4718,7.2533,7.0956,7.0094,6.938,6.8611,6.7852,6.7669,6.729,6.6541,6.5585,6.4998,6.4816,6.5368,6.6058,6.6773,6.7679,6.8552,6.937,7.0325,7.0025,6.8014,6.7817,6.8138,6.8897,6.9138,6.9449,7.0163,7.0922,7.1129,7.0577,7.0887,7.0991,7.0542,7.0335,7.0254,7.0275,7.011,7.0254,7.0458,7.0511,7.0773,7.1371,7.1805,7.2477,7.3542,7.475,7.5752,7.637,7.6445,7.6353,7.6292,7.6284,7.6284,7.6284,7.6284,7.6537,7.7253,7.7398,7.7905,7.9381,7.9671,8.0069,8.0685,8.1002,8.1074,8.1074,8.0893,8.0821,8.083,8.0685,8.0178,8.0209,8.0209,8.0209,7.96,7.8551,7.8191,7.7616,7.6973,7.6939,7.6454,7.5709,7.5676,7.51,7.4018,7.2902,7.1988,7.1267,7.061,7.0926,7.2011,7.3221,7.4184,7.4954,7.5725,7.5883,7.5521,7.5629,7.564,7.5674,7.5954,7.635,7.6684,7.7063,7.7201,7.7201,7.7201,7.7201,7.7201,7.7201,7.7201,7.7201,7.6488,7.5925,7.5546,7.3326,7.1784,7.1025,7.0266,6.9552,6.8783,6.9128,6.9025,6.83,6.7931,6.7551,6.7162,6.7827,6.8414,6.8714,6.9483,7.0208,7.0922,7.1301,7.1267,7.068,7.0577,7.0749,7.1115,7.1129,7.1267,7.1622,7.1957,7.1991,7.1691,7.1577,7.1543,7.1567,7.1108,7.0959,7.1211,7.1067,7.0968,7.1078,7.1003,7.1028,7.1423,7.1645,7.2144,7.3011,7.3765,7.4703,7.5803,7.6114,7.6182,7.6258,7.6284,7.6284,7.6284,7.6284,7.6428,7.6791,7.6863,7.737,7.834,7.8919,7.9526,8.0323,8.083,8.1002,8.1074,8.1074,8.1074,8.1074,8.1074,8.0649,8.0209,8.0209,8.0209,7.9769,7.9046,7.8314,7.8022,7.8022,7.7988,7.7312,7.6318,7.6229,7.5811,7.5021,7.3916,7.2935,7.2045,7.1447,7.1526,7.2146,7.324,7.4131,7.4818,7.5439,7.5676,7.5769,7.6228,7.6506,7.6553,7.6976,7.7201,7.7201,7.7201,7.7201,7.7201,7.7201,7.7201,7.7201,7.7201,7.7201,7.7201,7.6649,7.635,7.6212,7.4499,7.3164,7.2533,7.1808,7.1153,7.0611,7.0956,7.0898,7.038,7.0128,6.9794,6.9266,6.9715,7.007,7.0114,7.0577,7.1163,7.1715,7.1784,7.2026,7.2588,7.2692,7.2692,7.2692,7.2588,7.2623,7.2623,7.2657,7.2692,7.2657,7.2347,7.2233,7.2533,7.2091,7.1773,7.2144,7.1853,7.1566,7.1534,7.1559,7.1582,7.1616,7.1716,7.2047,7.2392,7.2932,7.3991,7.5075,7.5746,7.5978,7.6216,7.6284,7.6284,7.6284,7.6284,7.632,7.6356,7.632,7.6791,7.7688,7.834,7.9173,7.9997,8.0649,8.1038,8.1074,8.1074,8.1074,8.1074,8.1074,8.083,8.0209,8.0209,8.0209,7.9756,7.908,7.836,7.8056,7.8056,7.8022,7.7954,7.7785,7.7785,7.7379,7.6758,7.6487,7.5608,7.4345,7.4209,7.4209,7.4243,7.4412,7.4897,7.5506,7.5642,7.5676,7.5769,7.6251,7.6472,7.6495,7.6953,7.719,7.7201,7.7201,7.7201,7.7201,7.7201,7.7201,7.7201,7.7201,7.7201,7.7201,7.7132,7.7097,7.7097,7.6246,7.5764,7.5488,7.4925,7.4442,7.4339,7.374,7.3405,7.3278,7.2726,7.2347,7.2243,7.2312,7.2392,7.2381,7.245,7.245,7.2588,7.2554,7.2588,7.2692,7.2692,7.2692,7.2692,7.2692,7.2692,7.2692,7.2681,7.266,7.2695,7.3074,7.3382,7.2822,7.3065,7.2976,7.2108,7.1754,7.1523,7.1435,7.183,7.2225,7.2293,7.2463,7.2484,7.2383,7.3198,7.4118,7.4891,7.5311,7.5737,7.6161,7.6275,7.6267,7.6275,7.6284,7.6284,7.6284,7.6356,7.671,7.7833,7.8448,7.9064,8.0178,8.1074,8.1002,8.0966,8.1002,8.1074,8.1074,8.1074,8.0794,8.0209,8.0209,8.0209,8.004,7.9701,7.9443,7.9308,7.9295,7.9295,7.9295,7.9308,7.9295,7.8653,7.7582,7.7548,7.7176,7.6589,7.6183,7.598,7.5912,7.5461,7.5405,7.5676,7.5676,7.5676,7.5733,7.6098,7.6262,7.6321,7.661,7.6816,7.6952,7.6964,7.7043,7.719,7.7201,7.7201,7.7201,7.7201,7.7201,7.7201,7.7201,7.7201,7.7132,7.6488,7.6109,7.604,7.5339,7.488,7.488,7.4615,7.4257,7.3819,7.3912,7.3809,7.3416,7.3347,7.3347,7.3347,7.2968,7.2692,7.2692,7.2692,7.2692,7.2692,7.2692,7.2692,7.2692,7.2692,7.2692,7.2681,7.2565,7.2469,7.2504,7.2745,7.2813,7.2528,7.2551,7.2402,7.2008,7.1645,7.1424,7.1424,7.1943,7.2529,7.2913,7.314,7.3085,7.296,7.3546,7.4156,7.4787,7.5223,7.5796,7.641,7.6308,7.6212,7.625,7.6284,7.6284,7.6284,7.6284,7.6718,7.7833,7.8014,7.8412,7.9354,8.0105,8.0395,8.0504,8.0902,8.1074,8.1074,8.1074,8.0893,8.0209,8.0209,8.0209,8.0209,8.0209,8.0209,8.0209,8.0209,8.0209,8.0209,8.0209,8.0209,7.9634,7.8699,7.8597,7.8496,7.8247,7.7739,7.7367,7.7164,7.6601,7.633,7.6318,7.633,7.633,7.6366,7.6603,7.6758,7.6828,7.7005,7.7192,7.74,7.7434,7.7457,7.7523,7.7511,7.7419,7.7235,7.7201,7.7201,7.7201,7.7201,7.7201,7.7166,7.6684,7.6408,7.6408,7.5845,7.5535,7.5535,7.5328,7.4902,7.4188,7.4626,7.4649,7.4154,7.3888,7.3796,7.3796,7.3106,7.2692,7.2692,7.2692,7.2692,7.2692,7.2692,7.2692,7.2692,7.2639,7.2586,7.2565,7.2416,7.2367,7.2485,7.2712,7.2882,7.2864,7.2825,7.2931,7.2558,7.2315,7.2011,7.2247,7.2766,7.3308,7.3691,7.3793,7.3691,7.3624,7.39,7.44,7.4847,7.5371,7.5945,7.6574,7.6445,7.6206,7.6208,7.6284,7.6284,7.6284,7.6284,7.6573,7.7507,7.747,7.7833,7.8774,7.939,7.9788,7.9997,8.0504,8.1074,8.1074,8.1074,8.1074,8.0209,8.0209,8.0209,8.0242,8.0209,8.0276,8.0242,8.0344,8.0242,8.0242,8.0242,8.0209,8.0141,8.0073,8.004,7.9701,7.9114,7.8945,7.8551,7.7988,7.7853,7.7887,7.7887,7.7887,7.7853,7.7708,7.7869,7.8132,7.8438,7.8519,7.8754,7.8909,7.8829,7.8694,7.8328,7.8224,7.7925,7.7304,7.7201,7.7201,7.7201,7.7201,7.7201,7.7201,7.7166,7.7097,7.7097,7.7097,7.7063,7.7063,7.6408,7.5684,7.4949,7.4914,7.4914,7.4811,7.4223,7.3854,7.3819,7.3244,7.283,7.2795,7.2888,7.2761,7.2899,7.2923,7.2923,7.275,7.2676,7.2524,7.2446,7.2324,7.2488,7.2963,7.3836,7.4099,7.4046,7.4411,7.4696,7.3912,7.339,7.3432,7.4175,7.448,7.4424,7.4514,7.4547,7.439,7.3985,7.4408,7.4968,7.5322,7.5778,7.6287,7.6275,7.6488,7.649,7.6622,7.6754,7.6392,7.632,7.6392,7.6827,7.7153,7.7225,7.7615,7.8376,7.8919,7.9281,7.9743,8.054,8.1011,8.1074,8.1074,8.1074,8.0209,8.0242,8.0716,8.0885,8.0966,8.1393,8.1617,8.1562,8.1088,8.0898,8.0818,8.0424,8.0445,8.0898,8.0898,8.0492,7.9803,7.9317,7.8945,7.8653,7.8225,7.8022,7.8022,7.8022,7.8022,7.8034,7.8086,7.8172,7.8245,7.8257,7.8344,7.856,7.8596,7.8423,7.8178,7.8156,7.7835,7.7293,7.7201,7.7201,7.7235,7.7201,7.7201,7.7201,7.7201,7.7201,7.7201,7.7201,7.7201,7.7201,7.6925,7.6453,7.5787,7.5649,7.5891,7.6235,7.5695,7.5292,7.5188,7.4522,7.4108,7.4108,7.4108,7.4029,7.4108,7.4098,7.4055,7.3914,7.3838,7.3674,7.3171,7.2456,7.2116,7.2742,7.3185,7.3662,7.3924,7.4253,7.4287,7.3946,7.3672,7.3793,7.4412,7.4581,7.4784,7.5202,7.5303,7.5134,7.5045,7.5263,7.547,7.5599,7.6062,7.655,7.6851,7.7029,7.7188,7.7502,7.7588,7.7225,7.7044,7.6573,7.6791,7.6682,7.6827,7.6936,7.7551,7.8448,7.8847,7.9635,8.0468,8.1002,8.1074,8.1074,8.1074,8.0344,8.0627,8.1101,8.1439,8.1697,8.2158,8.2395,8.2327,8.1866,8.1676,8.1528,8.1122,8.1202,8.1608,8.1663,8.1393,8.0851,8.0141,7.979,7.9722,7.9058,7.8699,7.8733,7.8699,7.8699,7.8733,7.8686,7.8733,7.8699,7.8699,7.8835,7.9068,7.9034,7.896,7.8748,7.8727,7.8442,7.8052,7.7925,7.7959,7.7925,7.7971,7.7833,7.7626,7.7591,7.7453,7.7235,7.7201,7.7201,7.7201,7.7201,7.6959,7.6511,7.6246,7.6453,7.7028,7.6511,7.6109,7.6005,7.5339,7.4891,7.488,7.4814,7.4816,7.4816,7.4705,7.4618,7.4508,7.4397,7.4206,7.3799,7.287,7.253,7.3175,7.3402,7.373,7.4341,7.458,7.4614,7.4555,7.4427,7.4537,7.4818,7.492,7.519,7.5676,7.5676,7.5676,7.5676,7.5676,7.5676,7.5723,7.6148,7.6722,7.7268,7.7676,7.7873,7.8179,7.8269,7.796,7.7579,7.7044,7.6646,7.6428,7.632,7.632,7.6827,7.7805,7.8666,7.949,8.0359,8.1074,8.1074,8.1074,8.1074,8.0695,8.127,8.1351,8.1811,8.2374,8.2564,8.2496,8.2564,8.2462,8.2408,8.2408,8.2293,8.2225,8.2395,8.2408,8.2395,8.2293,8.1663,8.127,8.1135,8.0513,8.0175,8.0107,8.0086,8.0006,7.9972,8.0107,8.0107,8.0006,7.9984,8.0097,8.0412,8.0334,8.0126,8.011,7.9927,7.9794,7.9384,7.9247,7.935,7.9488,7.9316,7.8971,7.8419,7.8327,7.7936,7.7235,7.7201,7.7235,7.727,7.7235,7.7201,7.7028,7.6546,7.6453,7.6959,7.6546,7.6177,7.6109,7.55,7.5156,7.5101,7.4832,7.4859,7.4872,7.4647,7.4502,7.4468,7.4298,7.4059,7.4048,7.374,7.3726,7.4447,7.4566,7.4906,7.5467,7.5855,7.5948,7.5612,7.5439,7.5642,7.5642,7.5574,7.5608,7.5642,7.5676,7.5676,7.5676,7.5676,7.5676,7.5793,7.6111,7.6656,7.7526,7.8322,7.8555,7.8738,7.8718,7.8577,7.8222,7.7724,7.737,7.7153,7.708,7.7044,7.7225,7.8159,7.8729,7.949,8.035,8.1038,8.1074,8.1074,8.1074,8.1866,8.2103,8.2624,8.2915,8.3219,8.3714,8.3903,8.3836,8.3422,8.3152,8.305,8.2644,8.2678,8.3084,8.3152,8.3422,8.3849,8.3152,8.2556,8.2069,8.1786,8.1426,8.1033,8.0966,8.0695,8.0276,8.0209,8.0209,8.0209,8.0209,8.0272,8.0288,8.0347,8.0202,8.0018,7.9917,7.9754,7.9545,7.9488,7.9488,7.9488,7.9523,7.9178,7.8488,7.8396,7.8005,7.727,7.7201,7.7477,7.7936,7.7488,7.7201,7.7166,7.6994,7.6959,7.7132,7.7005,7.6856,7.6856,7.6592,7.6319,7.623,7.6129,7.6062,7.5926,7.5778,7.5606,7.5502,7.5431,7.535,7.5174,7.5058,7.4897,7.4637,7.4686,7.5037,7.5576,7.5747,7.5781,7.5733,7.5676,7.5676,7.5676,7.5676,7.5676,7.5676,7.5676,7.5676,7.5676,7.5676,7.5676,7.5711,7.6123,7.6472,7.721,7.7932,7.8397,7.8853,7.9106,7.9186,7.8831,7.8557,7.8195,7.7877,7.7805,7.7805,7.8014,7.8448,7.9091,7.9635,8.0468,8.0866,8.1038,8.1074,8.1074,8.2564,8.2847,8.3321,8.3659,8.3917,8.4411,8.458,8.4546,8.412,8.3917,8.3781,8.3443,8.3659,8.4234,8.4349,8.4606,8.4965,8.4539,8.393,8.3172,8.2564,8.2124,8.1731,8.171,8.1494,8.1088,8.1021,8.0885,8.0615,8.0627,8.0615,8.0593,8.0344,8.0405,8.0568,8.039,8.0255,8.0303,8.035,8.035,8.035,8.035,7.9971,7.935,7.9212,7.8971,7.8488,7.8201,7.804,7.7902,7.7453,7.7235,7.7201,7.7201,7.7201,7.719,7.7088,7.7031,7.7066,7.6895,7.6885,7.6714,7.661,7.6495,7.6367,7.6297,7.6134,7.5982,7.5901,7.5876,7.5711,7.5676,7.5574,7.5495,7.5202,7.5224,7.5608,7.5676,7.5676,7.5676,7.5676,7.5676,7.5676,7.5676,7.5676,7.5676,7.5676,7.5676,7.5676,7.5676,7.5676,7.5757,7.597,7.6368,7.6793,7.7442,7.81,7.8807,7.9446,7.9566,7.9493,7.9282,7.8992,7.8521,7.8303,7.8267,7.8448,7.9136,7.9743,8.0259,8.0576,8.0866,8.1074,8.1074,8.1074,8.2949,8.3524,8.3558,8.395,8.4525,8.458,8.458,8.458,8.4546,8.4525,8.4512,8.4424,8.483,8.5499,8.5466,8.5567,8.5669,8.5635,8.5114,8.4255,8.3342,8.2631,8.2496,8.234,8.2192,8.2225,8.2225,8.1968,8.1372,8.1372,8.1372,8.1304,8.0843,8.0867,8.1539,8.1322,8.1212,8.1461,8.1591,8.1602,8.1626,8.1661,8.1293,8.0511,8.0442,8.035,8.0028,7.9523,7.8729,7.7626,7.7546,7.758,7.7408,7.7339,7.7511,7.7501,7.7113,7.7114,7.6942,7.7022,7.6848,7.6789,7.6533,7.6153,7.6296,7.6197,7.6079,7.6058,7.6072,7.6004,7.5992,7.6014,7.6296,7.6724,7.6318,7.6014,7.5857,7.5946,7.6082,7.598,7.5845,7.5777,7.5845,7.5811,7.5676,7.5676,7.5676,7.5676,7.5676,7.5676,7.5676,7.5793,7.5888,7.6053,7.6415,7.6736,7.7409,7.8097,7.8928,7.9434,7.9973,7.9963,7.9924,7.9417,7.9028,7.8955,7.9136,7.9888,8.0178,8.0395,8.0685,8.0966,8.1074,8.1074,8.1074,8.4153,8.4323,8.4309,8.4424,8.458,8.458,8.4614,8.458,8.4614,8.4715,8.4614,8.458,8.4817,8.4999,8.5601,8.5499,8.5351,8.5635,8.5351,8.4661,8.4275,8.3714,8.3186,8.2665,8.2423,8.241,8.2413,8.2293,8.2103,8.2012,8.2072,8.209,8.1776,8.1711,8.1795,8.159,8.1505,8.1486,8.1524,8.1654,8.1844,8.1833,8.1385,8.0683,8.0649,8.0407,7.9902,7.9626,7.9385,7.9005,7.8902,7.8902,7.8775,7.8764,7.8649,7.8454,7.8453,7.8359,7.8195,7.8066,7.7911,7.7539,7.7079,7.7039,7.6863,7.6767,7.6829,7.7002,7.7233,7.7345,7.7345,7.7345,7.7515,7.7616,7.7502,7.7345,7.7312,7.7413,7.7379,7.7379,7.6893,7.6589,7.642,7.6048,7.5709,7.5676,7.5676,7.5676,7.5676,7.5676,7.5676,7.5676,7.5769,7.5783,7.5936,7.6217,7.6656,7.7287,7.8118,7.8973,7.9763,8.0515,8.0596,8.0576,8.0214,8.0033,8.0287,8.0794,8.0785,8.0612,8.0821,8.1074,8.1074,8.1074,8.1074,8.458,8.458,8.458,8.458,8.4647,8.4965,8.51,8.5168,8.5439,8.5574,8.5574,8.5574,8.5743,8.6048,8.6535,8.6501,8.6115,8.6501,8.6298,8.5621,8.5289,8.4588,8.3699,8.2993,8.2724,8.2577,8.2577,8.2396,8.2127,8.2121,8.2087,8.1966,8.1805,8.1683,8.1907,8.1664,8.1626,8.1646,8.1828,8.2134,8.2379,8.2525,8.2232,8.1797,8.1787,8.1728,8.1311,8.1146,8.0654,7.9774,7.9396,7.9326,7.9314,7.9221,7.9093,7.8905,7.8857,7.8646,7.8548,7.844,7.8138,7.7612,7.7212,7.6934,7.6748,7.673,7.6837,7.7242,7.7742,7.7951,7.8056,7.8259,7.845,7.8483,7.8733,7.8653,7.8124,7.7954,7.7988,7.7819,7.7379,7.6927,7.6893,7.6217,7.5811,7.5676,7.5676,7.5676,7.5676,7.5709,7.5777,7.5879,7.5811,7.5825,7.5862,7.6109,7.6309,7.685,7.7637,7.8479,7.9479,8.0565,8.0912,8.0975,8.1065,8.1074,8.1074,8.1074,8.1002,8.0929,8.1074,8.1074,8.1074,8.1074,8.1074,8.458,8.458,8.458,8.4647,8.4864,8.5486,8.5804,8.6041,8.6501,8.6758,8.6758,8.6825,8.6961,8.7888,8.7583,8.7854,8.7719,8.7651,8.725,8.6543,8.5809,8.4834,8.3614,8.3406,8.3101,8.2831,8.2789,8.2477,8.2114,8.1897,8.1746,8.1665,8.109,8.105,8.1357,8.1352,8.1417,8.143,8.1778,8.2237,8.2679,8.2971,8.2995,8.2931,8.3219,8.3336,8.3077,8.284,8.1893,7.984,7.9585,7.9696,7.9557,7.9208,7.9067,7.911,7.9114,7.898,7.8686,7.8791,7.8228,7.7751,7.7063,7.6465,7.6702,7.6781,7.7041,7.7634,7.7903,7.8379,7.8496,7.8889,7.916,7.9249,7.9769,7.9477,7.8631,7.8225,7.8225,7.8157,7.7604,7.7232,7.6927,7.6487,7.5992,7.6567,7.6454,7.6487,7.6487,7.6521,7.6487,7.6386,7.6183,7.5912,7.5962,7.6001,7.6191,7.6518,7.7409,7.8248,7.9105,8.0059,8.0694,8.1048,8.1029,8.1056,8.1074,8.1074,8.1074,8.1074,8.1074,8.1074,8.1074,8.1074,8.1074,8.458,8.458,8.458,8.4965,8.5499,8.5736,8.6163,8.6656,8.6873,8.7028,8.6927,8.6927,8.7062,8.7265,8.782,8.7719,8.7434,8.7731,8.7362,8.6088,8.5177,8.4228,8.3421,8.3465,8.334,8.2902,8.2847,8.2717,8.2425,8.1757,8.1772,8.1576,8.0875,8.0547,8.0261,8.0294,7.9923,7.9805,8.033,8.1263,8.216,8.2734,8.315,8.3416,8.3615,8.3413,8.2926,8.2371,8.1805,8.1566,8.1593,8.1375,8.1062,8.1121,8.0857,8.0437,8.0635,8.0694,8.0424,8.0337,8.0213,7.899,7.832,7.8015,7.7759,7.7874,7.8232,7.8847,7.9373,7.9553,7.9667,7.9837,8.0006,8.0107,8.0141,8.0154,7.9815,7.9667,7.96,7.9464,7.8991,7.8606,7.8551,7.7785,7.7447,7.7481,7.7447,7.7468,7.7413,7.7312,7.7176,7.6995,7.6826,7.6567,7.6253,7.6167,7.605,7.6262,7.7042,7.7791,7.8635,7.9529,8.0183,8.0693,8.0994,8.1029,8.1074,8.1074,8.1074,8.1074,8.1074,8.1074,8.1074,8.1074,8.1074,8.5662,8.5675,8.5675,8.5912,8.6345,8.6684,8.7056,8.7448,8.782,8.7922,8.7922,8.7922,8.7922,8.7955,8.8294,8.8294,8.8007,8.7972,8.7534,8.6432,8.5394,8.4208,8.3162,8.2907,8.2604,8.1725,8.1499,8.1419,8.1018,8.0794,8.0378,8.0474,8.0137,7.9753,7.948,7.9506,7.9509,7.9535,8.0022,8.0927,8.1917,8.2583,8.3315,8.3755,8.3624,8.3199,8.2958,8.238,8.1937,8.1799,8.1951,8.2067,8.1924,8.2055,8.1915,8.1669,8.1733,8.1747,8.14,8.1029,8.057,7.9763,7.9065,7.87,7.8532,7.8731,7.9043,7.9403,7.984,8.0276,8.0648,8.0729,8.083,8.1122,8.0885,8.0716,8.0648,8.0412,8.0209,8.0073,7.9452,7.9147,7.8855,7.8563,7.8191,7.7887,7.7819,7.7853,7.7785,7.7718,7.7785,7.7684,7.7548,7.7244,7.6758,7.6378,7.592,7.6145,7.6565,7.721,7.7878,7.8794,7.9682,8.0164,8.0694,8.1021,8.1074,8.1074,8.1074,8.1074,8.1074,8.1074,8.1074,8.1074,8.1074,8.6893,8.6893,8.6893,8.6961,8.713,8.7719,8.8023,8.826,8.8815,8.8917,8.91,8.9134,8.8883,8.9066,8.9032,8.9058,8.8728,8.8123,8.7268,8.6399,8.5271,8.4011,8.3006,8.2319,8.151,8.0154,8.0422,8.0154,7.9808,7.9258,7.9682,7.9305,7.91,7.9179,7.9132,7.9085,7.9132,7.9162,7.968,8.0535,8.1491,8.2165,8.2882,8.3347,8.3045,8.2555,8.233,8.1894,8.1487,8.1166,8.1062,8.1295,8.1753,8.2223,8.2311,8.2264,8.2225,8.2018,8.1436,8.0929,8.0396,7.9816,7.9155,7.8827,7.8878,7.915,7.9415,7.9738,8.0143,8.0695,8.1202,8.1405,8.1731,8.2002,8.1676,8.1372,8.1169,8.0661,8.0276,8.0141,7.9824,7.9553,7.9295,7.9037,7.8631,7.8327,7.8293,7.8293,7.8259,7.8327,7.853,7.8496,7.8382,7.7887,7.7379,7.7142,7.6617,7.6534,7.6751,7.701,7.751,7.8204,7.9126,7.9893,8.038,8.0721,8.1012,8.1084,8.1093,8.1065,8.1074,8.1074,8.1074,8.1074,8.1074,8.6893,8.6893,8.6893,8.7245,8.7786,8.7955,8.8361,8.8883,8.9018,8.91,8.9134,8.9134,8.9134,8.9134,8.9134,8.8852,8.8262,8.7397,8.6421,8.5467,8.4395,8.3277,8.2379,8.189,8.109,8.0513,8.0521,8.0685,8.0369,8.0234,7.9695,7.9714,7.9331,7.9069,7.8916,7.86,7.846,7.8483,7.8751,7.9318,7.9974,8.0665,8.1286,8.1911,8.1685,8.136,8.0855,8.0277,7.9806,7.9779,7.9471,8.0014,8.0917,8.1896,8.2147,8.2054,8.2322,8.2218,8.1391,8.0924,8.0357,7.9703,7.9153,7.9066,7.9205,7.9474,7.9933,8.0393,8.0801,8.1215,8.1317,8.19,8.2225,8.2259,8.1934,8.1473,8.1304,8.0898,8.0445,8.0479,8.0242,7.9938,7.9701,7.9566,7.9431,7.9274,7.9274,7.9308,7.9342,7.9464,7.9634,7.9532,7.9295,7.8665,7.7954,7.7819,7.7573,7.745,7.7508,7.7344,7.7716,7.7938,7.8602,7.9573,8.0175,8.05,8.0748,8.0921,8.1084,8.1074,8.1074,8.1074,8.1074,8.1074,8.1074,8.8037,8.8057,8.8037,8.8226,8.8545,8.8578,8.8748,8.9066,8.9134,8.9134,8.9134,8.9134,8.9134,8.9134,8.9134,8.8605,8.7526,8.6421,8.528,8.4139,8.3228,8.2429,8.1683,8.1409,8.11,8.0809,8.0959,8.0713,8.0111,7.9714,7.9694,7.9495,7.9201,7.9109,7.9047,7.879,7.8353,7.8209,7.825,7.8495,7.8943,7.9563,8.0144,8.0414,8.0384,8.0097,7.9686,7.9223,7.8848,7.8754,7.8581,7.9114,8.011,8.1094,8.1883,8.2084,8.2403,8.2137,8.1113,8.0421,7.9585,7.9335,7.9009,7.9192,7.962,8.0194,8.0779,8.1321,8.1628,8.2035,8.2454,8.2746,8.3105,8.3342,8.2847,8.2454,8.2251,8.1697,8.1393,8.1088,8.0615,8.031,8.0141,8.0073,8.0141,8.0209,8.0242,8.0242,8.0276,8.0209,8.0209,7.9972,7.9667,7.9228,7.8597,7.8462,7.8394,7.8327,7.8237,7.8077,7.8012,7.8263,7.881,7.9561,7.9988,8.0207,8.05,8.073,8.0903,8.1102,8.1074,8.1074,8.1074,8.1074,8.1074,8.9134,8.9134,8.9134,8.9134,8.9134,8.91,8.9086,8.9134,8.9134,8.9134,8.9134,8.9086,8.9058,8.8931,8.8558,8.7877,8.6642,8.5437,8.4219,8.3112,8.2379,8.1683,8.1255,8.1082,8.1052,8.1021,8.1034,8.0542,8.0049,7.9803,7.957,7.9741,7.957,7.9509,7.957,7.9447,7.8907,7.87,7.8544,7.8649,7.8794,7.9148,7.9542,7.9761,7.9542,7.9337,7.913,7.8921,7.868,7.8518,7.8455,7.8716,7.9589,8.0456,8.1362,8.2232,8.2346,8.169,8.0687,7.9501,7.8817,7.877,7.8738,7.9122,7.9961,8.0817,8.1802,8.2289,8.2598,8.278,8.3199,8.3625,8.3964,8.4153,8.3862,8.3402,8.3118,8.2712,8.2192,8.1718,8.1122,8.0953,8.0987,8.0987,8.1156,8.0953,8.0987,8.0695,8.0661,8.0276,8.0175,8.0073,7.9824,7.96,7.9261,7.9037,7.9003,7.9003,7.8936,7.8828,7.8671,7.8655,7.915,7.9476,7.9596,7.982,8.0174,8.0625,8.0929,8.1129,8.1093,8.1074,8.1074,8.1074,8.1074,8.9134,8.9134,8.9134,8.9134,8.9134,8.9134,8.9134,8.9134,8.9134,8.9134,8.9134,8.9072,8.8931,8.8429,8.7408,8.6451,8.5342,8.4331,8.3324,8.2386,8.1867,8.154,8.1165,8.1082,8.1175,8.1188,8.1175,8.1034,8.0819,8.0788,8.0727,8.0696,8.0634,8.0805,8.0542,8.0186,7.9971,7.9724,7.9282,7.8997,7.9007,7.9095,7.9178,7.9226,7.9195,7.9164,7.9071,7.8971,7.8917,7.8929,7.8938,7.9319,7.9994,8.0598,8.0967,8.1202,8.1104,8.0689,7.9831,7.8959,7.8385,7.8447,7.8322,7.8849,8.0073,8.1338,8.2252,8.2366,8.297,8.3389,8.3693,8.4086,8.4424,8.4356,8.4052,8.3693,8.349,8.3477,8.3003,8.2834,8.2327,8.2225,8.2225,8.2192,8.2158,8.1934,8.1663,8.1338,8.0932,8.0492,8.0209,8.0107,8.0073,7.9837,7.9735,7.9532,7.9498,7.9566,7.9545,7.9489,7.9318,7.9124,7.888,7.9178,7.9372,7.9825,8.0391,8.0846,8.1106,8.1173,8.112,8.1075,8.1074,8.1074,8.1111,8.9134,8.9134,8.9134,8.9134,8.9134,8.9134,8.9134,8.9134,8.9134,8.9134,8.9134,8.9086,8.8614,8.761,8.6436,8.5155,8.4074,8.3195,8.2612,8.2058,8.1639,8.1454,8.1548,8.1329,8.1236,8.1558,8.1712,8.1989,8.1896,8.1435,8.1082,8.1113,8.1082,8.1021,8.1082,8.0819,8.0432,8.0032,7.9478,7.9109,7.9109,7.9109,7.9109,7.9139,7.9139,7.917,7.917,7.9109,7.9109,7.9109,7.9109,7.9313,7.9766,8.0213,8.0493,8.051,8.0505,8.0254,7.9823,7.9078,7.8721,7.8651,7.8754,7.9393,8.08,8.1919,8.2906,8.3655,8.3937,8.4086,8.4086,8.4377,8.4512,8.4458,8.4221,8.4153,8.3984,8.395,8.3802,8.37,8.3578,8.3409,8.3172,8.2834,8.2665,8.2462,8.2137,8.1765,8.1202,8.056,8.0344,8.0175,8.0175,8.0107,8.0073,7.9972,7.9904,7.9938,7.9938,7.9883,7.9837,7.9662,7.9411,7.963,8.0184,8.0547,8.0804,8.0966,8.1162,8.1135,8.1074,8.1265,8.1382,8.1219,8.1219,8.9134,8.9134,8.9134,8.9134,8.9134,8.9134,8.9044,8.8959,8.8861,8.8804,8.8677,8.84,8.7658,8.6567,8.5342,8.4107,8.2897,8.2244,8.2086,8.1824,8.1558,8.1544,8.1668,8.1514,8.1452,8.2112,8.1989,8.2358,8.2451,8.205,8.1404,8.1329,8.1175,8.1113,8.1082,8.1004,8.0819,8.0432,7.9971,7.9755,7.9711,7.9663,7.968,7.9649,7.9618,7.9601,7.9601,7.968,7.968,7.9711,7.9741,7.9956,8.0164,8.0397,8.0547,8.0564,8.0529,8.0496,8.0141,7.9619,7.9288,7.9251,7.965,8.0333,8.1794,8.2657,8.3335,8.4331,8.4478,8.4512,8.458,8.458,8.458,8.458,8.4559,8.458,8.4546,8.4377,8.4242,8.4174,8.4153,8.4323,8.3984,8.3443,8.3172,8.3003,8.2665,8.2238,8.1562,8.0864,8.0526,8.0344,8.0209,8.0209,8.0209,8.0209,8.0209,8.0209,8.0209,8.0175,8.0073,8.0086,7.998,8.0374,8.0734,8.0738,8.0674,8.0932,8.1195,8.1383,8.1545,8.1714,8.1753,8.1609,8.1663,8.9134,8.9134,8.9086,8.9086,8.9134,8.9134,8.8917,8.8634,8.8348,8.8031,8.7574,8.6828,8.6038,8.5203,8.4267,8.321,8.2174,8.1819,8.2014,8.1957,8.1544,8.1791,8.1945,8.1883,8.1619,8.2174,8.242,8.2728,8.2882,8.2697,8.2174,8.1976,8.1452,8.1206,8.1082,8.1082,8.1065,8.085,8.0696,8.0727,8.0727,8.0757,8.0757,8.0788,8.0898,8.0959,8.0959,8.0788,8.0696,8.0696,8.0665,8.0682,8.071,8.0809,8.0829,8.0829,8.086,8.0829,8.0651,8.0065,7.9532,7.9774,8.0503,8.1623,8.304,8.3209,8.3779,8.4703,8.504,8.4918,8.4817,8.4647,8.4999,8.5033,8.5067,8.4898,8.483,8.4614,8.4512,8.458,8.458,8.458,8.458,8.4018,8.3883,8.3748,8.3206,8.278,8.2048,8.1338,8.083,8.0547,8.0276,8.0209,8.0209,8.0209,8.0209,8.0209,8.0209,8.0209,8.0175,8.02,8.0213,8.025,8.046,8.0504,8.064,8.0974,8.1321,8.1743,8.2017,8.2107,8.2465,8.2622,8.2776,8.8974,8.879,8.8639,8.8781,8.9134,8.9134,8.8804,8.8305,8.7779,8.696,8.6066,8.5263,8.4555,8.3832,8.3144,8.2511,8.2086,8.1976,8.2481,8.2873,8.282,8.2789,8.2882,8.2759,8.2697,8.3141,8.3326,8.3664,8.4249,8.3528,8.3405,8.2974,8.1896,8.1267,8.1082,8.1236,8.1175,8.1175,8.1144,8.1113,8.1082,8.1082,8.1082,8.1082,8.1082,8.1082,8.1082,8.1082,8.1082,8.1082,8.1082,8.1082,8.1082,8.1082,8.1082,8.1082,8.1082,8.1082,8.11,8.0675,8.0769,8.1739,8.2525,8.3395,8.446,8.4836,8.5278,8.5802,8.5912,8.5797,8.598,8.6014,8.6115,8.5912,8.5655,8.5351,8.51,8.4864,8.4614,8.458,8.458,8.458,8.458,8.4546,8.4512,8.4458,8.3883,8.3287,8.2556,8.1913,8.1439,8.1021,8.0784,8.0412,8.0378,8.031,8.0242,8.0209,8.0209,8.0209,8.0209,8.0209,8.0221,8.0209,8.0234,8.0376,8.0635,8.1048,8.1378,8.1669,8.2078,8.2453,8.2926,8.3516,8.3708,8.8847,8.8448,8.8045,8.819,8.8648,8.8591,8.819,8.7548,8.6843,8.579,8.4523,8.3929,8.336,8.2765,8.2244,8.2089,8.2057,8.2178,8.2992,8.3313,8.3418,8.3572,8.3664,8.3541,8.3233,8.3972,8.4157,8.4372,8.4896,8.4403,8.4065,8.3497,8.2635,8.1958,8.1773,8.1681,8.1698,8.1698,8.1698,8.1544,8.1496,8.1421,8.1236,8.1175,8.1082,8.1082,8.1082,8.1082,8.1082,8.1082,8.1082,8.1082,8.1082,8.1082,8.1082,8.1082,8.1082,8.1082,8.1148,8.1546,8.211,8.3026,8.3877,8.491,8.5879,8.623,8.6161,8.6614,8.6792,8.6927,8.6927,8.6724,8.6656,8.642,8.5892,8.5554,8.5351,8.51,8.4796,8.458,8.458,8.4614,8.458,8.458,8.458,8.458,8.4356,8.3795,8.3186,8.2624,8.2171,8.1765,8.1393,8.0987,8.0615,8.0661,8.0661,8.0209,8.0209,8.0209,8.0209,8.0209,8.0209,8.0209,8.0247,8.0309,8.048,8.0689,8.1079,8.1471,8.2151,8.3009,8.3835,8.4414,8.443,8.8643,8.8151,8.7375,8.7334,8.7544,8.7353,8.6861,8.6162,8.5437,8.4427,8.3244,8.2844,8.2559,8.2186,8.1906,8.2059,8.2384,8.2389,8.3005,8.3818,8.3788,8.3744,8.3757,8.3757,8.3788,8.4003,8.4249,8.4619,8.5062,8.4588,8.428,8.4034,8.3405,8.2789,8.3005,8.3005,8.3005,8.2974,8.2789,8.2328,8.1927,8.1791,8.1483,8.1206,8.1082,8.1082,8.1082,8.1082,8.1082,8.1082,8.1082,8.1082,8.1082,8.1082,8.1082,8.1082,8.1082,8.1082,8.1117,8.2056,8.2997,8.4011,8.4805,8.5866,8.6655,8.6836,8.6818,8.7421,8.7265,8.7144,8.7028,8.7028,8.713,8.7028,8.6535,8.6176,8.6027,8.5655,8.5405,8.5236,8.485,8.4614,8.4614,8.458,8.458,8.458,8.458,8.4255,8.3727,8.3219,8.2746,8.2408,8.2035,8.1697,8.1325,8.1202,8.1033,8.0526,8.0209,8.0209,8.0209,8.0209,8.0209,8.0209,8.0234,8.0272,8.0259,8.0263,8.0768,8.1444,8.2828,8.3774,8.4629,8.5097,8.4999,8.674,8.6171,8.5951,8.567,8.5453,8.5715,8.5419,8.4665,8.3637,8.2663,8.1955,8.1697,8.189,8.1949,8.2099,8.2388,8.3269,8.3449,8.4034,8.4588,8.4403,8.4588,8.4588,8.4495,8.4465,8.468,8.4803,8.4773,8.5062,8.4773,8.4773,8.4588,8.4052,8.3264,8.2666,8.2389,8.2266,8.1835,8.1712,8.1619,8.1465,8.1465,8.139,8.1113,8.1082,8.1082,8.1082,8.1082,8.1082,8.1082,8.1082,8.1082,8.1082,8.1082,8.1082,8.1082,8.1082,8.1082,8.1426,8.2227,8.3539,8.4616,8.5778,8.6873,8.8106,8.8293,8.8278,8.8218,8.8158,8.8206,8.8395,8.8409,8.8443,8.8294,8.7936,8.7516,8.7211,8.6656,8.6284,8.6163,8.5878,8.5067,8.4728,8.4614,8.458,8.458,8.458,8.458,8.4187,8.3693,8.3219,8.2983,8.2678,8.2374,8.2103,8.19,8.1608,8.1135,8.0581,8.0209,8.0209,8.0412,8.031,8.0378,8.0276,8.0209,8.0234,8.0322,8.0709,8.1481,8.2464,8.3551,8.4401,8.4876,8.5117,8.5051,8.4494,8.4455,8.409,8.362,8.4187,8.4042,8.3327,8.2331,8.1615,8.1234,8.1131,8.1469,8.1962,8.2204,8.282,8.4003,8.4095,8.4434,8.5019,8.5062,8.5019,8.5031,8.5093,8.4939,8.5093,8.5093,8.5093,8.5093,8.5093,8.5031,8.4926,8.4619,8.3726,8.2943,8.2481,8.2389,8.2143,8.2112,8.1914,8.1681,8.1496,8.139,8.1175,8.1082,8.1082,8.1082,8.1082,8.1082,8.1082,8.1082,8.1082,8.1082,8.1082,8.1082,8.1082,8.1082,8.1082,8.1392,8.2395,8.367,8.4917,8.6388,8.772,8.8776,8.8895,8.8956,8.8984,8.9134,8.91,8.9052,8.9134,8.9066,8.8917,8.8545,8.8105,8.782,8.7245,8.6893,8.6771,8.6366,8.5587,8.4864,8.4695,8.458,8.458,8.458,8.458,8.458,8.4153,8.3795,8.3625,8.3422,8.3206,8.2868,8.2577,8.2205,8.1778,8.1257,8.0784,8.0851,8.1156,8.0818,8.0513,8.0378,8.0323,8.0247,8.041,8.0597,8.086,8.1421,8.2622,8.3911,8.4518,8.4898,8.3601,8.3067,8.3059,8.2717,8.2295,8.2879,8.2746,8.2076,8.1751,8.1392,8.1113,8.1082,8.1527,8.2081,8.2174,8.2974,8.4034,8.4218,8.4588,8.4957,8.5062,8.5093,8.5093,8.5093,8.5093,8.5093,8.5093,8.5093,8.5093,8.5093,8.5093,8.5031,8.4834,8.3972,8.3282,8.2789,8.2635,8.2328,8.2204,8.1976,8.1681,8.1791,8.1483,8.1236,8.1082,8.1082,8.1082,8.1082,8.1082,8.1082,8.1082,8.1082,8.1082,8.1082,8.1082,8.1082,8.1082,8.1151,8.1478,8.263,8.3897,8.5231,8.6494,8.7746,8.8662,8.9134,8.9134,8.9134,8.9134,8.9134,8.9134,8.9134,8.91,8.8815,8.8511,8.8274,8.8071,8.7719,8.738,8.7042,8.6602,8.5926,8.5148,8.4864,8.483,8.458,8.458,8.458,8.458,8.458,8.4289,8.4323,8.4153,8.4086,8.3748,8.3253,8.2881,8.2488,8.2205,8.182,8.19,8.1799,8.1528,8.1156,8.0648,8.0458,8.0585,8.045,8.0272,8.0576,8.097,8.199,8.3394,8.4115,8.4605,8.1729,8.142,8.2094,8.2143,8.1754,8.1734,8.1563,8.1375,8.1303,8.1151,8.1082,8.1082,8.1681,8.2759,8.2851,8.3634,8.4342,8.4834,8.4896,8.505,8.5093,8.5093,8.5093,8.5093,8.5093,8.5093,8.5093,8.5093,8.5093,8.5093,8.5093,8.5062,8.4773,8.3972,8.3282,8.2635,8.2266,8.1914,8.1883,8.1729,8.1544,8.1483,8.1267,8.1175,8.1082,8.1082,8.1082,8.1082,8.1082,8.1082,8.1082,8.1082,8.1082,8.1082,8.1082,8.1148,8.1306,8.158,8.1974,8.3127,8.4443,8.5682,8.6918,8.7939,8.8762,8.9134,8.9134,8.9134,8.9134,8.9134,8.9134,8.9134,8.9134,8.8931,8.8714,8.8646,8.8511,8.8409,8.8057,8.7719,8.7245,8.6535,8.5757,8.5317,8.5249,8.483,8.458,8.458,8.458,8.458,8.458,8.458,8.4546,8.439,8.4187,8.3748,8.349,8.3199,8.2949,8.2699,8.2496,8.2361,8.2158,8.1799,8.1325,8.1088,8.1046,8.0796,8.0445,8.0419,8.0774,8.1803,8.2755,8.357,8.4513,8.0212,8.0168,8.1243,8.158,8.1375,8.12,8.1082,8.1082,8.1082,8.1082,8.1082,8.1082,8.1698,8.2512,8.2697,8.3326,8.4557,8.4588,8.4742,8.5062,8.5093,8.5093,8.5093,8.5093,8.5093,8.5093,8.5093,8.5093,8.5093,8.5093,8.5093,8.5062,8.4619,8.3941,8.3282,8.2728,8.205,8.1514,8.1144,8.1082,8.1082,8.1082,8.1082,8.1082,8.1082,8.1082,8.1082,8.1082,8.1082,8.1082,8.1082,8.1082,8.1082,8.1082,8.1082,8.1169,8.158,8.2025,8.2598,8.3815,8.5139,8.6343,8.743,8.8219,8.8748,8.9134,8.9134,8.9134,8.9134,8.9134,8.9134,8.9134,8.9134,8.91,8.91,8.91,8.9066,8.9066,8.8815,8.8531,8.7955,8.7279,8.667,8.6176,8.5702,8.5283,8.4864,8.458,8.458,8.458,8.458,8.458,8.458,8.4525,8.4356,8.4221,8.4018,8.3862,8.3815,8.3545,8.324,8.2936,8.2746,8.2408,8.1989,8.1765,8.1541,8.1067,8.0741,8.0669,8.078,8.1696,8.2645,8.3418,8.4441,7.9033,7.9142,8.0449,8.1086,8.1082,8.1113,8.1082,8.1082,8.1082,8.1082,8.1082,8.1082,8.1514,8.2174,8.2297,8.3005,8.3911,8.428,8.4619,8.5062,8.5093,8.5093,8.5093,8.5093,8.5093,8.5093,8.5093,8.5093,8.5093,8.5093,8.5093,8.5062,8.5031,8.4372,8.3233,8.3036,8.2328,8.1298,8.1082,8.1082,8.1082,8.1082,8.1082,8.1082,8.1082,8.1082,8.1082,8.1082,8.1082,8.1082,8.1082,8.1082,8.1082,8.1169,8.1151,8.1529,8.2008,8.2922,8.3778,8.4972,8.6211,8.7275,8.8037,8.8885,8.9482,8.9478,8.9458,8.9458,8.9492,8.9492,8.9492,8.9221,8.9134,8.9134,8.9134,8.9134,8.9134,8.91,8.8951,8.8714,8.8511,8.782,8.7279,8.6738,8.6244,8.579,8.5351,8.4931,8.4614,8.4614,8.458,8.458,8.458,8.458,8.4559,8.4458,8.4525,8.4458,8.439,8.4323,8.395,8.3646,8.3355,8.3084,8.2834,8.2306,8.1947,8.1596,8.1215,8.0809,8.1059,8.1705,8.2498,8.3321,8.4375,7.8261,7.8384,7.9755,8.0634,8.1082,8.1082,8.1082,8.1082,8.1082,8.1082,8.1082,8.1144,8.1404,8.1958,8.202,8.2728,8.3757,8.4003,8.4495,8.4926,8.5093,8.5093,8.5093,8.5093,8.5093,8.5093,8.5093,8.5093,8.5093,8.5093,8.5062,8.5062,8.5019,8.4311,8.3097,8.3005,8.2358,8.1158,8.1082,8.1082,8.1082,8.1082,8.1082,8.1082,8.1082,8.1082,8.1082,8.1082,8.1082,8.1082,8.1082,8.1082,8.1082,8.1341,8.1615,8.1989,8.278,8.3941,8.5261,8.6464,8.7689,8.9016,8.9896,9.0327,9.0499,9.0131,8.9971,8.9937,8.987,8.9884,8.9748,8.9424,8.9134,8.9134,8.9134,8.9134,8.9134,8.9066,8.8984,8.8917,8.8815,8.8409,8.7854,8.7347,8.6819,8.6345,8.5872,8.5384,8.4864,8.4695,8.4614,8.458,8.458,8.458,8.458,8.458,8.458,8.458,8.4512,8.4546,8.458,8.4289,8.3917,8.3917,8.3714,8.3118,8.2644,8.2408,8.1973,8.1245,8.1328,8.1954,8.2613,8.3397,8.4457,7.7998,7.8183,7.9492,8.0494,8.1004,8.1082,8.1082,8.1082,8.1082,8.1082,8.1082,8.1113,8.1329,8.165,8.165,8.242,8.348,8.3634,8.428,8.4834,8.5093,8.5093,8.5093,8.5093,8.5093,8.5093,8.5093,8.5093,8.5093,8.505,8.505,8.4773,8.4588,8.4065,8.2882,8.2574,8.2174,8.1127,8.1113,8.1082,8.1082,8.1082,8.1082,8.1082,8.1082,8.1082,8.1082,8.1082,8.1082,8.1082,8.1082,8.1082,8.1203,8.1563,8.2059,8.2731,8.3733,8.5163,8.6733,8.8034,8.9179,9.0399,9.0967,9.1083,9.1165,9.0865,9.0952,9.0884,9.0208,9.0073,8.9884,8.9545,8.9221,8.9134,8.9134,8.9134,8.9134,8.91,8.9066,8.9032,8.8965,8.8883,8.8361,8.7922,8.7462,8.709,8.6616,8.5838,8.5317,8.483,8.4728,8.458,8.458,8.458,8.458,8.458,8.458,8.458,8.458,8.458,8.458,8.458,8.4512,8.4356,8.4187,8.3849,8.3456,8.3152,8.2306,8.1444,8.1694,8.2234,8.2893,8.3649,8.4671,7.7967,7.8306,7.9461,8.0402,8.1034,8.1082,8.1082,8.1082,8.1082,8.1082,8.1082,8.1082,8.1082,8.1082,8.1144,8.2099,8.2789,8.3203,8.3972,8.4803,8.5062,8.5093,8.5093,8.5093,8.5093,8.5093,8.5093,8.5093,8.5093,8.505,8.4834,8.4249,8.3818,8.3467,8.2481,8.205,8.1773,8.125,8.1082,8.1082,8.1082,8.1082,8.1082,8.1082,8.1082,8.1082,8.1082,8.1082,8.1082,8.1082,8.1082,8.1082,8.132,8.17,8.2364,8.3096,8.4235,8.6017,8.7839,8.8971,9.0231,9.1223,9.1416,9.1623,9.1793,9.1846,9.1947,9.1643,9.0966,9.0445,9.0222,8.9816,8.9492,8.9134,8.9134,8.9134,8.9134,8.9134,8.9134,8.9134,8.91,8.9086,8.8815,8.8409,8.8105,8.7766,8.7225,8.6447,8.577,8.5317,8.4999,8.4762,8.458,8.458,8.458,8.458,8.458,8.458,8.458,8.458,8.458,8.458,8.458,8.458,8.439,8.4187,8.4031,8.3714,8.278,8.1879,8.2483,8.3125,8.3682,8.4431,8.5068,7.7861,7.8907,7.9153,7.994,8.0973,8.1082,8.1082,8.1082,8.1082,8.1082,8.1082,8.1082,8.1082,8.1082,8.1082,8.1835,8.2943,8.311,8.3941,8.4926,8.5062,8.5093,8.5093,8.5093,8.5093,8.5093,8.5093,8.5093,8.5093,8.5062,8.4742,8.4082,8.4065,8.3436,8.2297,8.1976,8.1712,8.1267,8.1082,8.1082,8.1082,8.1082,8.1082,8.1082,8.1082,8.1082,8.1082,8.1082,8.1082,8.1082,8.1082,8.1082,8.1323,8.1782,8.2429,8.3277,8.4443,8.6511,8.8191,8.9498,9.0752,9.2536,9.2774,9.2841,9.2943,9.2977,9.2977,9.2895,9.2286,9.1575,9.1203,9.0459,8.9985,8.9458,8.9221,8.9154,8.912,8.9134,8.9134,8.9134,8.91,8.91,8.9066,8.8748,8.8531,8.8192,8.7888,8.711,8.6244,8.579,8.5317,8.4986,8.4702,8.458,8.458,8.458,8.458,8.458,8.458,8.458,8.458,8.458,8.458,8.458,8.458,8.4458,8.4323,8.4153,8.3727,8.3082,8.3611,8.4165,8.4624,8.5159,8.5786]},{"header":{"parameterUnit":"m.s-1","parameterCategory":1,"la1":31.0,"la2":29.5877,"lo1":-88.7671,"lo2":-86.6584,"dy":0.0162,"dx":0.0185,"nx":115,"ny":88,"refTime":"2026-04-01T12:00:00:Z","depth":0,"parameterNumber":3,"parameterNumberName":"V-component_of_WINDS"},"data":[0.0,0.0,0.0,0.0,0.0,0.0,0.0,0.0,0.0,0.0,0.0,0.0,0.0,0.0,0.0,0.0,0.0,0.0,0.0,0.0,0.0,0.0,0.0,0.0,0.0,0.0,0.0,0.0,0.0,0.0,0.0,0.0,0.0,0.0,0.0,0.0,0.0,0.0,0.0,0.0,0.0,0.0,0.0,0.0,0.0,0.0,0.0,0.0,0.0,0.0,0.0,0.0,0.0,0.0,0.0,0.0,0.0,0.0,0.0,0.0,0.0,0.0,0.0,0.0,0.0,0.0,0.0,0.0,0.0,0.0,0.0,0.0,0.0,0.0,0.0,0.0,0.0,0.0,0.0,0.0,0.0,0.0,0.0,0.0,0.0,0.0,0.0,0.0,0.0,0.0,0.0,0.0,0.0,0.0,0.0,0.0,0.0,0.0,0.0,0.0,0.0,0.0,0.0,0.0,0.0,0.0,0.0,0.0,0.0,0.0,0.0,0.0,0.0,0.0,0.0,0.0,0.0,0.0,0.0,0.0,0.0,0.0,0.0,0.0,0.0,0.0,0.0,0.0,0.0,0.0,0.0,0.0,0.0,0.0,0.0,0.0,0.0,0.0,0.0,0.0,0.0,0.0,0.0,0.0,0.0,0.0,0.0,0.0,0.0,0.0,0.0,0.0,0.0,0.0,0.0,0.0,0.0,0.0,0.0,0.0,0.0,0.0,0.0,0.0,0.0,0.0,0.0,0.0,0.0,0.0,0.0,0.0,0.0,0.0,0.0,0.0,0.0,0.0,0.0,0.0,0.0,0.0,0.0,0.0,0.0,0.0,0.0,0.0,0.0,0.0,0.0,0.0,0.0,0.0,0.0,0.0,0.0,0.0,0.0,0.0,0.0,0.0,0.0,0.0,0.0,0.0,0.0,0.0,0.0,0.0,0.0,0.0,0.0,0.0,0.0,0.0,0.0,0.0,0.0,0.0,0.0,0.0,0.0,0.0,0.0,0.0,0.0,0.0,0.0,0.0,0.0,0.0,0.0,0.0,0.0,0.0,0.0,0.0,0.0,0.0,0.0,0.0,0.0,0.0,0.0,0.0,0.0,0.0,0.0,0.0,0.0,0.0,0.0,0.0,0.0,0.0,0.0,0.0,0.0,0.0,0.0,0.0,0.0,0.0,0.0,0.0,0.0,0.0,0.0,0.0,0.0,0.0,0.0,0.0,0.0,0.0,0.0,0.0,0.0,0.0,0.0,0.0,0.0,0.0,0.0,0.0,0.0,0.0,0.0,0.0,0.0,0.0,0.0,0.0,0.0,0.0,0.0,0.0,0.0,0.0,0.0,0.0,0.0,0.0,0.0,0.0,0.0,0.0,0.0,0.0,0.0,0.0,0.0,0.0,0.0,0.0,0.0,0.0,0.0,0.0,0.0,0.0,0.0,0.0,0.0,0.0,0.0,0.0,0.0,0.0,0.0,0.0,0.0,0.0,0.0,0.0,0.0,0.0,0.0,0.0,0.0,0.0,0.0,0.0,0.0,0.0,0.0,0.0,0.0,0.0,0.0,0.0,0.0,0.0,0.0,0.0,0.0,0.0,0.0,0.0,0.0,0.0,0.0,0.0,0.0,0.0,0.0,0.0,0.0,0.0,0.0,0.0,0.0,0.0,0.0,0.0,0.0,0.0,0.0,0.0,0.0,0.0,0.0,0.0,0.0,0.0,0.0,0.0,0.0,0.0,0.0,0.0,0.0,0.0,0.0,0.0,0.0,0.0,0.0,0.0,0.0,0.0,0.0,0.0,0.0,0.0,0.0,0.0,0.0,0.0,0.0,0.0,0.0,0.0,0.0,0.0,0.0,0.0,0.0,0.0,0.0,0.0,0.0,0.0,0.0,0.0,0.0,0.0,0.0,0.0,0.0,0.0,0.0,0.0,0.0,0.0,0.0,0.0,0.0,0.0,0.0,0.0,0.0,0.0,0.0,0.0,0.0,0.0,0.0,0.0,0.0,0.0,0.0,0.0,0.0,0.0,0.0,0.0,0.0,0.0,0.0,0.0,0.0,0.0,0.0,0.0,0.0,0.0,0.0,0.0,0.0,0.0,0.0,0.0,0.0,0.0,0.0,0.0,0.0,0.0,0.0,0.0,0.0,0.0,0.0,0.0,0.0,0.0,0.0,0.0,0.0,0.0,0.0,0.0,0.0,0.0,0.0,0.0,0.0,0.0,0.0,0.0,0.0,0.0,0.0,0.0,0.0,0.0,0.0,0.0,0.0,0.0,0.0,0.0,0.0,0.0,0.0,0.0,0.0,0.0,0.0,0.0,0.0,0.0,0.0,0.0,0.0,0.0,0.0,0.0,0.0,0.0,0.0,0.0,0.0,0.0,0.0,0.0,0.0,0.0,0.0,0.0,0.0,0.0,0.0,0.0,0.0,0.0,0.0,0.0,0.0,0.0,0.0,0.0,0.0,0.0,0.0,0.0,0.0,0.0,0.0,0.0,0.0,0.0,0.0,0.0,0.0,0.0,0.0,0.0,0.0,0.0,0.0,0.0,0.0,0.0,0.0,0.0,0.0,0.0,0.0,0.0,0.0,0.0,0.0,0.0,0.0,0.0,0.0,0.0,0.0,0.0,0.0,0.0,0.0,0.0,0.0,0.0,0.0,0.0,0.0,0.0,0.0,0.0,0.0,0.0,0.0,0.0,0.0,0.0,0.0,0.0,0.0,0.0,0.0,0.0,0.0,0.0,0.0,0.0,0.0,0.0,0.0,0.0,0.0,0.0,0.0,0.0,0.0,0.0,0.0,0.0,0.0,0.0,0.0,0.0,0.0,0.0,0.0,0.0,0.0,0.0,0.0,0.0,0.0,0.0,0.0,0.0,0.0,0.0,0.0,0.0,0.0,0.0,0.0,0.0,0.0,0.0,0.0,0.0,0.0,0.0,0.0,0.0,0.0,0.0,0.0,0.0,0.0,0.0,0.0,0.0,0.0,0.0,0.0,0.0,0.0,0.0,0.0,0.0,0.0,0.0,0.0,0.0,0.0,0.0,0.0,0.0,0.0,0.0,0.0,0.0,0.0,0.0,0.0,0.0,0.0,0.0,0.0,0.0,0.0,0.0,0.0,0.0,0.0,0.0,0.0,0.0,0.0,0.0,0.0,0.0,0.0,0.0,0.0,0.0,0.0,0.0,0.0,0.0,0.0,0.0,0.0,0.0,0.0,0.0,0.0,0.0,0.0,0.0,0.0,0.0,0.0,0.0,0.0,0.0,0.0,0.0,0.0,0.0,0.0,0.0,0.0,0.0,0.0,0.0,0.0,0.0,0.0,0.0,0.0,0.0,0.0,0.0,0.0,0.0,0.0,0.0,0.0,0.0,0.0,0.0,0.0,0.0,0.0,0.0,0.0,0.0,0.0,0.0,0.0,0.0,0.0,0.0,0.0,0.0,0.0,0.0,0.0,0.0,0.0,0.0,0.0,0.0,0.0,0.0,0.0,0.0,0.0,0.0,0.0,0.0,0.0,0.0,0.0,0.0,0.0,0.0,0.0,0.0,0.0,0.0,0.0,0.0,0.0,0.0,0.0,0.0,0.0,0.0,0.0,0.0,0.0,0.0,0.0,0.0,0.0,0.0,0.0,0.0,0.0,0.0,0.0,0.0,0.0,0.0,0.0,0.0,0.0,0.0,0.0,0.0,0.0,0.0,0.0,0.0,0.0,0.0,0.0,0.0,0.0,0.0,0.0,0.0,0.0,0.0,0.0,0.0,0.0,0.0,0.0,0.0,0.0,0.0,0.0,0.0,0.0,0.0,0.0,0.0,0.0,0.0,0.0,0.0,0.0,0.0,0.0,0.0,0.0,0.0,0.0,0.0,0.0,0.0,0.0,0.0,0.0,0.0,0.0,0.0,0.0,0.0,0.0,0.0,0.0,0.0,0.0,0.0,0.0,0.0,0.0,0.0,0.0,0.0,0.0,0.0,0.0,0.0,0.0,0.0,0.0,0.0,0.0,0.0,0.0,0.0,0.0,0.0,0.0,0.0,0.0,0.0,0.0,0.0,0.0,0.0,0.0,0.0,0.0,0.0,0.0,0.0,0.0,0.0,0.0,0.0,0.0,0.0,0.0,0.0,0.0,0.0,0.0,0.0,0.0,0.0,0.0,0.0,0.0,0.0,0.0,0.0,0.0,0.0,0.0,0.0,0.0,0.0,0.0,0.0,0.0,0.0,0.0,0.0,0.0,0.0,0.0,0.0,0.0,0.0,0.0,0.0,0.0,0.0,0.0,0.0,1.5052,0.0,0.0,0.0,0.0,0.0,0.0,0.0,0.0,0.0,0.0,0.0,0.0,0.0,0.0,0.0,0.0,0.0,0.0,0.0,0.0,0.0,0.0,0.0,0.0,0.0,0.0,0.0,0.0,0.0,0.0,0.0,0.0,0.0,0.0,0.0,0.0,0.0,0.0,0.0,0.0,0.0,0.0,0.0,0.0,0.0,0.0,0.0,0.0,0.0,0.0,0.0,0.0,0.0,0.0,0.0,0.0,0.0,0.0,0.0,0.0,0.0,0.0,0.0,0.0,0.0,0.0,0.0,0.0,0.0,0.0,0.0,0.0,0.0,0.0,0.0,0.0,0.0,0.0,0.0,0.0,0.0,0.0,0.0,0.0,0.0,0.0,0.0,0.0,0.0,0.0,0.0,0.0,0.0,0.0,0.0,0.0,0.0,0.0,0.0,0.0,0.0,0.0,0.0,0.0,0.0,0.0,0.0,0.0,0.0,0.0,1.6044,1.5899,1.579,1.5523,1.5125,0.0,0.0,0.0,0.0,0.0,0.0,0.0,0.0,0.0,0.0,0.0,0.0,0.0,0.0,0.0,0.0,0.0,0.0,0.0,0.0,0.0,0.0,0.0,0.0,0.0,0.0,0.0,0.0,0.0,0.0,0.0,0.0,0.0,0.0,0.0,0.0,0.0,0.0,0.0,0.0,0.0,0.0,0.0,0.0,0.0,0.0,0.0,0.0,0.0,0.0,0.0,0.0,0.0,0.0,0.0,0.0,0.0,0.0,0.0,0.0,0.0,0.0,0.0,0.0,0.0,0.0,0.0,0.0,0.0,0.0,0.0,0.0,0.0,0.0,0.0,0.0,0.0,0.0,0.0,0.0,0.0,0.0,0.0,0.0,0.0,0.0,0.0,0.0,0.0,0.0,0.0,0.0,0.0,0.0,0.0,0.0,0.0,0.0,0.0,0.0,0.0,0.0,0.0,0.0,0.0,0.0,0.0,0.0,0.0,0.0,0.0,0.0,1.5995,1.5704,1.5112,0.0,0.0,0.0,0.0,0.0,0.0,0.0,0.0,0.0,0.0,0.0,0.0,0.0,0.0,0.0,0.0,0.0,0.0,0.0,0.0,0.0,0.0,0.0,0.0,0.0,0.0,0.0,0.0,0.0,0.0,0.0,0.0,0.0,0.0,0.0,0.0,0.0,0.0,0.0,0.0,0.0,0.0,0.0,0.0,0.0,0.0,0.0,0.0,0.0,0.0,0.0,0.0,0.0,0.0,0.0,0.0,0.0,0.0,0.0,0.0,0.0,0.0,0.0,0.0,0.0,0.0,0.0,0.0,0.0,0.0,0.0,0.0,0.0,0.0,0.0,0.0,0.0,0.0,0.0,0.0,0.0,0.0,0.0,0.0,0.0,0.0,0.0,0.0,0.0,0.0,0.0,0.0,0.0,0.0,0.0,0.0,0.0,0.0,0.0,0.0,0.0,0.0,0.0,0.0,0.0,0.0,0.0,0.0,0.0,0.0,1.6288,1.6275,1.6247,0.0,1.5136,0.0,0.0,0.0,0.0,0.0,0.0,0.0,0.0,0.0,0.0,0.0,0.0,0.0,0.0,0.0,0.0,0.0,0.0,0.0,0.0,0.0,0.0,0.0,0.0,0.0,0.0,0.0,0.0,0.0,0.0,0.0,0.0,0.0,0.0,0.0,0.0,0.0,0.0,0.0,0.0,0.0,0.0,0.0,0.0,0.0,0.0,0.0,0.0,0.0,0.0,0.0,0.0,0.0,0.0,0.0,0.0,0.0,0.0,0.0,0.0,0.0,0.0,0.0,0.0,0.0,0.0,0.0,0.0,0.0,0.0,0.0,0.0,0.0,0.0,0.0,0.0,0.0,0.0,0.0,0.0,0.0,0.0,0.0,0.0,0.0,0.0,0.0,0.0,0.0,0.0,0.0,0.0,0.0,0.0,0.0,0.0,0.0,0.0,0.0,0.0,0.0,0.0,0.0,0.0,0.0,0.0,0.0,0.0,0.0,0.0,1.662,1.6297,1.585,1.5426,0.0,0.0,0.0,0.0,0.0,0.0,0.0,0.0,0.0,0.0,0.0,0.0,0.0,0.0,0.0,0.0,0.0,0.0,0.0,0.0,0.0,0.0,0.0,0.0,0.0,0.0,0.0,0.0,0.0,0.0,0.0,0.0,0.0,0.0,0.0,0.0,0.0,0.0,0.0,0.0,0.0,0.0,0.0,0.0,0.0,0.0,0.0,0.0,0.0,0.0,0.0,0.0,0.0,0.0,0.0,0.0,0.0,0.0,0.0,0.0,0.0,0.0,0.0,0.0,0.0,0.0,0.0,0.0,0.0,0.0,0.0,0.0,0.0,0.0,0.0,0.0,0.0,0.0,0.0,0.0,0.0,0.0,0.0,0.0,0.0,0.0,0.0,0.0,0.0,0.0,0.0,0.0,0.0,0.0,0.0,0.0,0.0,0.0,0.0,0.0,0.0,0.0,0.0,0.0,0.0,0.0,0.0,0.0,0.0,0.0,1.6836,0.0,1.619,1.5475,1.504,1.4883,0.0,0.0,0.0,0.0,0.0,0.0,0.0,0.0,0.0,0.0,0.0,0.0,0.0,0.0,0.0,0.0,0.0,0.0,0.0,0.0,0.0,0.0,0.0,0.0,0.0,0.0,0.0,0.0,0.0,0.0,0.0,0.0,0.0,0.0,0.0,0.0,0.0,0.0,0.0,0.0,0.0,0.0,0.0,0.0,0.0,0.0,0.0,0.0,0.0,0.0,0.0,0.0,0.0,0.0,0.0,0.0,0.0,0.0,0.0,0.0,0.0,0.0,0.0,0.0,0.0,0.0,0.0,0.0,0.0,0.0,0.0,0.0,0.0,0.0,0.0,0.0,0.0,0.0,0.0,0.0,0.0,0.0,0.0,0.0,0.0,0.0,0.0,0.0,0.0,0.0,0.0,0.0,0.0,0.0,0.0,0.0,0.0,0.0,0.0,0.0,0.0,0.0,0.0,0.0,0.0,0.0,0.0,0.0,0.0,1.6448,1.6216,1.5936,1.539,1.4859,0.0,0.0,0.0,0.0,0.0,0.0,0.0,0.0,0.0,0.0,0.0,0.0,0.0,0.0,0.0,0.0,0.0,0.0,0.0,0.0,0.0,0.0,0.0,0.0,0.0,0.0,0.0,0.0,0.0,0.0,0.0,0.0,0.0,0.0,0.0,0.0,0.0,0.0,0.0,0.0,0.0,0.0,0.0,0.0,0.0,0.0,0.0,0.0,0.0,0.0,0.0,0.0,0.0,0.0,0.0,0.0,0.0,0.0,0.0,0.0,0.0,0.0,0.0,0.0,0.0,0.0,0.0,0.0,0.0,0.0,0.0,0.0,0.0,0.0,0.0,0.0,0.0,0.0,0.0,0.0,0.0,0.0,0.0,0.0,0.0,0.0,0.0,0.0,0.0,0.0,0.0,0.0,0.0,0.0,0.0,0.0,0.0,0.0,0.0,0.0,0.0,0.0,0.0,0.0,0.0,0.0,0.0,0.0,0.0,1.5934,1.5816,1.5754,1.562,1.5125,1.4654,0.0,0.0,0.0,0.0,0.0,0.0,0.0,0.0,0.0,0.0,0.0,0.0,0.0,0.0,0.0,0.0,0.0,0.0,0.0,0.0,0.0,0.0,0.0,0.0,0.0,0.0,0.0,0.0,0.0,0.0,0.0,0.0,0.0,0.0,0.0,0.0,0.0,0.0,0.0,0.0,0.0,0.0,0.0,0.0,0.0,0.0,0.0,0.0,0.0,0.0,0.0,0.0,0.0,0.0,0.0,0.0,0.0,0.0,0.0,0.0,0.0,0.0,0.0,0.0,0.0,0.0,0.0,0.0,0.0,0.0,0.0,0.0,0.0,0.0,0.0,0.0,0.0,0.0,0.0,0.0,0.0,0.0,0.0,0.0,0.0,0.0,0.0,0.0,0.0,0.0,0.0,0.0,0.0,0.0,0.0,0.0,0.0,0.0,0.0,0.0,0.0,0.0,0.0,0.0,0.0,0.0,0.0,0.0,0.0,1.5766,0.0,1.573,0.0,1.5209,1.475,0.0,0.0,0.0,0.0,0.0,0.0,0.0,0.0,0.0,0.0,0.0,0.0,0.0,0.0,0.0,0.0,0.0,0.0,0.0,0.0,0.0,0.0,0.0,0.0,0.0,0.0,0.0,0.0,0.0,0.0,0.0,0.0,0.0,0.0,0.0,0.0,0.0,0.0,0.0,0.0,0.0,0.0,0.0,0.0,0.0,0.0,0.0,0.0,0.0,0.0,0.0,0.0,0.0,0.0,0.0,0.0,0.0,0.0,0.0,0.0,0.0,0.0,0.0,0.0,0.0,0.0,0.0,0.0,0.0,0.0,0.0,0.0,0.0,0.0,0.0,0.0,0.0,0.0,0.0,0.0,0.0,0.0,0.0,0.0,0.0,0.0,0.0,0.0,0.0,0.0,0.0,0.0,0.0,0.0,0.0,0.0,0.0,0.0,0.0,0.0,0.0,0.0,0.0,0.0,0.0,0.0,0.0,0.0,1.6006,1.6275,1.6261,1.6128,1.5911,1.5633,1.5113,0.0,0.0,0.0,0.0,0.0,0.0,0.0,0.0,0.0,0.0,0.0,0.0,0.0,0.0,0.0,0.0,0.0,0.0,0.0,0.0,0.0,0.0,0.0,0.0,0.0,0.0,0.0,0.0,0.0,0.0,0.0,0.0,0.0,0.0,0.0,0.0,0.0,0.0,0.0,0.0,0.0,0.0,0.0,0.0,0.0,0.0,0.0,0.0,0.0,0.0,0.0,0.0,0.0,0.0,0.0,0.0,0.0,0.0,0.0,0.0,0.0,0.0,0.0,0.0,0.0,0.0,0.0,0.0,0.0,0.0,0.0,0.0,0.0,0.0,0.0,0.0,0.0,0.0,0.0,0.0,0.0,0.0,0.0,0.0,0.0,0.0,0.0,0.0,0.0,0.0,0.0,0.0,0.0,0.0,0.0,0.0,0.0,0.0,0.0,0.0,0.0,0.0,0.0,0.0,0.0,0.0,0.0,0.0,0.0,1.5766,1.5935,1.5983,1.5899,1.5632,1.5197,0.0,0.0,0.0,0.0,0.0,0.0,0.0,0.0,0.0,0.0,0.0,0.0,0.0,0.0,0.0,0.0,0.0,0.0,0.0,0.0,0.0,0.0,0.0,0.0,0.0,0.0,0.0,0.0,0.0,0.0,0.0,0.0,0.0,0.0,0.0,0.0,0.0,0.0,0.0,0.0,0.0,0.0,0.0,0.0,0.0,0.0,0.0,0.0,0.0,0.0,0.0,0.0,0.0,0.0,0.0,0.0,0.0,0.0,0.0,0.0,0.0,0.0,0.0,0.0,0.0,0.0,0.0,0.0,0.0,0.0,0.0,0.0,0.0,0.0,0.0,0.0,0.0,0.0,0.0,0.0,0.0,0.0,0.0,0.0,0.0,0.0,0.0,0.0,0.0,0.0,0.0,0.0,0.0,0.0,0.0,0.0,0.0,0.0,0.0,0.0,0.0,0.0,0.0,0.0,0.0,0.0,0.0,0.0,0.0,1.6525,1.6706,1.6779,1.6807,1.6346,1.5849,1.5305,0.0,0.0,0.0,0.0,0.0,0.0,0.0,0.0,0.0,0.0,0.0,0.0,0.0,0.0,0.0,0.0,0.0,0.0,0.0,0.0,0.0,0.0,0.0,0.0,0.0,0.0,0.0,0.0,0.0,0.0,0.0,0.0,0.0,0.0,0.0,0.0,0.0,0.0,0.0,0.0,0.0,0.0,0.0,0.0,0.0,0.0,0.0,0.0,0.0,0.0,0.0,0.0,0.0,0.0,0.0,0.0,0.0,0.0,0.0,0.0,0.0,0.0,0.0,0.0,0.0,0.0,0.0,0.0,0.0,0.0,0.0,0.0,0.0,0.0,0.0,0.0,0.0,0.0,0.0,0.0,0.0,0.0,0.0,0.0,0.0,0.0,0.0,0.0,0.0,0.0,0.0,0.0,0.0,0.0,0.0,0.0,0.0,0.0,0.0,0.0,0.0,0.0,0.0,0.0,0.0,0.0,0.0,0.0,1.836,1.8472,1.846,1.8336,1.7602,1.6911,0.0,0.0,0.0,0.0,0.0,0.0,0.0,0.0,0.0,0.0,0.0,0.0,0.0,0.0,0.0,0.0,0.0,0.0,0.0,0.0,0.0,0.0,0.0,0.0,0.0,0.0,0.0,0.0,0.0,0.0,0.0,0.0,0.0,0.0,0.0,0.0,0.0,0.0,0.0,0.0,0.0,0.0,0.0,0.0,0.0,0.0,0.0,0.0,0.0,0.0,0.0,0.0,0.0,0.0,0.0,0.0,0.0,0.0,0.0,0.0,0.0,0.0,0.0,0.0,0.0,0.0,0.0,0.0,0.0,0.0,0.0,0.0,0.0,0.0,0.0,0.0,0.0,0.0,0.0,0.0,0.0,0.0,0.0,0.0,0.0,0.0,0.0,0.0,0.0,0.0,0.0,0.0,0.0,0.0,0.0,0.0,0.0,0.0,0.0,0.0,0.0,0.0,0.0,0.0,0.0,0.0,0.0,0.0,0.0,1.9463,2.0441,2.0398,1.9221,1.8593,1.7844,0.0,0.0,0.0,0.0,0.0,0.0,0.0,0.0,0.0,0.0,0.0,0.0,0.0,0.0,0.0,0.0,0.0,0.0,0.0,0.0,0.0,0.0,0.0,0.0,0.0,0.0,0.0,0.0,0.0,0.0,0.0,0.0,0.0,0.0,0.0,0.0,0.0,0.0,0.0,0.0,0.0,0.0,0.0,0.0,0.0,0.0,0.0,0.0,0.0,0.0,0.0,0.0,0.0,0.0,0.0,0.0,0.0,0.0,0.0,0.0,0.0,0.0,0.0,0.0,0.0,0.0,0.0,0.0,0.0,0.0,0.0,0.0,0.0,0.0,0.0,0.0,0.0,0.0,0.0,0.0,0.0,0.0,0.0,0.0,0.0,0.0,0.0,0.0,0.0,0.0,0.0,0.0,0.0,0.0,0.0,0.0,0.0,0.0,0.0,0.0,0.0,0.0,0.0,0.0,0.0,0.0,0.0,0.0,1.9024,2.0212,2.1655,2.1849,2.07,1.9716,1.8702,0.0,0.0,0.0,0.0,0.0,0.0,0.0,0.0,0.0,0.0,0.0,0.0,0.0,0.0,0.0,0.0,0.0,0.0,0.0,0.0,0.0,0.0,0.0,0.0,0.0,0.0,0.0,0.0,0.0,0.0,0.0,0.0,0.0,0.0,0.0,0.0,0.0,0.0,0.0,0.0,0.0,0.0,0.0,0.0,0.0,0.0,0.0,0.0,0.0,0.0,0.0,0.0,0.0,0.0,0.0,0.0,0.0,0.0,0.0,0.0,0.0,0.0,0.0,0.0,0.0,0.0,0.0,0.0,0.0,0.0,0.0,0.0,0.0,0.0,0.0,0.0,0.0,0.0,0.0,0.0,0.0,0.0,0.0,0.0,0.0,0.0,0.0,0.0,0.0,0.0,0.0,0.0,0.0,0.0,0.0,0.0,0.0,0.0,0.0,0.0,0.0,0.0,0.0,0.0,0.0,0.0,0.0,0.0,1.9499,2.0809,2.2357,2.2901,2.232,2.0845,1.9511,0.0,0.0,0.0,0.0,0.0,0.0,0.0,0.0,0.0,0.0,0.0,0.0,0.0,0.0,0.0,0.0,0.0,0.0,0.0,0.0,0.0,0.0,0.0,0.0,0.0,0.0,0.0,0.0,0.0,0.0,0.0,0.0,0.0,0.0,0.0,0.0,0.0,0.0,0.0,0.0,0.0,0.0,0.0,0.0,0.0,0.0,0.0,0.0,0.0,0.0,0.0,0.0,0.0,0.0,0.0,0.0,0.0,0.0,0.0,0.0,0.0,0.0,0.0,0.0,0.0,0.0,0.0,0.0,0.0,0.0,0.0,0.0,0.0,0.0,0.0,0.0,0.0,0.0,0.0,0.0,0.0,0.0,0.0,0.0,0.0,0.0,0.0,0.0,0.0,0.0,0.0,0.0,0.0,0.0,0.0,0.0,0.0,0.0,0.0,0.0,0.0,0.0,0.0,0.0,0.0,0.0,0.0,0.0,2.0502,2.1643,2.2959,2.3321,2.2623,2.1462,2.0241,0.0,0.0,0.0,0.0,0.0,0.0,0.0,0.0,0.0,0.0,0.0,0.0,0.0,0.0,0.0,0.0,0.0,0.0,0.0,0.0,0.0,0.0,0.0,0.0,0.0,0.0,0.0,0.0,0.0,0.0,0.0,0.0,0.0,0.0,0.0,0.0,0.0,0.0,0.0,0.0,0.0,0.0,0.0,0.0,0.0,0.0,0.0,0.0,1.5934,0.0,0.0,0.0,0.0,0.0,0.0,0.0,0.0,0.0,0.0,0.0,0.0,0.0,0.0,0.0,0.0,0.0,0.0,0.0,0.0,0.0,0.0,0.0,0.0,0.0,0.0,0.0,0.0,0.0,0.0,0.0,0.0,0.0,0.0,0.0,0.0,0.0,0.0,0.0,0.0,0.0,0.0,0.0,0.0,0.0,0.0,0.0,0.0,0.0,0.0,0.0,0.0,0.0,0.0,0.0,0.0,0.0,0.0,0.0,2.1251,2.2091,2.3326,2.3668,2.3031,2.2151,2.0918,0.0,0.0,0.0,0.0,0.0,0.0,0.0,0.0,0.0,0.0,0.0,0.0,0.0,0.0,0.0,0.0,0.0,0.0,0.0,0.0,0.0,0.0,0.0,0.0,0.0,0.0,0.0,0.0,0.0,0.0,0.0,0.0,0.0,0.0,0.0,0.0,0.0,0.0,0.0,0.0,0.0,0.0,0.0,0.0,0.0,0.0,0.0,0.0,0.0,0.0,0.0,0.0,0.0,0.0,0.0,0.0,0.0,0.0,0.0,0.0,0.0,0.0,0.0,0.0,0.0,0.0,0.0,0.0,0.0,0.0,0.0,0.0,0.0,0.0,0.0,0.0,0.0,0.0,0.0,0.0,0.0,0.0,0.0,0.0,0.0,0.0,0.0,0.0,0.0,0.0,0.0,0.0,0.0,0.0,0.0,0.0,0.0,0.0,0.0,0.0,0.0,0.0,0.0,0.0,0.0,0.0,0.0,2.0671,2.1879,2.2429,2.3599,2.3921,2.3354,2.264,2.1401,1.962,0.0,0.0,0.0,0.0,0.0,0.0,0.0,0.0,0.0,0.0,0.0,0.0,0.0,0.0,0.0,0.0,0.0,0.0,0.0,0.0,0.0,0.0,0.0,0.0,0.0,0.0,0.0,0.0,0.0,0.0,0.0,0.0,0.0,0.0,0.0,0.0,0.0,0.0,1.6004,1.673,0.0,0.0,0.0,0.0,0.0,0.0,0.0,0.0,1.7434,0.0,0.0,0.0,0.0,0.0,0.0,0.0,0.0,0.0,0.0,0.0,0.0,0.0,0.0,0.0,0.0,0.0,0.0,0.0,0.0,0.0,0.0,0.0,0.0,0.0,0.0,0.0,0.0,0.0,0.0,0.0,0.0,0.0,0.0,0.0,0.0,0.0,0.0,0.0,0.0,0.0,0.0,0.0,0.0,0.0,0.0,0.0,0.0,0.0,0.0,0.0,0.0,0.0,0.0,0.0,0.0,1.9342,2.122,2.2429,2.2968,2.378,2.3856,2.3167,2.2381,2.1305,1.9885,0.0,0.0,0.0,0.0,0.0,0.0,0.0,0.0,0.0,0.0,0.0,0.0,0.0,0.0,0.0,0.0,0.0,0.0,0.0,0.0,0.0,0.0,0.0,0.0,0.0,0.0,0.0,0.0,0.0,0.0,0.0,0.0,0.0,0.0,0.0,0.0,0.0,0.0,0.0,1.6983,1.7163,0.0,0.0,0.0,0.0,0.0,0.0,0.0,0.0,1.7328,0.0,0.0,0.0,0.0,0.0,0.0,0.0,0.0,0.0,0.0,0.0,0.0,0.0,0.0,0.0,0.0,0.0,0.0,0.0,0.0,0.0,0.0,0.0,0.0,0.0,0.0,0.0,0.0,0.0,0.0,0.0,0.0,0.0,0.0,0.0,0.0,0.0,0.0,0.0,0.0,0.0,0.0,0.0,0.0,0.0,0.0,0.0,0.0,0.0,0.0,0.0,0.0,0.0,0.0,0.0,1.9943,2.1994,2.314,2.3285,2.4158,2.4142,2.3138,2.2339,2.122,0.0,0.0,0.0,0.0,0.0,0.0,0.0,0.0,0.0,0.0,0.0,0.0,0.0,0.0,0.0,0.0,0.0,0.0,0.0,0.0,0.0,0.0,0.0,0.0,0.0,0.0,0.0,0.0,0.0,0.0,0.0,0.0,0.0,0.0,0.0,0.0,0.0,0.0,0.0,0.0,1.7863,1.8272,1.7512,0.0,0.0,0.0,0.0,0.0,0.0,1.8143,1.7809,0.0,0.0,0.0,0.0,0.0,0.0,0.0,0.0,0.0,0.0,0.0,0.0,0.0,0.0,0.0,0.0,0.0,0.0,0.0,0.0,0.0,0.0,0.0,0.0,0.0,0.0,0.0,0.0,0.0,0.0,0.0,0.0,0.0,0.0,0.0,0.0,0.0,0.0,0.0,0.0,0.0,0.0,0.0,0.0,0.0,0.0,0.0,0.0,0.0,0.0,0.0,0.0,0.0,0.0,0.0,2.0672,2.279,2.38,2.3692,2.4535,2.4411,2.3184,2.2326,2.1148,0.0,0.0,0.0,0.0,0.0,0.0,0.0,0.0,0.0,0.0,0.0,0.0,0.0,0.0,0.0,0.0,0.0,0.0,0.0,0.0,0.0,0.0,0.0,0.0,0.0,0.0,0.0,0.0,0.0,0.0,0.0,0.0,0.0,0.0,0.0,0.0,0.0,0.0,0.0,0.0,0.0,1.9307,1.8195,1.8405,0.0,0.0,0.0,0.0,1.8705,1.8718,0.0,0.0,0.0,0.0,0.0,0.0,0.0,0.0,0.0,0.0,0.0,0.0,0.0,0.0,0.0,0.0,0.0,0.0,0.0,0.0,0.0,0.0,0.0,0.0,0.0,0.0,0.0,0.0,0.0,0.0,0.0,0.0,0.0,0.0,0.0,0.0,0.0,0.0,0.0,0.0,0.0,0.0,0.0,0.0,0.0,0.0,0.0,0.0,0.0,0.0,0.0,0.0,0.0,0.0,0.0,0.0,2.1781,2.3356,2.4266,2.4471,2.4812,2.4487,2.339,2.2416,2.1148,0.0,0.0,0.0,0.0,0.0,0.0,0.0,0.0,0.0,0.0,0.0,0.0,0.0,0.0,0.0,0.0,0.0,0.0,0.0,0.0,0.0,0.0,0.0,0.0,0.0,0.0,0.0,0.0,0.0,0.0,0.0,0.0,0.0,0.0,0.0,0.0,0.0,0.0,0.0,0.0,0.0,1.946,1.9538,1.9412,1.9281,0.0,0.0,1.9574,1.9334,1.9494,0.0,0.0,0.0,0.0,0.0,0.0,0.0,0.0,0.0,0.0,0.0,0.0,0.0,0.0,0.0,0.0,0.0,0.0,0.0,0.0,0.0,0.0,0.0,0.0,0.0,0.0,0.0,0.0,0.0,0.0,0.0,0.0,0.0,0.0,0.0,0.0,0.0,0.0,0.0,0.0,0.0,0.0,0.0,0.0,0.0,0.0,0.0,0.0,0.0,0.0,0.0,0.0,0.0,0.0,0.0,2.0713,2.2413,2.427,2.5268,2.5413,2.5803,2.543,2.4226,2.3279,2.1889,0.0,0.0,0.0,0.0,0.0,0.0,0.0,0.0,0.0,0.0,0.0,0.0,0.0,0.0,0.0,0.0,0.0,0.0,0.0,0.0,0.0,0.0,0.0,0.0,0.0,0.0,0.0,0.0,0.0,0.0,0.0,0.0,0.0,0.0,0.0,0.0,0.0,0.0,0.0,0.0,0.0,0.0,1.9809,2.0003,0.0,0.0,0.0,2.0323,2.0363,0.0,0.0,0.0,0.0,0.0,0.0,0.0,0.0,0.0,0.0,0.0,0.0,0.0,0.0,0.0,0.0,0.0,0.0,0.0,0.0,0.0,0.0,0.0,0.0,0.0,0.0,0.0,0.0,0.0,0.0,0.0,0.0,0.0,0.0,0.0,0.0,0.0,0.0,0.0,0.0,0.0,0.0,0.0,0.0,0.0,0.0,0.0,0.0,0.0,0.0,0.0,0.0,0.0,0.0,0.0,0.0,0.0,2.3151,2.5257,2.6452,2.6711,2.7218,2.6897,2.5655,2.4772,0.0,0.0,0.0,0.0,0.0,0.0,0.0,0.0,0.0,0.0,0.0,0.0,0.0,0.0,0.0,0.0,0.0,0.0,0.0,0.0,0.0,0.0,0.0,0.0,0.0,0.0,0.0,1.2572,0.0,0.0,0.0,0.0,0.0,0.0,0.0,0.0,0.0,0.0,0.0,0.0,0.0,0.0,2.0407,2.0353,2.081,2.1029,0.0,0.0,2.1162,2.1296,2.1555,2.1368,0.0,0.0,0.0,0.0,0.0,0.0,0.0,0.0,0.0,0.0,0.0,0.0,0.0,0.0,0.0,0.0,0.0,0.0,0.0,0.0,0.0,0.0,0.0,0.0,0.0,0.0,0.0,0.0,0.0,0.0,0.0,0.0,0.0,0.0,0.0,0.0,0.0,0.0,0.0,0.0,0.0,0.0,0.0,0.0,0.0,0.0,0.0,0.0,0.0,0.0,0.0,0.0,0.0,0.0,0.0,2.4424,2.628,2.768,2.8575,2.907,2.8847,2.7906,2.7038,2.517,0.0,0.0,0.0,0.0,0.0,0.0,0.0,0.0,0.0,0.0,0.0,0.0,0.0,0.0,0.0,0.0,0.0,0.0,0.0,0.0,0.0,0.0,0.0,0.0,0.0,0.0,0.0,0.0,0.0,0.0,0.0,0.0,0.0,0.0,0.0,0.0,0.0,0.0,0.0,0.0,0.0,2.1234,2.1781,2.2108,2.2268,0.0,2.2268,2.2201,2.1981,2.1967,2.1579,2.0397,0.0,0.0,0.0,0.0,0.0,0.0,0.0,0.0,0.0,0.0,0.0,0.0,0.0,0.0,0.0,0.0,0.0,0.0,0.0,0.0,0.0,0.0,0.0,0.0,0.0,0.0,0.0,0.0,0.0,0.0,0.0,0.0,0.0,0.0,0.0,0.0,0.0,0.0,0.0,0.0,0.0,0.0,0.0,0.0,0.0,0.0,0.0,0.0,0.0,0.0,0.0,0.0,0.0,2.2371,2.5442,2.7723,2.9518,3.0786,3.1525,3.1518,3.0748,2.9978,2.8032,0.0,0.0,0.0,0.0,0.0,0.0,0.0,0.0,0.0,0.0,0.0,0.0,0.0,0.0,0.0,0.0,0.0,0.0,0.0,0.0,0.0,0.0,0.0,0.0,0.0,0.0,0.0,0.0,1.4414,1.4669,1.5148,0.0,0.0,0.0,0.0,0.0,0.0,0.0,0.0,0.0,0.0,2.1925,2.2678,2.3073,0.0,0.0,2.3389,2.342,2.3161,2.28,2.2208,2.1218,1.9826,0.0,0.0,0.0,0.0,0.0,0.0,0.0,0.0,0.0,0.0,0.0,0.0,0.0,0.0,0.0,0.0,0.0,0.0,0.0,0.0,0.0,0.0,0.0,0.0,0.0,0.0,0.0,0.0,0.0,0.0,0.0,0.0,0.0,0.0,0.0,0.0,0.0,0.0,0.0,0.0,0.0,0.0,0.0,0.0,0.0,0.0,0.0,0.0,0.0,0.0,0.0,0.0,2.327,2.6502,2.9482,3.164,3.2885,3.3893,3.403,3.335,3.2599,3.0658,0.0,0.0,0.0,0.0,0.0,0.0,0.0,0.0,0.0,0.0,0.0,0.0,0.0,0.0,0.0,0.0,0.0,0.0,0.0,0.0,0.0,0.0,0.0,0.0,0.0,0.0,0.0,0.0,1.5611,1.5498,1.5581,0.0,0.0,0.0,0.0,0.0,0.0,0.0,0.0,0.0,0.0,2.2405,2.3185,2.3728,2.4053,2.4035,2.4195,2.4209,2.3852,2.3295,2.2599,2.1746,0.0,0.0,0.0,0.0,0.0,0.0,0.0,0.0,0.0,0.0,0.0,0.0,0.0,0.0,0.0,0.0,0.0,0.0,0.0,0.0,0.0,0.0,0.0,0.0,0.0,0.0,0.0,1.7232,0.0,0.0,1.639,0.0,0.0,0.0,0.0,0.0,0.0,0.0,0.0,0.0,0.0,0.0,0.0,0.0,0.0,0.0,0.0,0.0,0.0,0.0,0.0,0.0,0.0,2.4467,2.7753,3.1551,3.3924,3.4747,3.5994,3.6231,3.5475,3.4725,3.2863,2.9674,0.0,0.0,0.0,0.0,0.0,0.0,0.0,0.0,0.0,0.0,0.0,0.0,0.0,0.0,0.0,0.0,0.0,0.0,0.0,0.0,0.0,0.0,0.0,0.0,0.0,0.0,1.7503,1.6791,1.615,0.0,0.0,0.0,0.0,0.0,0.0,0.0,0.0,0.0,0.0,2.1467,2.2598,2.3225,2.4026,2.4591,2.4604,2.4586,2.4417,2.3892,2.3281,2.2599,0.0,0.0,0.0,0.0,0.0,0.0,0.0,0.0,0.0,0.0,0.0,0.0,0.0,0.0,0.0,0.0,0.0,0.0,0.0,0.0,0.0,0.0,0.0,0.0,0.0,0.0,0.0,1.9673,1.9516,0.0,0.0,0.0,0.0,0.0,0.0,0.0,0.0,0.0,0.0,0.0,2.7401,2.7672,0.0,0.0,0.0,0.0,0.0,0.0,0.0,0.0,0.0,0.0,0.0,0.0,2.5468,2.8997,3.3187,3.5862,3.6931,3.7862,3.8108,3.7568,3.6799,3.4258,2.9714,0.0,0.0,0.0,0.0,0.0,0.0,0.0,0.0,0.0,0.0,0.0,0.0,0.0,0.0,0.0,0.0,0.0,0.0,0.0,0.0,0.0,0.0,0.0,0.0,0.0,1.8902,0.0,0.0,0.0,0.0,0.0,0.0,0.0,0.0,0.0,0.0,0.0,1.9613,2.0653,2.1721,2.2762,2.375,2.4471,2.4997,0.0,0.0,0.0,0.0,0.0,0.0,0.0,0.0,0.0,0.0,0.0,0.0,0.0,0.0,2.348,2.2842,2.2451,2.2348,2.2768,0.0,0.0,0.0,0.0,0.0,0.0,0.0,0.0,0.0,0.0,0.0,0.0,0.0,0.0,2.2957,2.2616,2.1187,0.0,0.0,0.0,0.0,0.0,0.0,0.0,0.0,2.918,3.0562,3.1288,3.1553,3.1764,0.0,3.2261,3.0319,0.0,0.0,0.0,0.0,0.0,0.0,0.0,0.0,2.6939,3.0392,3.4769,3.7424,3.8179,3.8991,3.9245,3.8801,3.7514,3.4775,3.05,2.7646,2.5139,0.0,0.0,0.0,0.0,0.0,0.0,0.0,0.0,0.0,0.0,0.0,0.0,0.0,0.0,0.0,0.0,0.0,0.0,0.0,0.0,0.0,0.0,0.0,2.0325,0.0,0.0,0.0,0.0,0.0,0.0,0.0,0.0,0.0,1.9195,1.9928,2.0898,2.1665,2.2405,2.3247,2.4204,0.0,0.0,0.0,0.0,0.0,0.0,0.0,2.2819,2.2989,2.2879,2.3072,2.4097,2.4916,2.5581,2.5987,0.0,0.0,2.5332,2.4744,2.4615,2.5025,2.4657,2.4274,2.4274,2.4291,2.4222,0.0,0.0,0.0,0.0,0.0,0.0,0.0,0.0,2.7837,2.7166,0.0,2.4611,0.0,0.0,0.0,0.0,2.1695,2.4395,0.0,0.0,3.3046,3.4844,3.5559,3.5559,3.5834,3.6182,3.576,3.483,3.3162,2.8639,0.0,0.0,0.0,0.0,0.0,0.0,2.8808,3.189,3.6314,3.8628,3.8676,3.9467,3.9671,3.9131,3.6956,3.4648,3.224,3.0146,2.7683,2.4847,2.4156,0.0,0.0,0.0,0.0,0.0,0.0,0.0,0.0,0.0,0.0,0.0,0.0,0.0,0.0,0.0,0.0,0.0,0.0,0.0,0.0,2.3186,0.0,0.0,0.0,0.0,0.0,0.0,0.0,0.0,0.0,0.0,2.1467,2.175,2.2398,2.2987,0.0,0.0,0.0,0.0,2.5512,2.5545,2.5525,2.5438,2.5163,2.4609,2.4253,2.4294,0.0,0.0,2.6434,2.6897,2.7326,2.7899,2.8247,2.8179,2.7276,2.7013,2.6954,2.6954,2.6676,2.6512,2.6515,2.6383,2.6512,3.4242,0.0,0.0,0.0,0.0,3.0226,3.0988,3.1744,3.1315,3.0852,3.0285,2.8475,0.0,0.0,0.0,0.0,0.0,0.0,2.9547,3.2123,3.4559,3.5962,3.6457,3.6769,3.6933,3.7043,3.6952,3.625,3.499,3.2861,2.9743,2.5729,0.0,0.0,0.0,0.0,3.0562,3.3496,3.742,3.947,3.9524,3.9756,3.956,3.8783,3.7551,3.6306,3.503,3.3151,3.1061,2.8814,2.728,0.0,0.0,0.0,0.0,0.0,0.0,0.0,0.0,0.0,0.0,0.0,0.0,0.0,0.0,0.0,0.0,0.0,0.0,0.0,2.4556,2.4568,2.3796,0.0,0.0,0.0,0.0,0.0,0.0,0.0,0.0,0.0,2.6649,2.5068,2.4108,0.0,0.0,2.4578,2.5165,2.5585,2.5925,2.6106,2.6152,0.0,2.5797,2.5384,2.5391,2.6147,2.7412,2.852,2.9048,2.9445,2.9774,2.9928,2.9915,2.9725,2.9452,2.8622,2.7974,2.7692,2.7561,2.7448,2.7261,2.7345,2.7531,3.8516,3.4638,3.3962,3.3798,3.403,3.4664,3.5454,3.6271,3.5897,3.5379,3.4721,3.2758,3.0911,2.9158,2.7221,0.0,0.0,0.0,3.2454,3.4605,3.6691,3.7901,3.8268,3.8351,3.8383,3.8384,3.8198,3.7698,3.6829,3.5862,3.384,3.0671,0.0,0.0,2.8119,3.013,3.231,3.4755,3.8071,3.9813,3.9893,3.9893,3.9505,3.8618,3.7978,3.7263,3.6457,3.503,3.3376,3.1425,2.9754,2.8044,0.0,0.0,0.0,0.0,0.0,0.0,0.0,0.0,0.0,0.0,0.0,2.117,2.1415,0.0,0.0,0.0,2.3903,2.5159,2.5809,2.6381,0.0,0.0,0.0,0.0,0.0,0.0,0.0,2.7221,2.9131,3.0371,3.0361,2.8899,2.7463,2.6507,2.5945,2.5789,2.625,0.0,2.6419,2.6714,2.6754,2.6687,2.6546,2.6319,2.661,2.7703,2.8879,2.9854,3.0357,3.0665,3.0776,3.0782,3.0671,3.0516,3.0419,2.9623,2.8881,2.8559,2.8384,2.8237,2.8085,2.8183,2.834,4.1502,4.0723,3.9179,3.8696,3.8985,3.9391,4.022,4.123,4.082,4.0181,3.9203,3.7119,3.5216,3.3402,3.0736,0.0,3.1513,3.3728,3.5581,3.7231,3.907,4.013,4.0421,4.0056,3.9875,3.9817,3.9373,3.8966,3.8563,3.7757,3.7025,3.6182,3.1833,3.008,3.103,3.2502,3.4109,3.588,3.8498,3.9889,3.9893,3.9854,3.9448,3.8618,3.8253,3.7685,3.6878,3.6145,3.4883,3.3107,3.1724,3.0098,2.8193,0.0,0.0,0.0,0.0,0.0,0.0,0.0,0.0,0.0,0.0,0.0,0.0,0.0,0.0,0.0,2.5433,0.0,2.7353,2.8476,0.0,0.0,0.0,2.6313,2.6982,2.7818,2.8957,3.049,0.0,0.0,3.2877,3.2694,3.1679,2.9353,2.8095,2.7496,2.7631,2.723,2.7028,2.7349,2.7395,2.7409,2.7376,2.7417,2.786,2.8902,2.9551,3.0128,3.0736,3.0913,3.0899,3.0913,3.0905,3.0832,3.0545,3.0273,2.9921,2.9559,2.9149,2.889,2.8827,2.8876,2.8993,4.3122,4.2924,4.2515,4.152,4.0241,4.0938,4.1562,4.2089,4.1992,4.1462,4.0605,3.9817,3.8085,3.5613,3.3446,3.3103,3.4314,3.5781,3.6965,3.787,3.9563,4.0228,4.0034,3.9952,3.9726,3.9373,3.895,3.8692,3.8563,3.7794,3.73,3.7043,3.5648,3.4776,3.4449,3.5085,3.6106,3.7441,3.9351,4.0203,3.9911,3.9558,3.9095,3.8618,3.8508,3.8087,3.7281,3.7098,3.6346,3.4992,3.3453,3.1714,2.9748,2.7626,0.0,0.0,0.0,0.0,0.0,0.0,0.0,0.0,0.0,2.3175,2.3964,0.0,2.4536,0.0,2.6833,2.8271,2.8968,3.0109,0.0,0.0,2.9125,2.8964,2.913,2.9883,3.0863,3.2023,3.3228,3.4081,3.4396,3.4155,3.367,3.2923,3.0892,2.9389,2.9069,2.8371,2.7884,2.7978,2.8305,2.8444,2.8142,2.8563,2.9147,2.9698,3.0394,3.1071,3.1484,3.1563,3.1542,3.1542,3.1563,3.1534,3.1446,3.1204,3.0846,3.0475,2.9647,2.8886,2.892,2.911,2.9315,4.3691,4.3691,4.3691,4.3042,4.2025,4.2459,4.2793,4.2968,4.2968,4.2628,4.197,4.1587,4.0465,3.8819,3.7701,3.7528,3.8181,3.8869,3.9367,3.9748,4.0603,4.0901,4.0694,4.0527,4.0091,3.9522,3.9078,3.8673,3.8325,3.807,3.7922,3.794,3.7886,3.774,3.7522,3.7173,3.741,3.8272,3.9722,4.0295,3.993,3.965,3.9226,3.8637,3.8417,3.7959,3.7172,3.6952,3.6475,3.5614,3.4074,3.2534,3.1047,2.8718,2.6554,0.0,0.0,0.0,0.0,0.0,0.0,0.0,0.0,0.0,0.0,0.0,2.6691,2.7088,2.8535,2.9816,3.0605,3.1926,3.2519,3.1968,3.1911,3.1887,3.1905,3.2284,3.2875,3.3649,3.4444,3.501,3.523,3.5575,3.5595,3.5087,3.3265,3.1492,3.0252,2.9167,2.8389,2.8248,2.873,2.9125,2.8971,2.9432,2.9866,3.0085,3.0633,3.1177,3.152,3.1578,3.1622,3.1768,3.1798,3.1798,3.1783,3.1513,3.122,3.0957,3.0232,2.9579,2.9374,2.9511,2.9637,4.3846,4.3867,4.3867,4.3827,4.3789,4.3789,4.3749,4.3691,4.3691,4.3504,4.3154,4.2627,4.2222,4.1879,4.1722,4.1644,4.1623,4.1584,4.157,4.1564,4.1603,4.16,4.1516,4.1234,4.068,3.9891,3.9373,3.8766,3.8088,3.838,3.8582,3.8692,3.9058,3.9483,3.9817,3.8823,3.851,3.8911,3.9981,4.0331,3.9985,3.9854,3.943,3.8637,3.8162,3.7538,3.6769,3.6402,3.5999,3.5504,3.4092,3.29,3.2019,2.9819,2.7852,0.0,2.5585,0.0,0.0,0.0,0.0,0.0,0.0,0.0,0.0,2.87,2.8898,2.9339,3.0384,3.1359,3.2166,3.3671,3.4458,3.4019,3.4367,3.4587,3.4495,3.4459,3.4624,3.5046,3.5376,3.565,3.5889,3.6831,3.716,3.6371,3.5142,3.3561,3.1583,2.9844,2.8676,2.8368,2.8915,2.942,2.9725,3.0028,3.0172,3.0264,3.0635,3.098,3.1432,3.1454,3.1563,3.1856,3.1973,3.1959,3.1929,3.171,3.152,3.144,3.1014,3.0522,3.0068,2.995,3.0068,4.4764,4.4743,4.4744,4.4569,4.4277,4.4258,4.4043,4.3711,4.3691,4.3649,4.3527,4.275,4.2366,4.2202,4.1186,4.0759,4.072,4.0403,4.0253,4.0269,4.0916,4.1043,4.0768,4.0998,4.068,3.9893,3.9098,3.8637,3.8472,3.8235,3.8455,3.9096,3.954,3.9799,3.9832,0.0,0.0,0.0,4.0531,4.0478,4.0368,3.9685,3.9096,3.86,3.7886,0.0,3.6347,3.6219,3.5852,3.5119,3.4202,0.0,0.0,0.0,0.0,0.0,0.0,0.0,0.0,0.0,0.0,0.0,3.1655,3.149,3.0458,3.0348,3.0644,3.1359,3.1928,3.2588,3.3413,3.4917,3.5559,3.4899,3.5412,3.5614,3.4973,3.4881,3.5046,3.5431,3.5559,3.5999,3.698,3.739,3.7555,3.7566,3.6534,3.5162,3.3687,3.0865,2.902,2.9202,2.9397,2.9572,2.9859,3.0092,3.0313,3.0508,3.091,3.1375,3.1922,3.2046,3.2214,3.2493,3.261,3.258,3.258,3.2566,3.239,3.2149,3.1995,3.1599,3.0551,3.0302,3.0337,4.5018,4.5018,4.5018,4.4764,0.0,4.4394,4.4141,4.3691,4.3691,4.3691,4.3671,4.323,4.2939,4.2675,4.1638,4.1035,4.0821,4.0142,3.9964,4.0221,4.0832,4.1096,4.1116,4.1546,4.1325,4.0525,3.9668,3.9141,3.8937,3.872,3.8913,3.9558,3.9983,4.0274,4.0437,4.0678,4.0901,4.1102,4.088,4.0696,4.0497,3.987,3.9336,3.8893,3.7922,0.0,0.0,0.0,0.0,0.0,0.0,0.0,0.0,0.0,0.0,2.9357,2.9265,2.9357,2.9595,3.0516,3.1598,3.2791,3.3818,3.3928,3.2938,3.2881,3.3121,3.3726,3.4129,3.4623,3.5247,3.62,3.6622,3.6255,3.6384,3.6383,3.62,3.5999,3.6054,3.6458,3.6681,3.709,3.7726,3.8368,3.8632,3.8603,3.7908,3.6905,3.5578,3.2489,3.015,2.9914,2.9851,2.9977,3.0273,3.0405,3.0521,3.0701,3.0898,3.1229,3.171,3.1798,3.1915,3.2222,3.2434,3.2551,3.2566,3.2683,3.2742,3.258,3.2419,3.2156,3.1424,3.1204,3.1028,4.5232,4.5232,4.5232,4.494,4.4512,4.4512,4.4199,4.3691,4.3691,0.0,0.0,4.3691,4.3418,4.291,4.2148,4.1602,4.1152,4.0241,4.0105,4.0624,4.0951,4.1338,4.1736,4.2192,4.2025,4.1287,4.0409,3.9853,3.9515,3.9411,3.9557,4.0001,4.0405,4.0772,4.1084,4.1102,4.1102,4.1102,4.1102,4.0937,4.0625,4.0203,3.9799,3.9355,3.8143,3.7153,3.6439,3.6035,3.5632,3.5211,3.4881,3.455,3.4111,3.312,3.2223,3.1598,3.1614,3.182,3.2223,3.2936,3.367,3.4386,3.5412,3.5797,3.5266,3.5229,3.5394,3.5779,3.6109,3.6457,3.686,3.7263,3.7464,3.741,3.7172,3.7116,3.7337,3.7116,3.7026,3.7489,3.7795,3.8213,3.8441,3.9242,3.9817,3.9526,3.909,3.8329,3.6935,3.3883,3.1253,3.0353,3.0206,3.043,3.0686,3.0769,3.0796,3.0784,3.0805,3.0913,3.1212,3.13,3.1461,3.1922,3.212,3.2317,3.2405,3.2624,3.2808,3.2808,3.2602,3.2368,3.2339,3.2163,3.1841,4.6113,4.6113,4.6113,4.5664,4.492,4.492,4.4452,4.3711,4.3711,4.3691,4.3691,4.3691,4.3241,4.248,4.2012,4.1582,4.1133,4.0299,4.0337,4.1087,4.1107,4.1321,4.1797,4.2193,4.2156,4.1663,4.0839,4.0391,4.0313,3.9966,4.0019,4.0423,4.0827,4.1047,4.1102,4.1102,4.1102,4.1102,4.1102,4.1084,4.1011,4.0625,4.0221,3.9781,3.8566,3.7703,3.7245,3.6841,3.6457,3.6054,3.5981,3.5779,3.5357,3.4826,3.4515,3.4441,3.4734,3.5101,3.5504,3.5962,3.6402,3.686,3.7393,3.7208,3.6164,3.6035,3.6182,3.6585,3.6713,3.6878,3.7282,3.7685,3.7795,3.7502,3.7667,3.7722,3.7483,3.7373,3.7527,3.7983,3.8042,3.8592,3.9433,3.9817,4.0067,4.02,3.9905,3.8918,3.6692,3.4164,3.2082,3.0686,3.0499,3.0728,3.0776,3.0796,3.0796,3.0796,3.0796,3.0899,3.1212,3.1271,3.1476,3.2097,3.2214,3.2375,3.2624,3.2778,3.2808,3.2808,3.2734,3.2705,3.2683,3.2624,3.2419,4.6308,4.6308,4.6308,4.5957,4.5351,4.5115,4.4783,4.4413,4.4393,4.4141,4.3711,4.3691,4.3359,4.2734,4.209,4.1562,4.1172,4.0511,4.0589,4.121,4.1611,4.2051,4.2515,4.2897,4.3014,4.2782,4.1949,4.1525,4.1463,4.0865,4.0623,4.0827,4.1029,4.1102,4.1102,4.1102,4.1102,4.1102,4.1102,4.1102,4.1102,4.0696,4.0423,4.0221,3.8988,3.8143,3.774,3.7337,3.6933,3.6549,3.6732,3.6677,3.6292,3.6072,3.587,3.5687,3.6017,3.6328,3.6512,3.6896,3.7281,3.7685,3.7887,3.7868,3.7557,3.7502,3.7593,3.7738,3.7795,3.7868,3.8032,3.8235,3.8253,3.8069,3.8033,3.8015,3.8053,3.8083,3.8277,3.8715,3.914,3.9642,4.0163,4.0453,4.0647,4.0821,4.0509,3.9452,3.7653,3.6152,3.4266,3.186,3.1212,3.1046,3.0859,3.0796,3.0796,3.0796,3.0796,3.0855,3.1001,3.103,3.1235,3.1651,3.1885,3.2156,3.2478,3.2683,3.2778,3.2808,3.2808,3.2808,3.2808,3.2808,3.261,4.6308,4.6308,4.6308,4.6055,4.5666,4.5215,4.5018,4.5018,4.4998,4.4608,4.4062,4.3983,4.3769,4.3341,4.2676,4.2109,4.1621,4.125,4.1269,4.168,4.2285,4.2773,4.3223,4.3555,4.3691,4.3608,4.2799,4.2381,4.2297,4.1523,4.1102,4.1102,4.1102,4.1102,4.1102,4.1102,4.1102,4.1102,4.1102,4.1102,4.1102,4.0809,4.0623,4.0549,3.9612,3.8876,3.8566,3.8181,3.7833,3.752,3.7703,3.7647,3.7373,3.7263,3.7061,3.6805,3.7043,3.7208,3.7207,3.7502,3.7813,3.8107,3.8143,3.8272,3.8545,3.86,3.86,3.86,3.8545,3.8563,3.8563,3.8582,3.86,3.8582,3.8417,3.8382,3.8566,3.8812,3.9071,3.9452,4.006,4.049,4.0704,4.1055,4.1328,4.1269,4.0937,4.0193,3.9076,3.8143,3.6313,3.4016,3.2396,3.1544,3.0963,3.0796,3.0796,3.0796,3.0796,3.0811,3.0826,3.0811,3.1001,3.1388,3.1651,3.1988,3.2346,3.261,3.2793,3.2808,3.2808,3.2808,3.2808,3.2808,3.2683,4.6308,4.6308,4.6308,4.6076,4.5686,4.5213,4.5037,4.5037,4.5018,4.4979,4.4881,4.4881,4.4647,4.4316,4.416,4.3652,4.295,4.2872,4.2872,4.2891,4.2989,4.3242,4.3594,4.3672,4.3691,4.3608,4.2839,4.2444,4.2402,4.1565,4.1123,4.1102,4.1102,4.1102,4.1102,4.1102,4.1102,4.1102,4.1102,4.1102,4.1102,4.1066,4.1047,4.1047,4.0568,4.0311,4.0164,3.9891,3.9634,3.9579,3.9208,3.9005,3.8911,3.8618,3.8417,3.8362,3.8398,3.8415,3.8435,3.8472,3.8472,3.8545,3.8527,3.8545,3.86,3.86,3.86,3.86,3.86,3.86,3.86,3.862,3.8659,3.8678,3.888,3.8966,3.8771,3.9311,3.9803,3.9842,4.0236,4.0646,4.1036,4.1445,4.1699,4.1738,4.1442,4.0931,4.0071,3.9228,3.8148,3.6249,3.4346,3.2417,3.1304,3.0817,3.0838,3.0817,3.0796,3.0796,3.0796,3.0826,3.0993,3.1446,3.1695,3.1944,3.2419,3.2808,3.2778,3.2764,3.2778,3.2808,3.2808,3.2808,3.2668,4.6308,4.6308,4.6308,4.6211,4.6016,4.5838,4.576,4.5781,4.5781,4.5781,4.576,4.5781,4.541,4.4764,4.4744,4.453,4.4219,4.3984,4.3867,4.3828,4.3595,4.3535,4.3691,4.3691,4.3691,4.367,4.3109,4.2818,4.2714,4.2193,4.1735,4.1483,4.1462,4.1315,4.1123,4.1102,4.1102,4.1102,4.1102,4.1102,4.1102,4.1102,4.1102,4.1066,4.0696,4.0494,4.0458,4.0111,3.9893,3.9893,3.9726,3.9483,3.9225,3.93,3.9245,3.8985,3.8948,3.8948,3.8948,3.8747,3.86,3.86,3.86,3.86,3.86,3.86,3.86,3.86,3.86,3.86,3.862,3.8838,3.9016,3.9034,3.9164,3.9201,3.9072,3.952,3.9875,3.9941,4.0509,4.0977,4.1211,4.1562,4.1875,4.207,4.1988,4.1692,4.1358,4.0872,4.0002,3.8725,3.7172,3.5068,3.2631,3.1461,3.1179,3.088,3.0796,3.0796,3.0796,3.0796,3.0972,3.1446,3.152,3.1681,3.2061,3.239,3.2507,3.2551,3.2712,3.2808,3.2808,3.2808,3.2734,4.6308,4.6308,4.6308,4.6308,4.6308,4.6308,4.6308,4.6308,4.6308,4.6308,4.6308,4.6308,4.5976,4.5408,4.535,4.5291,4.5176,4.4883,4.4668,4.4551,4.4198,4.4042,4.4062,4.4042,4.4042,4.3979,4.3644,4.3372,4.3246,4.2932,4.2513,4.2134,4.2071,4.1783,4.1328,4.1268,4.1191,4.1121,4.1102,4.1102,4.1102,4.1102,4.1102,4.1084,4.0827,4.068,4.068,4.0407,4.0242,4.0242,4.0132,3.9852,3.9447,3.9705,3.9744,3.9428,3.9261,3.9186,3.9186,3.882,3.86,3.86,3.86,3.86,3.86,3.86,3.86,3.86,3.8699,3.8798,3.8838,3.9114,3.9369,3.9561,3.9634,3.9649,3.9845,4.016,4.0452,4.0479,4.1149,4.1602,4.1738,4.2012,4.2324,4.2519,4.2577,4.2519,4.24,4.2077,4.1506,4.0533,3.955,3.7297,3.3918,3.2548,3.1809,3.0984,3.0796,3.0796,3.0796,3.0796,3.0913,3.1315,3.13,3.1446,3.1827,3.2076,3.2237,3.2346,3.2551,3.2808,3.2808,3.2808,3.2808,4.6308,4.6308,4.6308,4.6328,4.6308,4.6348,4.6328,4.6387,4.6328,4.6328,4.6328,4.6308,4.6269,4.623,4.6211,4.6016,4.5705,4.5607,4.5351,4.4998,4.492,4.494,4.494,4.494,4.492,4.478,4.4421,4.4036,4.3731,4.3664,4.3402,4.2956,4.294,4.2533,4.1812,4.1674,4.1488,4.1158,4.1102,4.1102,4.1102,4.1102,4.1102,4.1102,4.1084,4.1047,4.1047,4.1047,4.1029,4.1029,4.068,4.0295,3.993,3.9911,3.9911,3.9856,3.9465,3.9243,3.9225,3.8893,3.8673,3.8655,3.873,3.8637,3.871,3.8748,3.8748,3.8656,3.9127,3.9326,3.9386,3.9448,3.9717,4.0314,4.0429,4.0599,4.1018,4.1247,4.1618,4.1658,4.1946,4.2343,4.2852,4.3028,4.2969,4.3048,4.3067,4.2949,4.2635,4.2447,4.2172,4.1617,4.0451,3.8452,3.4962,3.3531,3.2542,3.1518,3.0986,3.084,3.0811,3.084,3.1016,3.1147,3.1177,3.1359,3.1666,3.1885,3.2032,3.2244,3.2566,3.2756,3.2808,3.2808,3.2808,4.6308,4.6328,4.6601,4.6699,4.6716,4.6992,4.7151,4.709,4.6816,4.6677,4.666,4.6404,4.6445,4.6677,4.6677,4.6443,4.6074,4.5822,4.5607,4.541,4.5135,4.5018,4.5018,4.5018,4.5018,4.4996,4.4828,4.4679,4.4551,4.4529,4.4297,4.3912,4.3847,4.3275,4.2337,4.2132,4.1822,4.1179,4.1102,4.1102,4.1121,4.1102,4.1102,4.1102,4.1102,4.1102,4.1102,4.1102,4.1102,4.1102,4.0956,4.0678,4.035,4.0276,4.0405,4.0588,4.0274,4.0033,3.9978,3.965,3.943,3.943,3.943,3.9414,3.943,3.945,3.9531,3.9793,3.9934,4.0236,4.0664,4.0422,4.0309,4.079,4.0959,4.1147,4.1479,4.169,4.1789,4.1837,4.216,4.2577,4.2989,4.3087,4.3204,4.3418,4.3476,4.3379,4.33,4.3234,4.3108,4.2881,4.2054,4.0328,3.7043,3.5003,3.3588,3.2152,3.1323,3.1177,3.1103,3.0913,3.1001,3.0957,3.1016,3.106,3.1308,3.1695,3.1856,3.22,3.2537,3.2778,3.2808,3.2808,3.2808,4.6387,4.6521,4.6794,4.6989,4.7168,4.7464,4.76,4.7561,4.7266,4.7126,4.707,4.6836,4.6853,4.7087,4.7148,4.6992,4.668,4.6269,4.6096,4.6057,4.5644,4.5408,4.5428,4.5408,4.5408,4.5428,4.543,4.5428,4.5408,4.5408,4.5172,4.4763,4.4744,4.4078,4.3007,4.2801,4.2342,4.1665,4.1488,4.1506,4.1488,4.1485,4.1412,4.1302,4.1283,4.121,4.1121,4.1102,4.1102,4.1102,4.1102,4.0974,4.0735,4.0568,4.0678,4.1011,4.0735,4.0494,4.0439,4.0111,3.9872,3.9893,4.0015,4.0095,4.0095,4.0219,4.0462,4.0665,4.0868,4.1213,4.1541,4.1359,4.1323,4.1691,4.1688,4.1821,4.2328,4.2303,4.2322,4.2504,4.2728,4.3007,4.3223,4.3282,4.3438,4.3691,4.3691,4.3691,4.3691,4.3691,4.3691,4.3609,4.2863,4.117,3.8761,3.6764,3.4265,3.2658,3.1722,3.1547,3.1344,3.1103,3.0943,3.0855,3.0811,3.0811,3.1016,3.1411,3.1783,3.2141,3.2493,3.2808,3.2808,3.2808,3.2808,4.656,4.6892,4.6909,4.7204,4.7558,4.7698,4.7659,4.7698,4.764,4.7578,4.7578,4.7542,4.7503,4.76,4.7578,4.76,4.7542,4.7148,4.6892,4.6814,4.6484,4.6289,4.625,4.6209,4.6191,4.6172,4.625,4.625,4.6191,4.615,4.5954,4.564,4.5538,4.4873,4.3609,4.3538,4.3127,4.2404,4.2164,4.2219,4.2292,4.2201,4.2017,4.1724,4.1647,4.1467,4.1121,4.1102,4.1121,4.1139,4.1121,4.1102,4.1011,4.0754,4.0678,4.0974,4.0754,4.0531,4.0494,4.0224,4.004,4.0142,4.0314,4.0592,4.0732,4.0979,4.1244,4.1385,4.1609,4.1874,4.1974,4.2199,4.2459,4.2928,4.2564,4.2677,4.327,4.33,4.3216,4.349,4.3555,4.3672,4.3672,4.3633,4.3652,4.3672,4.3691,4.3691,4.3691,4.3691,4.3691,4.3566,4.3007,4.1702,4.0062,3.8306,3.5516,3.3144,3.238,3.1897,3.1629,3.1402,3.1235,3.1147,3.1118,3.1103,3.1177,3.1578,3.1834,3.2141,3.2515,3.2793,3.2808,3.2808,3.2808,4.7266,4.7402,4.7673,4.7871,4.8047,4.8363,4.8503,4.8464,4.8164,4.8008,4.7949,4.7715,4.7734,4.7969,4.8008,4.8164,4.8441,4.8008,4.7634,4.7383,4.7249,4.7012,4.6755,4.6716,4.656,4.6348,4.6308,4.6308,4.6308,4.6308,4.6199,4.6092,4.6068,4.5376,4.4184,4.4043,4.3528,4.2434,4.2292,4.2292,4.2292,4.2311,4.2127,4.176,4.1684,4.1503,4.1139,4.1102,4.1249,4.1467,4.1228,4.1102,4.1084,4.0992,4.0974,4.1066,4.0971,4.0919,4.0919,4.0832,4.0847,4.1094,4.1281,4.1487,4.1735,4.1923,4.2152,4.2418,4.2623,4.2767,4.3074,4.3198,4.3242,4.3146,4.2984,4.3078,4.3551,4.3567,4.3587,4.367,4.3691,4.3691,4.3691,4.3691,4.3691,4.3691,4.3691,4.3691,4.3691,4.3691,4.3691,4.3629,4.2986,4.2362,4.0918,3.9441,3.7341,3.485,3.3578,3.2371,3.2,3.1739,3.1593,3.144,3.1411,3.1411,3.152,3.1695,3.198,3.22,3.2537,3.2698,3.2793,3.2808,3.2808,4.7698,4.7832,4.8105,4.8301,4.848,4.8796,4.8894,4.8874,4.8597,4.848,4.8402,4.8206,4.8301,4.8633,4.8668,4.8848,4.9086,4.8808,4.8457,4.805,4.7698,4.7444,4.7187,4.7146,4.7051,4.6816,4.6777,4.6699,4.6543,4.6521,4.6543,4.6501,4.6387,4.581,4.4803,4.4561,4.3915,4.2923,4.2751,4.2751,4.2751,4.2751,4.2549,4.2219,4.2146,4.2017,4.176,4.1635,4.1522,4.1448,4.121,4.1121,4.1102,4.1102,4.1102,4.1123,4.1231,4.1336,4.1355,4.1507,4.1691,4.1923,4.2112,4.232,4.2631,4.2756,4.3047,4.3235,4.3299,4.3421,4.3629,4.3691,4.3633,4.3614,4.3418,4.3458,4.3652,4.3691,4.3691,4.3691,4.3691,4.3691,4.3691,4.3691,4.3691,4.3691,4.3691,4.3691,4.3691,4.3691,4.3691,4.3628,4.3256,4.255,4.1695,4.0394,3.9019,3.6931,3.4957,3.3492,3.2445,3.2133,3.1915,3.1724,3.1637,3.1622,3.1695,3.1973,3.2244,3.2427,3.258,3.2698,3.2808,3.2808,3.2808,4.7891,4.8223,4.8242,4.8499,4.8832,4.8894,4.8894,4.8894,4.8874,4.8832,4.8855,4.8773,4.9007,4.9332,4.9313,4.9371,4.943,4.941,4.9141,4.8675,4.8148,4.7737,4.7659,4.7539,4.7483,4.7503,4.7503,4.7324,4.695,4.695,4.695,4.6911,4.6616,4.6102,4.5547,4.5135,4.4526,4.3656,4.3497,4.3474,4.343,4.3448,4.3224,4.2865,4.2828,4.2751,4.2608,4.2311,4.1889,4.1302,4.1286,4.1304,4.1213,4.1176,4.1268,4.1371,4.1597,4.1842,4.1912,4.2256,4.257,4.2757,4.3135,4.325,4.3552,4.3882,4.4007,4.3967,4.3865,4.3826,4.3846,4.3887,4.4022,4.4297,4.4062,4.3887,4.3768,4.3848,4.3926,4.3867,4.3789,4.375,4.3789,4.3769,4.3691,4.3691,4.3691,4.3691,4.3691,4.3691,4.3691,4.3566,4.3401,4.3111,4.2385,4.18,4.0457,3.8938,3.6857,3.5081,3.3228,3.2637,3.2317,3.2112,3.1929,3.19,3.1973,3.2302,3.2419,3.2507,3.2624,3.2764,3.2808,3.2808,3.2808,4.8617,4.8714,4.8737,4.8773,4.8894,4.8894,4.8913,4.8894,4.8913,4.8972,4.8913,4.8894,4.9031,4.9105,4.9391,4.9332,4.9277,4.941,4.9277,4.891,4.8718,4.8363,4.8027,4.7757,4.7707,4.7729,4.7881,4.7542,4.7402,4.7559,4.7534,4.7425,4.7422,4.6909,4.613,4.6015,4.5208,4.4186,4.4034,4.3874,4.3603,4.354,4.3302,4.2957,4.2938,4.281,4.2513,4.2366,4.2237,4.2035,4.198,4.198,4.1968,4.199,4.2122,4.2403,4.2569,4.2823,4.3121,4.3273,4.3632,4.4289,4.4698,4.5154,4.553,4.5615,4.551,4.5217,4.49,4.4627,4.4627,4.4627,4.4725,4.4783,4.4746,4.4627,4.4608,4.4666,4.4647,4.4647,4.4394,4.4219,4.4121,4.3906,4.3711,4.3691,4.3691,4.3691,4.3691,4.3691,4.3691,4.3691,4.3608,4.3505,4.3237,4.282,4.1946,4.069,3.8895,3.7036,3.4915,3.3145,3.2844,3.258,3.2434,3.2361,3.2463,3.2668,3.269,3.2595,3.2705,3.2808,3.2808,3.2808,3.2808,4.8894,4.8894,4.8894,4.8894,4.8933,4.9086,4.9164,4.9203,4.9359,4.9437,4.9437,4.9437,4.9535,4.9711,4.9961,4.9941,4.975,4.9941,4.9824,4.9589,4.9927,4.9733,4.9241,4.8978,4.9124,4.9372,4.9372,4.9294,4.9134,4.9069,4.9049,4.9098,4.8911,4.8506,4.8127,4.7536,4.6978,4.6076,4.5592,4.5119,4.467,4.44,4.3954,4.3607,4.3544,4.357,4.3605,4.383,4.3507,4.2668,4.2466,4.2596,4.2617,4.279,4.3028,4.3289,4.3458,4.3678,4.3933,4.4126,4.4659,4.5489,4.6165,4.6627,4.6858,4.6963,4.6712,4.604,4.5423,4.5062,4.5037,4.5154,4.5293,4.5312,4.5428,4.541,4.5076,4.4979,4.4998,4.4901,4.4647,4.4414,4.4394,4.4004,4.3769,4.3691,4.3691,4.3691,4.3691,4.3711,4.375,4.3808,4.3769,4.3667,4.3524,4.317,4.2735,4.1591,3.9932,3.825,3.6221,3.3939,3.3102,3.2845,3.283,3.2808,3.2808,3.2808,3.2778,3.2749,3.2808,3.2808,3.2808,3.2808,3.2808,4.8894,4.8894,4.8894,4.8933,4.9027,4.9355,4.9508,4.9644,4.9941,5.0121,5.0121,5.016,5.0238,5.0742,5.0566,5.0723,5.0644,5.0605,5.0596,5.0724,5.1273,5.1605,5.1427,5.1393,5.1738,5.2168,5.2236,5.2071,5.1841,5.1673,5.1546,5.1527,5.1195,5.0892,5.0622,5.0036,4.9405,4.8777,4.7961,4.7091,4.6391,4.5785,4.5092,4.4386,4.4511,4.4954,4.543,4.586,4.5394,4.3124,4.3267,4.3553,4.3562,4.3793,4.3884,4.4049,4.4363,4.46,4.4802,4.5404,4.5907,4.6862,4.7688,4.7984,4.8045,4.792,4.75,4.6676,4.5688,4.5337,4.5291,4.5547,4.5703,4.5783,4.6055,4.5857,4.5369,4.5135,4.5135,4.5096,4.4805,4.459,4.4414,4.416,4.3846,4.4178,4.4141,4.416,4.416,4.418,4.416,4.4101,4.3984,4.3828,4.3664,4.3438,4.3025,4.2279,4.0457,3.8721,3.694,3.5018,3.3631,3.2977,3.2918,3.2852,3.2808,3.2808,3.2808,3.2808,3.2808,3.2808,3.2808,3.2808,3.2808,4.8894,4.8894,4.8894,4.9086,4.9332,4.9469,4.9746,5.0063,5.0156,5.0278,5.0219,5.0219,5.0297,5.0414,5.0703,5.0644,5.0512,5.0779,5.0948,5.1567,5.2838,5.4048,5.4433,5.4365,5.4413,5.4937,5.5161,5.5074,5.488,5.4403,5.438,5.4251,5.3753,5.3471,5.3124,5.2862,5.2431,5.161,5.0715,4.9433,4.8004,4.7167,4.6269,4.538,4.534,4.5792,4.6589,4.7407,4.7528,4.7003,4.6487,4.6157,4.56,4.5256,4.5166,4.5278,4.5563,4.6091,4.6872,4.7559,4.8376,4.888,4.9655,5.0061,4.93,4.8898,4.8323,4.7464,4.6579,4.5959,4.5996,4.6094,4.6191,4.625,4.6269,4.6248,4.6052,4.5996,4.5957,4.5879,4.5605,4.5412,4.5351,4.4881,4.4686,4.4705,4.4686,4.4726,4.4666,4.4608,4.453,4.4453,4.4355,4.4178,4.3941,4.3699,4.3274,4.2818,4.1234,3.9717,3.7929,3.6112,3.4734,3.3734,3.3006,3.2918,3.2808,3.2808,3.2808,3.2808,3.2808,3.2808,3.2808,3.2808,3.2808,4.9519,4.9496,4.9496,4.9633,4.982,5.0015,5.023,5.0488,5.0703,5.0762,5.0762,5.0762,5.0762,5.0781,5.0976,5.0976,5.1003,5.1529,5.2271,5.3258,5.4763,5.6499,5.796,5.7984,5.794,5.7357,5.7066,5.6977,5.6664,5.6507,5.6216,5.6283,5.6015,5.5746,5.5523,5.5348,5.4933,5.4344,5.3343,5.196,5.0384,4.9285,4.8193,4.7266,4.7101,4.7612,4.8805,4.9775,5.0426,5.065,5.0404,4.9159,4.7478,4.678,4.6552,4.6589,4.6714,4.7316,4.8218,4.914,4.9889,5.0662,5.153,5.1231,5.0484,4.9736,4.8794,4.7828,4.6941,4.6348,4.6562,4.6579,4.6638,4.6836,4.6699,4.6601,4.6562,4.6426,4.6308,4.623,4.59,4.5725,4.5527,4.533,4.5115,4.494,4.4901,4.492,4.4881,4.4842,4.4881,4.4822,4.4744,4.4569,4.4316,4.3958,4.3502,4.3026,4.2195,4.0918,3.9547,3.7688,3.5868,3.4778,3.3631,3.294,3.2808,3.2808,3.2808,3.2808,3.2808,3.2808,3.2808,3.2808,3.2808,5.0199,5.0199,5.0199,5.0238,5.0336,5.0644,5.082,5.0957,5.1245,5.1304,5.1377,5.1397,5.1284,5.1358,5.1338,5.145,5.1939,5.2884,5.3838,5.5076,5.6808,5.8586,6.0135,6.0809,6.059,5.9007,5.917,5.894,5.8685,5.8247,5.8593,5.8315,5.8132,5.8223,5.8022,5.7623,5.7427,5.7185,5.5987,5.461,5.3174,5.2125,5.0977,4.9987,4.9806,5.0466,5.1571,5.255,5.3393,5.4233,5.4388,5.2542,5.0129,4.8282,4.7822,4.7825,4.7892,4.8554,4.9599,5.057,5.1558,5.2237,5.2952,5.2671,5.153,5.0242,4.9084,4.803,4.712,4.656,4.6853,4.697,4.7187,4.7344,4.7126,4.695,4.6833,4.654,4.6348,4.6269,4.6115,4.5959,4.5781,4.5603,4.5369,4.5193,4.5174,4.5174,4.5154,4.5193,4.5311,4.5291,4.5254,4.494,4.4647,4.451,4.4013,4.3687,4.3065,4.2277,4.1186,3.9767,3.79,3.5492,3.4275,3.3565,3.2962,3.2889,3.2866,3.283,3.2808,3.2808,3.2808,3.2808,3.2808,5.0199,5.0199,5.0199,5.0371,5.0683,5.0781,5.1016,5.1284,5.1362,5.1377,5.1397,5.1397,5.1397,5.1397,5.1397,5.1882,5.2804,5.4149,5.5621,5.7006,5.8649,6.0227,6.1515,6.2165,6.2118,6.2164,6.1961,6.1877,6.1774,6.1949,6.1049,6.1409,6.101,6.0774,6.0588,6.0551,5.9899,5.9545,5.8473,5.7101,5.5771,5.4697,5.377,5.2813,5.2731,5.3374,5.4345,5.5334,5.6011,5.6252,5.662,5.5508,5.3336,5.0864,4.9481,4.9029,4.9189,4.9891,5.123,5.2898,5.3756,5.4236,5.4623,5.3992,5.2455,5.0752,4.9434,4.8305,4.7388,4.6831,4.6889,4.7285,4.7503,4.7522,4.7305,4.7009,4.6911,4.6677,4.6445,4.6465,4.6328,4.6152,4.6016,4.5937,4.5859,4.574,4.574,4.576,4.5779,4.5879,4.5976,4.5918,4.5781,4.5389,4.4979,4.4901,4.4702,4.4603,4.4187,4.3843,4.2857,4.1878,4.0104,3.7688,3.5434,3.4093,3.3602,3.3183,3.2889,3.2808,3.2808,3.2808,3.2808,3.2808,3.2808,5.0796,5.084,5.0796,5.0937,5.1089,5.1109,5.1206,5.1358,5.1397,5.1397,5.1397,5.1397,5.1397,5.1397,5.1397,5.2225,5.3866,5.5621,5.7286,5.8949,6.0295,6.1448,6.2501,6.2856,6.2936,6.2993,6.3181,6.2989,6.2554,6.2174,6.2263,6.2073,6.1879,6.1807,6.1758,6.1453,6.1251,6.0864,6.0044,5.8882,5.7487,5.649,5.5663,5.5203,5.5247,5.5662,5.6317,5.6967,5.7484,5.7745,5.7981,5.7184,5.5575,5.3706,5.1695,5.0857,5.0713,5.1512,5.318,5.4917,5.5985,5.6069,5.6259,5.5322,5.3452,5.1583,4.9774,4.8351,4.7753,4.7363,4.7575,4.7773,4.8011,4.8148,4.7832,4.7575,4.7458,4.7168,4.6992,4.6816,4.6543,4.6367,4.6269,4.623,4.6269,4.6308,4.6328,4.6328,4.6348,4.6308,4.6308,4.6172,4.5996,4.5742,4.535,4.5271,4.5232,4.5193,4.5113,4.4766,4.4249,4.3159,4.1821,3.9939,3.7725,3.5554,3.4093,3.3646,3.3227,3.2844,3.2808,3.2808,3.2808,3.2808,3.2808,5.1397,5.1397,5.1397,5.1397,5.1397,5.1377,5.1401,5.1397,5.1397,5.1397,5.1397,5.1401,5.145,5.1668,5.2229,5.3292,5.5131,5.7121,5.8902,6.0454,6.1515,6.2501,6.3056,6.3277,6.3253,6.3229,6.3275,6.2891,6.2506,6.2314,6.2167,6.2266,6.2167,6.2119,6.2167,6.2071,6.1684,6.1314,6.0815,5.9908,5.8939,5.8133,5.7592,5.7222,5.7526,5.8006,5.8486,5.8833,5.9155,5.937,5.9389,5.8847,5.7527,5.6172,5.4782,5.3466,5.2713,5.3368,5.4873,5.6577,5.7527,5.7525,5.7634,5.6437,5.4412,5.2202,4.9975,4.817,4.7718,4.7793,4.8005,4.8281,4.8476,4.8617,4.8418,4.8122,4.7988,4.7754,4.7483,4.721,4.6836,4.6738,4.6758,4.6758,4.6855,4.6738,4.6758,4.656,4.654,4.6348,4.6289,4.623,4.6115,4.5957,4.5762,4.5603,4.5584,4.5584,4.5545,4.534,4.4907,4.4303,4.3003,4.1814,3.9957,3.7805,3.6011,3.4197,3.3677,3.3294,3.297,3.2808,3.2808,3.2808,3.2808,5.1397,5.1397,5.1397,5.1397,5.1397,5.1397,5.1397,5.1397,5.1397,5.1397,5.1397,5.1426,5.1668,5.2447,5.4057,5.5574,5.7192,5.8673,6.0296,6.1766,6.2324,6.2815,6.3235,6.3277,6.3349,6.3396,6.3349,6.3275,6.3107,6.3083,6.3035,6.3011,6.2963,6.3061,6.2891,6.2648,6.248,6.2287,6.1838,6.1442,6.1174,6.0932,6.0824,6.0826,6.0802,6.0779,6.0707,6.0837,6.1035,6.1147,6.1327,6.0898,6.0007,5.8996,5.8489,5.7421,5.6198,5.4939,5.6517,5.7994,5.8833,5.888,5.8786,5.7616,5.5355,5.2475,4.9912,4.7884,4.7933,4.8144,4.832,4.8578,4.8773,4.8734,4.8558,4.832,4.8203,4.8226,4.7952,4.7855,4.7561,4.7503,4.7503,4.7483,4.7464,4.7305,4.7148,4.6931,4.6697,4.6443,4.6308,4.625,4.623,4.6094,4.6035,4.5918,4.5898,4.5937,4.5896,4.5835,4.5506,4.5137,4.4856,4.3523,4.176,3.9935,3.7968,3.6233,3.4663,3.3701,3.3316,3.3014,3.2808,3.2808,3.2822,5.1397,5.1397,5.1397,5.1397,5.1397,5.1397,5.1397,5.1397,5.1397,5.1397,5.1397,5.1401,5.2133,5.3655,5.5598,5.7471,5.9109,6.0341,6.1725,6.2717,6.307,6.3246,6.3569,6.347,6.3398,6.3684,6.3804,6.4021,6.3949,6.3588,6.3277,6.3301,6.3277,6.3229,6.3277,6.3107,6.2841,6.2528,6.2095,6.1807,6.1807,6.1807,6.1807,6.1831,6.1831,6.1855,6.1855,6.1807,6.1807,6.1807,6.1807,6.148,6.0827,6.0171,5.9731,5.9642,5.8726,5.8274,5.8864,5.986,6.02,6.042,6.0157,5.905,5.602,5.2945,5.0339,4.8542,4.8522,4.8578,4.8578,4.8776,4.8855,4.8792,4.8656,4.8617,4.8519,4.8499,4.8444,4.8385,4.8284,4.8187,4.805,4.7855,4.7757,4.764,4.7422,4.7207,4.6853,4.6482,4.6387,4.6289,4.6289,4.625,4.623,4.6172,4.6133,4.6152,4.6152,4.6091,4.6094,4.5848,4.5502,4.5196,4.3962,4.2042,3.9985,3.7755,3.5712,3.4596,3.3634,3.3376,3.3087,3.2866,3.2866,5.1397,5.1397,5.1397,5.1397,5.1397,5.1397,5.1474,5.162,5.179,5.1886,5.2104,5.2495,5.3651,5.5249,5.7192,5.8995,6.0748,6.1695,6.2809,6.3533,6.3684,6.3638,6.3734,6.3614,6.3566,6.4117,6.4021,6.4309,6.4381,6.4069,6.3564,6.347,6.3349,6.3301,6.3277,6.3251,6.3107,6.2841,6.248,6.2312,6.2242,6.2239,6.2218,6.2194,6.217,6.2191,6.2191,6.2218,6.2218,6.2242,6.2266,6.2118,6.1721,6.1482,6.1284,6.1262,6.0855,6.0899,6.1044,6.1405,6.1703,6.1432,6.0464,5.8365,5.5398,5.288,5.0912,4.8934,4.8835,4.8855,4.8894,4.8894,4.8894,4.8894,4.8851,4.8894,4.8874,4.8776,4.8698,4.8659,4.8617,4.8714,4.8519,4.8206,4.805,4.7952,4.7757,4.748,4.709,4.6658,4.6462,4.6387,4.6308,4.6308,4.6308,4.6308,4.6308,4.6308,4.6308,4.6289,4.623,4.6209,4.6002,4.5705,4.5387,4.4495,4.2641,3.9637,3.6789,3.5889,3.4929,3.3925,3.342,3.3153,3.302,5.1397,5.1397,5.1401,5.1401,5.1397,5.1397,5.1693,5.2177,5.2659,5.3189,5.3863,5.4983,5.6141,5.747,5.8833,6.0386,6.1853,6.2322,6.3288,6.3744,6.3638,6.383,6.395,6.3902,6.3732,6.4165,6.4357,6.4598,6.4718,6.4574,6.4165,6.3974,6.3566,6.3374,6.3277,6.3277,6.3299,6.3131,6.3011,6.3035,6.3035,6.3059,6.3059,6.3083,6.3133,6.3181,6.3181,6.3083,6.3011,6.3011,6.2987,6.2965,6.2739,6.2675,6.2585,6.2585,6.2609,6.2585,6.2623,6.2168,6.158,6.0559,5.8926,5.6888,5.4444,5.2374,5.0557,4.9304,4.9191,4.9089,4.9031,4.8933,4.9105,4.9125,4.9144,4.9046,4.9007,4.8913,4.8855,4.8894,4.8894,4.8894,4.8894,4.8538,4.846,4.8382,4.8069,4.7793,4.7341,4.6931,4.6638,4.6504,4.6348,4.6308,4.6308,4.6308,4.6308,4.6308,4.6308,4.6308,4.6289,4.6245,4.6223,4.6158,4.587,4.5634,4.5074,4.2152,3.9553,3.7657,3.6195,3.4905,3.3948,3.3565,3.3496,5.1596,5.1911,5.2245,5.2003,5.1397,5.1397,5.1886,5.2732,5.3528,5.4702,5.6026,5.724,5.8351,5.9384,6.0477,6.186,6.313,6.3401,6.4152,6.4602,6.467,6.4646,6.4718,6.4622,6.4574,6.4957,6.5101,6.5366,6.5823,6.5223,6.5127,6.479,6.3949,6.3422,6.3277,6.3398,6.3349,6.3349,6.3325,6.3301,6.3277,6.3277,6.3277,6.3277,6.3277,6.3277,6.3277,6.3277,6.3277,6.3277,6.3277,6.3277,6.3277,6.3277,6.3277,6.3277,6.3277,6.3277,6.3255,6.2783,6.2151,6.0346,5.8256,5.5888,5.3904,5.2274,5.1019,5.0133,4.9633,4.9597,4.9672,4.9691,4.975,4.9633,4.9453,4.9277,4.9164,4.9027,4.8913,4.8894,4.8894,4.8894,4.8894,4.8874,4.8855,4.8792,4.846,4.8086,4.7634,4.7263,4.6989,4.6777,4.6641,4.6426,4.6406,4.6367,4.6328,4.6308,4.6308,4.6308,4.6308,4.6308,4.6287,4.6308,4.6265,4.5939,4.5244,4.4092,4.2222,3.9998,3.7676,3.5585,3.4774,3.4061,3.39,5.1814,5.2491,5.3165,5.2924,5.2153,5.2249,5.2924,5.3979,5.496,5.6447,5.8329,5.9247,6.0045,6.0929,6.1695,6.2741,6.3679,6.4096,6.4767,6.5054,6.5173,6.5294,6.5366,6.527,6.5029,6.5606,6.5751,6.5919,6.6328,6.5943,6.5678,6.5199,6.4526,6.3997,6.3852,6.378,6.3758,6.3758,6.3758,6.3638,6.3636,6.3542,6.3398,6.3349,6.3277,6.3277,6.3277,6.3277,6.3277,6.3277,6.3277,6.3277,6.3277,6.3277,6.3277,6.3277,6.3277,6.3277,6.3257,6.2679,6.1874,5.9908,5.7613,5.5438,5.3631,5.2165,5.0911,5.0291,5.0141,5.0219,5.0219,5.0102,5.0063,4.9926,4.959,4.9394,4.9277,4.9164,4.8988,4.8894,4.8894,4.8913,4.8894,4.8894,4.8894,4.8894,4.8734,4.8379,4.8027,4.7673,4.7441,4.7207,4.6992,4.6758,4.6543,4.654,4.654,4.6308,4.6308,4.6308,4.6308,4.6308,4.6308,4.6308,4.6243,4.6133,4.5678,4.4986,4.3708,4.2129,3.9542,3.6849,3.5532,3.4858,3.4407,5.2085,5.3065,5.4036,5.4176,5.391,5.422,5.5004,5.6021,5.7121,5.8603,6.0272,6.0953,6.1404,6.1967,6.253,6.3358,6.4149,6.4333,6.4814,6.5486,6.5462,6.5391,6.5438,6.5438,6.5462,6.563,6.5823,6.6111,6.6495,6.6087,6.5847,6.5654,6.5127,6.4646,6.4814,6.4814,6.4814,6.479,6.4646,6.4285,6.3973,6.383,6.359,6.3374,6.3277,6.3277,6.3277,6.3277,6.3277,6.3277,6.3277,6.3277,6.3277,6.3277,6.3277,6.3277,6.3277,6.3277,6.3233,6.2009,6.0612,5.8996,5.6732,5.4604,5.2745,5.1534,5.0949,5.0536,5.0414,5.0312,5.0278,5.0278,5.0336,5.0278,4.9961,4.9722,4.9668,4.9453,4.934,4.9242,4.905,4.8913,4.8913,4.8894,4.8894,4.8894,4.8894,4.8675,4.834,4.8047,4.7773,4.7578,4.7363,4.7168,4.6953,4.6853,4.6755,4.6462,4.6308,4.6308,4.6308,4.6308,4.6308,4.6308,4.6265,4.6199,4.6221,4.6136,4.4684,4.3106,4.065,3.8288,3.6852,3.5657,3.5181,5.3578,5.4633,5.5917,5.6771,5.7098,5.6633,5.7008,5.8121,5.9658,6.1133,6.2144,6.2547,6.2872,6.3308,6.3497,6.408,6.4984,6.5197,6.5654,6.6087,6.5943,6.6087,6.6087,6.6015,6.5991,6.6159,6.6256,6.6232,6.6495,6.6232,6.6232,6.6087,6.5631,6.5053,6.455,6.4333,6.4237,6.3901,6.3804,6.3732,6.3612,6.3612,6.3518,6.3301,6.3277,6.3277,6.3277,6.3277,6.3277,6.3277,6.3277,6.3277,6.3277,6.3277,6.3277,6.3277,6.3277,6.3277,6.2834,6.1717,5.9863,5.7985,5.6038,5.3956,5.1996,5.1523,5.116,5.1029,5.0898,5.0894,5.1035,5.1011,5.103,5.0976,5.0738,5.0527,5.0351,5.0063,4.9848,4.9746,4.9613,4.9144,4.8949,4.8913,4.8894,4.8894,4.8894,4.8894,4.8636,4.832,4.8047,4.791,4.7734,4.7558,4.7402,4.7285,4.7087,4.6814,4.6523,4.6308,4.6308,4.6426,4.6367,4.6406,4.6348,4.6308,4.6265,4.6111,4.5431,4.3867,4.1904,3.96,3.766,3.6575,3.5911,5.5365,5.6424,5.7875,5.9086,5.9749,5.888,5.9018,6.0091,6.1514,6.259,6.3146,6.3279,6.3544,6.3928,6.4189,6.467,6.563,6.5702,6.5967,6.6424,6.6495,6.6424,6.6471,6.6519,6.6399,6.6519,6.6519,6.6519,6.6519,6.6519,6.6471,6.6352,6.6111,6.5414,6.4766,6.4405,6.4333,6.4141,6.4117,6.3926,6.378,6.3636,6.3518,6.3349,6.3277,6.3277,6.3277,6.3277,6.3277,6.3277,6.3277,6.3277,6.3277,6.3277,6.3277,6.3277,6.3277,6.3277,6.2879,6.1493,5.9612,5.7614,5.56,5.3624,5.1935,5.142,5.1391,5.1343,5.1397,5.1377,5.1382,5.1397,5.1358,5.1304,5.1089,5.0835,5.0703,5.0371,5.0199,5.0098,4.9863,4.9414,4.9027,4.8929,4.8894,4.8894,4.8894,4.8894,4.8894,4.8617,4.8379,4.8281,4.8164,4.8069,4.7874,4.7676,4.7461,4.7185,4.6914,4.6641,4.668,4.6855,4.666,4.6484,4.6406,4.6345,4.6243,4.5958,4.5629,4.5081,4.3978,4.1504,3.8739,3.7492,3.6722,5.7256,5.83,5.9794,6.0928,6.1627,6.0839,6.102,6.1919,6.2411,6.2879,6.3301,6.3277,6.366,6.4093,6.4165,6.479,6.5654,6.5799,6.6087,6.6376,6.6495,6.6519,6.6519,6.6519,6.6519,6.6519,6.6519,6.6519,6.6519,6.6519,6.6519,6.6471,6.628,6.5606,6.503,6.4646,6.4526,6.4285,6.4189,6.3974,6.378,6.383,6.359,6.3398,6.3277,6.3277,6.3277,6.3277,6.3277,6.3277,6.3277,6.3277,6.3277,6.3277,6.3277,6.3277,6.3277,6.3189,6.2768,6.1178,5.9293,5.7219,5.5435,5.3508,5.2128,5.1397,5.1397,5.1397,5.1397,5.1397,5.1397,5.1397,5.1377,5.1245,5.1069,5.0933,5.0816,5.0644,5.0449,5.0254,5.0,4.9609,4.916,4.9027,4.9007,4.8894,4.8894,4.8894,4.8894,4.8894,4.8695,4.8714,4.8617,4.8578,4.8382,4.8066,4.7851,4.7595,4.7461,4.7268,4.7285,4.7226,4.707,4.6855,4.6562,4.6423,4.6438,4.636,4.6199,4.5588,4.4883,4.2738,3.9749,3.8389,3.7392,5.8634,5.9393,6.0851,6.1829,6.2343,6.2434,6.2656,6.2901,6.3058,6.3189,6.3277,6.3277,6.378,6.4622,6.4694,6.5342,6.5895,6.628,6.6328,6.6448,6.6519,6.6519,6.6519,6.6519,6.6519,6.6519,6.6519,6.6519,6.6519,6.6519,6.6519,6.6495,6.6232,6.5606,6.503,6.4526,6.4237,6.3926,6.3902,6.3782,6.3638,6.359,6.3422,6.3349,6.3277,6.3277,6.3277,6.3277,6.3277,6.3277,6.3277,6.3277,6.3277,6.3277,6.3277,6.3257,6.299,6.2634,6.2053,6.05,5.8512,5.6611,5.4841,5.3264,5.1959,5.1397,5.1397,5.1397,5.1397,5.1397,5.1397,5.1397,5.1397,5.128,5.1187,5.1148,5.1069,5.1011,5.084,5.0644,5.0371,4.9961,4.9512,4.9258,4.9219,4.9007,4.8894,4.8894,4.8894,4.8894,4.8894,4.8894,4.8874,4.8753,4.8636,4.8382,4.8203,4.8005,4.7891,4.7776,4.7659,4.7581,4.7464,4.7226,4.6953,4.6816,4.6733,4.6618,4.6445,4.6021,4.5236,4.3096,4.1063,3.947,3.76,6.0238,6.0686,6.1918,6.2634,6.2901,6.3191,6.3277,6.3277,6.3277,6.3277,6.3277,6.3277,6.3758,6.4429,6.4574,6.5101,6.6063,6.6087,6.6208,6.6495,6.6519,6.6519,6.6519,6.6519,6.6519,6.6519,6.6519,6.6519,6.6519,6.6519,6.6519,6.6495,6.6111,6.5582,6.503,6.4598,6.4069,6.3614,6.3325,6.3277,6.3277,6.3277,6.3277,6.3277,6.3277,6.3277,6.3277,6.3277,6.3277,6.3277,6.3277,6.3277,6.3277,6.3277,6.3277,6.3167,6.2634,6.1986,6.1154,5.9475,5.7495,5.5671,5.4169,5.2876,5.1983,5.1397,5.1397,5.1397,5.1397,5.1397,5.1397,5.1397,5.1397,5.1377,5.1377,5.1377,5.1358,5.1358,5.1245,5.1113,5.0781,5.0391,5.0039,4.9722,4.9449,4.9238,4.9027,4.8894,4.8894,4.8894,4.8894,4.8894,4.8894,4.8832,4.8734,4.8656,4.8538,4.8418,4.8421,4.8265,4.8089,4.7913,4.7773,4.7578,4.7366,4.7207,4.7048,4.6775,4.6557,4.6135,4.5384,4.3381,4.1459,3.9789,3.7761,6.1713,6.1763,6.2819,6.3209,6.3277,6.3301,6.3277,6.3277,6.3277,6.3277,6.3277,6.3277,6.3614,6.4165,6.4261,6.4814,6.5558,6.5847,6.6111,6.6495,6.6519,6.6519,6.6519,6.6519,6.6519,6.6519,6.6519,6.6519,6.6519,6.6519,6.6519,6.6495,6.6471,6.5919,6.5029,6.4838,6.4285,6.3446,6.3277,6.3277,6.3277,6.3277,6.3277,6.3277,6.3277,6.3277,6.3277,6.3277,6.3277,6.3277,6.3277,6.3277,6.3277,6.3167,6.3189,6.2701,6.2008,6.1045,5.9931,5.8365,5.659,5.4934,5.3554,5.275,5.2119,5.166,5.1616,5.1616,5.1636,5.1636,5.1636,5.1479,5.1397,5.1397,5.1397,5.1397,5.1397,5.1377,5.1323,5.1187,5.1069,5.0703,5.0391,5.0078,4.9762,4.9531,4.9277,4.9066,4.8913,4.8913,4.8894,4.8894,4.8894,4.8894,4.8851,4.8792,4.8832,4.8792,4.8753,4.8714,4.8499,4.8323,4.8125,4.7969,4.7855,4.7519,4.7282,4.7109,4.6831,4.6362,4.5366,4.3615,4.1837,3.9993,3.7814,6.1179,6.1275,6.2312,6.2963,6.3277,6.3277,6.3277,6.3277,6.3277,6.3277,6.3277,6.3325,6.3564,6.3997,6.4045,6.4598,6.5438,6.563,6.6015,6.6352,6.6519,6.6519,6.6519,6.6519,6.6519,6.6519,6.6519,6.6519,6.6519,6.6519,6.6495,6.6495,6.6424,6.5871,6.4886,6.4814,6.4309,6.3372,6.3277,6.3277,6.3277,6.3277,6.3277,6.3277,6.3277,6.3277,6.3277,6.3277,6.3277,6.3277,6.3277,6.3277,6.3277,6.2945,6.259,6.2099,6.0975,5.9771,5.8496,5.7128,5.5596,5.4649,5.3649,5.3074,5.2546,5.2169,5.1978,5.1958,5.1919,5.1894,5.1816,5.1597,5.1397,5.1397,5.1397,5.1397,5.1397,5.1358,5.1343,5.1304,5.1245,5.1011,5.0723,5.043,5.0093,4.982,4.9547,4.9297,4.9027,4.8929,4.8913,4.8894,4.8894,4.8894,4.8894,4.8894,4.8894,4.8894,4.8855,4.8874,4.8894,4.8695,4.848,4.848,4.8363,4.7988,4.7715,4.7578,4.7238,4.67,4.5604,4.3978,4.1782,3.9834,3.763,6.1007,6.1152,6.2141,6.2889,6.3251,6.3277,6.3277,6.3277,6.3277,6.3277,6.3277,6.3301,6.347,6.3756,6.3756,6.4357,6.5221,6.5342,6.5847,6.628,6.6519,6.6519,6.6519,6.6519,6.6519,6.6519,6.6519,6.6519,6.6519,6.6448,6.6448,6.6232,6.6087,6.5678,6.4718,6.4477,6.4165,6.3348,6.3301,6.3277,6.3277,6.3277,6.3277,6.3277,6.3277,6.3277,6.3277,6.3277,6.3277,6.3277,6.3277,6.3277,6.3122,6.2656,6.1941,6.0974,5.9726,5.8155,5.6933,5.5781,5.4682,5.3949,5.345,5.2786,5.28,5.2461,5.2544,5.2505,5.2114,5.2036,5.1894,5.1699,5.1479,5.1397,5.1397,5.1397,5.1397,5.1377,5.1358,5.1338,5.1299,5.1284,5.1016,5.0762,5.0464,5.025,4.9976,4.9527,4.9258,4.9007,4.8949,4.8894,4.8894,4.8894,4.8894,4.8894,4.8894,4.8894,4.8894,4.8894,4.8894,4.8894,4.8855,4.8734,4.8636,4.8441,4.8183,4.8008,4.7519,4.6903,4.5751,4.4446,4.2094,3.9759,3.7726,6.0983,6.1248,6.2117,6.2817,6.3275,6.3277,6.3277,6.3277,6.3277,6.3277,6.3277,6.3277,6.3277,6.3277,6.3325,6.407,6.4646,6.5005,6.5606,6.6256,6.6495,6.6519,6.6519,6.6519,6.6519,6.6519,6.6519,6.6519,6.6519,6.6448,6.628,6.5823,6.5486,6.5175,6.4405,6.4069,6.3852,6.3444,6.3277,6.3277,6.3277,6.3277,6.3277,6.3277,6.3277,6.3277,6.3277,6.3277,6.3277,6.3277,6.3277,6.3277,6.3036,6.2478,6.1469,6.0477,5.8879,5.7237,5.5724,5.4722,5.3849,5.3166,5.2912,5.2866,5.2963,5.3027,5.3086,5.291,5.2519,5.2251,5.209,5.1855,5.1636,5.1397,5.1397,5.1397,5.1397,5.1397,5.1397,5.1397,5.1377,5.1401,5.1245,5.1011,5.0835,5.064,5.0328,4.9879,4.9488,4.9258,4.9105,4.8968,4.8894,4.8894,4.8894,4.8894,4.8894,4.8894,4.8894,4.8894,4.8894,4.8894,4.8894,4.8894,4.8753,4.8636,4.8516,4.8363,4.7793,4.7243,4.6341,4.5016,4.2179,3.9933,3.7986,6.0866,6.1684,6.1876,6.2456,6.3227,6.3277,6.3277,6.3277,6.3277,6.3277,6.3277,6.3277,6.3277,6.3277,6.3277,6.3901,6.4766,6.4933,6.5582,6.6352,6.6495,6.6519,6.6519,6.6519,6.6519,6.6519,6.6519,6.6519,6.6519,6.6495,6.6208,6.5655,6.5678,6.5151,6.4261,6.3974,6.3804,6.3422,6.3277,6.3277,6.3277,6.3277,6.3277,6.3277,6.3277,6.3277,6.3277,6.3277,6.3277,6.3277,6.3277,6.3277,6.2967,6.2435,6.1448,6.0227,5.858,5.7057,5.5678,5.461,5.3891,5.3628,5.3529,5.3568,5.3627,5.3646,5.3646,5.3633,5.3281,5.2871,5.2656,5.2226,5.1953,5.1616,5.1479,5.144,5.1421,5.1397,5.1397,5.1397,5.1377,5.1377,5.1358,5.1206,5.1113,5.0918,5.0742,5.0293,4.9762,4.9531,4.9258,4.9128,4.8995,4.8894,4.8894,4.8894,4.8894,4.8894,4.8894,4.8894,4.8894,4.8894,4.8894,4.8894,4.8894,4.8792,4.8714,4.8617,4.834,4.7816,4.7124,4.5638,4.2654,4.022,3.8391]}]]